<?xml version="1.0" encoding="utf-8"?>
<gpx xmlns:xsi="http://www.w3.org/2001/XMLSchema-instance" xmlns:xsd="http://www.w3.org/2001/XMLSchema" version="1.1" creator="Shapelink.com" xmlns="http://www.topografix.com/GPX/1/1" xmlns:gpxtpx="http://www.garmin.com/xmlschemas/TrackPointExtension/v1">
  <metadata>
    <name>Ciclismo 45.27 km, 2015-06-19</name>
    <desc></desc>
    <author><name>Henrik Amren</name></author> 
    <time>2015-06-19T10:59:39Z</time>
  </metadata>
  <trk>
    <name>Ciclismo 45.27 km, 2015-06-19</name>
    <trkseg>
      <trkpt lat="39.8384" lon="3.1237276">
        <ele>23.4</ele>
        <time>2015-06-19T10:59:39Z</time>
      </trkpt>
      <trkpt lat="39.8384115" lon="3.1236062">
        <ele>23.4</ele>
        <time>2015-06-19T10:59:44Z</time>
      </trkpt>
      <trkpt lat="39.8383222" lon="3.123452">
        <ele>23.6</ele>
        <time>2015-06-19T10:59:49Z</time>
      </trkpt>
      <trkpt lat="39.8382741" lon="3.1233188">
        <ele>23.8</ele>
        <time>2015-06-19T10:59:53Z</time>
      </trkpt>
      <trkpt lat="39.8382914" lon="3.1232829">
        <ele>23.6</ele>
        <time>2015-06-19T10:59:54Z</time>
      </trkpt>
      <trkpt lat="39.8383817" lon="3.1231346">
        <ele>23.6</ele>
        <time>2015-06-19T10:59:58Z</time>
      </trkpt>
      <trkpt lat="39.8385426" lon="3.1228842">
        <ele>23.8</ele>
        <time>2015-06-19T11:00:04Z</time>
      </trkpt>
      <trkpt lat="39.8387375" lon="3.1225735">
        <ele>23.8</ele>
        <time>2015-06-19T11:00:11Z</time>
      </trkpt>
      <trkpt lat="39.8389191" lon="3.122292">
        <ele>23.8</ele>
        <time>2015-06-19T11:00:18Z</time>
      </trkpt>
      <trkpt lat="39.8389648" lon="3.1222145">
        <ele>23.6</ele>
        <time>2015-06-19T11:00:22Z</time>
      </trkpt>
      <trkpt lat="39.8390885" lon="3.1220254">
        <ele>23.8</ele>
        <time>2015-06-19T11:00:28Z</time>
      </trkpt>
      <trkpt lat="39.8392019" lon="3.1218397">
        <ele>24</ele>
        <time>2015-06-19T11:00:33Z</time>
      </trkpt>
      <trkpt lat="39.8393366" lon="3.1216191">
        <ele>24</ele>
        <time>2015-06-19T11:00:40Z</time>
      </trkpt>
      <trkpt lat="39.8394379" lon="3.1214535">
        <ele>23.8</ele>
        <time>2015-06-19T11:00:45Z</time>
      </trkpt>
      <trkpt lat="39.8394724" lon="3.1214251">
        <ele>23.6</ele>
        <time>2015-06-19T11:00:49Z</time>
      </trkpt>
      <trkpt lat="39.8394926" lon="3.1214063">
        <ele>23.6</ele>
        <time>2015-06-19T11:00:56Z</time>
      </trkpt>
      <trkpt lat="39.8395417" lon="3.1213662">
        <ele>23.6</ele>
        <time>2015-06-19T11:01:07Z</time>
      </trkpt>
      <trkpt lat="39.8395578" lon="3.1213554">
        <ele>23.6</ele>
        <time>2015-06-19T11:01:19Z</time>
      </trkpt>
      <trkpt lat="39.8395293" lon="3.121385">
        <ele>23.6</ele>
        <time>2015-06-19T11:01:33Z</time>
      </trkpt>
      <trkpt lat="39.8395435" lon="3.1213498">
        <ele>23.6</ele>
        <time>2015-06-19T11:01:38Z</time>
      </trkpt>
      <trkpt lat="39.8395253" lon="3.1213308">
        <ele>23.6</ele>
        <time>2015-06-19T11:01:40Z</time>
      </trkpt>
      <trkpt lat="39.8394609" lon="3.1214134">
        <ele>23.8</ele>
        <time>2015-06-19T11:01:44Z</time>
      </trkpt>
      <trkpt lat="39.8393941" lon="3.1215273">
        <ele>24</ele>
        <time>2015-06-19T11:01:47Z</time>
      </trkpt>
      <trkpt lat="39.839341" lon="3.1216238">
        <ele>24</ele>
        <time>2015-06-19T11:01:49Z</time>
      </trkpt>
      <trkpt lat="39.8391755" lon="3.1218846">
        <ele>24.4</ele>
        <time>2015-06-19T11:01:55Z</time>
      </trkpt>
      <trkpt lat="39.8391475" lon="3.121919">
        <ele>24.4</ele>
        <time>2015-06-19T11:01:56Z</time>
      </trkpt>
      <trkpt lat="39.8389871" lon="3.1221388">
        <ele>24.2</ele>
        <time>2015-06-19T11:02:02Z</time>
      </trkpt>
      <trkpt lat="39.8389642" lon="3.1221402">
        <ele>24.2</ele>
        <time>2015-06-19T11:02:03Z</time>
      </trkpt>
      <trkpt lat="39.838931" lon="3.1221741">
        <ele>24.2</ele>
        <time>2015-06-19T11:02:05Z</time>
      </trkpt>
      <trkpt lat="39.8389032" lon="3.1223052">
        <ele>24.2</ele>
        <time>2015-06-19T11:02:08Z</time>
      </trkpt>
      <trkpt lat="39.8388439" lon="3.1223921">
        <ele>24</ele>
        <time>2015-06-19T11:02:10Z</time>
      </trkpt>
      <trkpt lat="39.8387439" lon="3.1225339">
        <ele>24.2</ele>
        <time>2015-06-19T11:02:13Z</time>
      </trkpt>
      <trkpt lat="39.8384757" lon="3.122927">
        <ele>24.4</ele>
        <time>2015-06-19T11:02:21Z</time>
      </trkpt>
      <trkpt lat="39.8383215" lon="3.1231626">
        <ele>24.2</ele>
        <time>2015-06-19T11:02:26Z</time>
      </trkpt>
      <trkpt lat="39.8382932" lon="3.1231996">
        <ele>24.2</ele>
        <time>2015-06-19T11:02:27Z</time>
      </trkpt>
      <trkpt lat="39.8381825" lon="3.1232845">
        <ele>24</ele>
        <time>2015-06-19T11:02:31Z</time>
      </trkpt>
      <trkpt lat="39.8380875" lon="3.1232983">
        <ele>23.8</ele>
        <time>2015-06-19T11:02:34Z</time>
      </trkpt>
      <trkpt lat="39.8380681" lon="3.1232837">
        <ele>23.8</ele>
        <time>2015-06-19T11:02:35Z</time>
      </trkpt>
      <trkpt lat="39.8380525" lon="3.1232761">
        <ele>23.8</ele>
        <time>2015-06-19T11:02:36Z</time>
      </trkpt>
      <trkpt lat="39.8380454" lon="3.1232766">
        <ele>23.8</ele>
        <time>2015-06-19T11:02:40Z</time>
      </trkpt>
      <trkpt lat="39.8380299" lon="3.1232812">
        <ele>23.8</ele>
        <time>2015-06-19T11:02:42Z</time>
      </trkpt>
      <trkpt lat="39.8380067" lon="3.1232995">
        <ele>23.8</ele>
        <time>2015-06-19T11:02:46Z</time>
      </trkpt>
      <trkpt lat="39.8379861" lon="3.123286">
        <ele>23.2</ele>
        <time>2015-06-19T11:02:51Z</time>
      </trkpt>
      <trkpt lat="39.8379557" lon="3.1231772">
        <ele>22.6</ele>
        <time>2015-06-19T11:02:54Z</time>
      </trkpt>
      <trkpt lat="39.837941" lon="3.1231156">
        <ele>22.4</ele>
        <time>2015-06-19T11:02:55Z</time>
      </trkpt>
      <trkpt lat="39.8380184" lon="3.1232514">
        <ele>22.8</ele>
        <time>2015-06-19T11:05:45Z</time>
      </trkpt>
      <trkpt lat="39.8380303" lon="3.1232439">
        <ele>23.6</ele>
        <time>2015-06-19T11:05:50Z</time>
      </trkpt>
      <trkpt lat="39.8380454" lon="3.1231965">
        <ele>23.8</ele>
        <time>2015-06-19T11:05:55Z</time>
      </trkpt>
      <trkpt lat="39.8380302" lon="3.123156">
        <ele>23.8</ele>
        <time>2015-06-19T11:05:59Z</time>
      </trkpt>
      <trkpt lat="39.8379302" lon="3.1230985">
        <ele>23.8</ele>
        <time>2015-06-19T11:06:04Z</time>
      </trkpt>
      <trkpt lat="39.8377584" lon="3.123018">
        <ele>23.8</ele>
        <time>2015-06-19T11:06:10Z</time>
      </trkpt>
      <trkpt lat="39.8375418" lon="3.1229432">
        <ele>23.8</ele>
        <time>2015-06-19T11:06:16Z</time>
      </trkpt>
      <trkpt lat="39.8373279" lon="3.1228473">
        <ele>24</ele>
        <time>2015-06-19T11:06:22Z</time>
      </trkpt>
      <trkpt lat="39.8372052" lon="3.1227173">
        <ele>24</ele>
        <time>2015-06-19T11:06:27Z</time>
      </trkpt>
      <trkpt lat="39.8371398" lon="3.1226758">
        <ele>23.8</ele>
        <time>2015-06-19T11:06:32Z</time>
      </trkpt>
      <trkpt lat="39.8370885" lon="3.122624">
        <ele>23.6</ele>
        <time>2015-06-19T11:06:38Z</time>
      </trkpt>
      <trkpt lat="39.837018" lon="3.1225466">
        <ele>23.8</ele>
        <time>2015-06-19T11:06:42Z</time>
      </trkpt>
      <trkpt lat="39.836857" lon="3.1223839">
        <ele>24</ele>
        <time>2015-06-19T11:06:48Z</time>
      </trkpt>
      <trkpt lat="39.8366598" lon="3.1221659">
        <ele>24.2</ele>
        <time>2015-06-19T11:06:55Z</time>
      </trkpt>
      <trkpt lat="39.8364921" lon="3.1219281">
        <ele>24</ele>
        <time>2015-06-19T11:07:01Z</time>
      </trkpt>
      <trkpt lat="39.8364435" lon="3.1218165">
        <ele>23.8</ele>
        <time>2015-06-19T11:07:03Z</time>
      </trkpt>
      <trkpt lat="39.8363423" lon="3.1215813">
        <ele>23.8</ele>
        <time>2015-06-19T11:07:07Z</time>
      </trkpt>
      <trkpt lat="39.8362885" lon="3.1214806">
        <ele>23.8</ele>
        <time>2015-06-19T11:07:09Z</time>
      </trkpt>
      <trkpt lat="39.8362723" lon="3.1214222">
        <ele>24</ele>
        <time>2015-06-19T11:07:11Z</time>
      </trkpt>
      <trkpt lat="39.8362424" lon="3.1213865">
        <ele>23.8</ele>
        <time>2015-06-19T11:07:14Z</time>
      </trkpt>
      <trkpt lat="39.8362213" lon="3.1213644">
        <ele>23.8</ele>
        <time>2015-06-19T11:07:15Z</time>
      </trkpt>
      <trkpt lat="39.836117" lon="3.1212253">
        <ele>23.8</ele>
        <time>2015-06-19T11:07:19Z</time>
      </trkpt>
      <trkpt lat="39.8360286" lon="3.121127">
        <ele>23.8</ele>
        <time>2015-06-19T11:07:22Z</time>
      </trkpt>
      <trkpt lat="39.8359711" lon="3.1210612">
        <ele>23.8</ele>
        <time>2015-06-19T11:07:24Z</time>
      </trkpt>
      <trkpt lat="39.8358944" lon="3.1210101">
        <ele>23.8</ele>
        <time>2015-06-19T11:07:26Z</time>
      </trkpt>
      <trkpt lat="39.8358235" lon="3.1209313">
        <ele>23.8</ele>
        <time>2015-06-19T11:07:28Z</time>
      </trkpt>
      <trkpt lat="39.8357835" lon="3.1208985">
        <ele>23.8</ele>
        <time>2015-06-19T11:07:29Z</time>
      </trkpt>
      <trkpt lat="39.8356401" lon="3.1208406">
        <ele>24</ele>
        <time>2015-06-19T11:07:32Z</time>
      </trkpt>
      <trkpt lat="39.8355907" lon="3.1208239">
        <ele>24</ele>
        <time>2015-06-19T11:07:33Z</time>
      </trkpt>
      <trkpt lat="39.8351217" lon="3.1207073">
        <ele>24</ele>
        <time>2015-06-19T11:07:42Z</time>
      </trkpt>
      <trkpt lat="39.8347587" lon="3.1205749">
        <ele>24</ele>
        <time>2015-06-19T11:07:49Z</time>
      </trkpt>
      <trkpt lat="39.8344905" lon="3.1203657">
        <ele>23.8</ele>
        <time>2015-06-19T11:07:55Z</time>
      </trkpt>
      <trkpt lat="39.8342398" lon="3.1201407">
        <ele>24</ele>
        <time>2015-06-19T11:08:01Z</time>
      </trkpt>
      <trkpt lat="39.83401" lon="3.1198944">
        <ele>23.8</ele>
        <time>2015-06-19T11:08:07Z</time>
      </trkpt>
      <trkpt lat="39.8339739" lon="3.1198445">
        <ele>23.8</ele>
        <time>2015-06-19T11:08:08Z</time>
      </trkpt>
      <trkpt lat="39.8339471" lon="3.1197901">
        <ele>23.8</ele>
        <time>2015-06-19T11:08:09Z</time>
      </trkpt>
      <trkpt lat="39.8338587" lon="3.1196273">
        <ele>23.8</ele>
        <time>2015-06-19T11:08:12Z</time>
      </trkpt>
      <trkpt lat="39.8338033" lon="3.119513">
        <ele>23.8</ele>
        <time>2015-06-19T11:08:14Z</time>
      </trkpt>
      <trkpt lat="39.8335748" lon="3.1191548">
        <ele>23.8</ele>
        <time>2015-06-19T11:08:21Z</time>
      </trkpt>
      <trkpt lat="39.8335378" lon="3.1191169">
        <ele>23.8</ele>
        <time>2015-06-19T11:08:22Z</time>
      </trkpt>
      <trkpt lat="39.833468" lon="3.1190539">
        <ele>23.8</ele>
        <time>2015-06-19T11:08:24Z</time>
      </trkpt>
      <trkpt lat="39.8334307" lon="3.1190544">
        <ele>23.8</ele>
        <time>2015-06-19T11:08:25Z</time>
      </trkpt>
      <trkpt lat="39.8333476" lon="3.1191474">
        <ele>23.8</ele>
        <time>2015-06-19T11:08:28Z</time>
      </trkpt>
      <trkpt lat="39.833308" lon="3.1192412">
        <ele>23.8</ele>
        <time>2015-06-19T11:08:30Z</time>
      </trkpt>
      <trkpt lat="39.8332588" lon="3.1193682">
        <ele>23.8</ele>
        <time>2015-06-19T11:08:33Z</time>
      </trkpt>
      <trkpt lat="39.8331881" lon="3.1194854">
        <ele>23.6</ele>
        <time>2015-06-19T11:08:38Z</time>
      </trkpt>
      <trkpt lat="39.833078" lon="3.1194403">
        <ele>23.4</ele>
        <time>2015-06-19T11:08:42Z</time>
      </trkpt>
      <trkpt lat="39.8330379" lon="3.1194162">
        <ele>23.4</ele>
        <time>2015-06-19T11:08:43Z</time>
      </trkpt>
      <trkpt lat="39.8328955" lon="3.1193182">
        <ele>23.4</ele>
        <time>2015-06-19T11:08:47Z</time>
      </trkpt>
      <trkpt lat="39.8326829" lon="3.1191479">
        <ele>23.6</ele>
        <time>2015-06-19T11:08:53Z</time>
      </trkpt>
      <trkpt lat="39.8326332" lon="3.1190392">
        <ele>23.8</ele>
        <time>2015-06-19T11:08:56Z</time>
      </trkpt>
      <trkpt lat="39.8325985" lon="3.1190353">
        <ele>23.6</ele>
        <time>2015-06-19T11:08:57Z</time>
      </trkpt>
      <trkpt lat="39.8325835" lon="3.1190969">
        <ele>23.6</ele>
        <time>2015-06-19T11:08:59Z</time>
      </trkpt>
      <trkpt lat="39.8326552" lon="3.1191753">
        <ele>23.6</ele>
        <time>2015-06-19T11:09:02Z</time>
      </trkpt>
      <trkpt lat="39.8327583" lon="3.1192485">
        <ele>23.6</ele>
        <time>2015-06-19T11:09:05Z</time>
      </trkpt>
      <trkpt lat="39.83283" lon="3.1193039">
        <ele>23.6</ele>
        <time>2015-06-19T11:09:07Z</time>
      </trkpt>
      <trkpt lat="39.8328697" lon="3.1193279">
        <ele>23.8</ele>
        <time>2015-06-19T11:09:08Z</time>
      </trkpt>
      <trkpt lat="39.833009" lon="3.1194226">
        <ele>24</ele>
        <time>2015-06-19T11:09:12Z</time>
      </trkpt>
      <trkpt lat="39.8330877" lon="3.1194503">
        <ele>23.6</ele>
        <time>2015-06-19T11:09:16Z</time>
      </trkpt>
      <trkpt lat="39.8331201" lon="3.1195311">
        <ele>23.4</ele>
        <time>2015-06-19T11:09:20Z</time>
      </trkpt>
      <trkpt lat="39.8330553" lon="3.119705">
        <ele>23.6</ele>
        <time>2015-06-19T11:09:25Z</time>
      </trkpt>
      <trkpt lat="39.8329822" lon="3.1198977">
        <ele>23.6</ele>
        <time>2015-06-19T11:09:31Z</time>
      </trkpt>
      <trkpt lat="39.8329379" lon="3.1199303">
        <ele>23.4</ele>
        <time>2015-06-19T11:09:34Z</time>
      </trkpt>
      <trkpt lat="39.8329208" lon="3.1199112">
        <ele>23.4</ele>
        <time>2015-06-19T11:09:35Z</time>
      </trkpt>
      <trkpt lat="39.8327858" lon="3.1198356">
        <ele>23.4</ele>
        <time>2015-06-19T11:09:40Z</time>
      </trkpt>
      <trkpt lat="39.8326575" lon="3.1197231">
        <ele>23.4</ele>
        <time>2015-06-19T11:09:45Z</time>
      </trkpt>
      <trkpt lat="39.8324613" lon="3.119596">
        <ele>23.2</ele>
        <time>2015-06-19T11:09:53Z</time>
      </trkpt>
      <trkpt lat="39.8323691" lon="3.1195787">
        <ele>23.2</ele>
        <time>2015-06-19T11:09:58Z</time>
      </trkpt>
      <trkpt lat="39.8322567" lon="3.1195205">
        <ele>23.2</ele>
        <time>2015-06-19T11:10:03Z</time>
      </trkpt>
      <trkpt lat="39.8321533" lon="3.1194271">
        <ele>23.2</ele>
        <time>2015-06-19T11:10:07Z</time>
      </trkpt>
      <trkpt lat="39.832043" lon="3.1193616">
        <ele>23.2</ele>
        <time>2015-06-19T11:10:12Z</time>
      </trkpt>
      <trkpt lat="39.8319069" lon="3.119283">
        <ele>23.2</ele>
        <time>2015-06-19T11:10:17Z</time>
      </trkpt>
      <trkpt lat="39.8317627" lon="3.119185">
        <ele>23.2</ele>
        <time>2015-06-19T11:10:23Z</time>
      </trkpt>
      <trkpt lat="39.8316727" lon="3.119115">
        <ele>23</ele>
        <time>2015-06-19T11:10:30Z</time>
      </trkpt>
      <trkpt lat="39.8315789" lon="3.1190669">
        <ele>22.8</ele>
        <time>2015-06-19T11:10:39Z</time>
      </trkpt>
      <trkpt lat="39.8314603" lon="3.1190301">
        <ele>22.8</ele>
        <time>2015-06-19T11:10:46Z</time>
      </trkpt>
      <trkpt lat="39.8313653" lon="3.1189314">
        <ele>23</ele>
        <time>2015-06-19T11:10:52Z</time>
      </trkpt>
      <trkpt lat="39.8313266" lon="3.1188707">
        <ele>23</ele>
        <time>2015-06-19T11:10:58Z</time>
      </trkpt>
      <trkpt lat="39.8313532" lon="3.1188027">
        <ele>23</ele>
        <time>2015-06-19T11:11:02Z</time>
      </trkpt>
      <trkpt lat="39.8313483" lon="3.1186663">
        <ele>23.2</ele>
        <time>2015-06-19T11:11:08Z</time>
      </trkpt>
      <trkpt lat="39.8313693" lon="3.1186474">
        <ele>23.2</ele>
        <time>2015-06-19T11:11:09Z</time>
      </trkpt>
      <trkpt lat="39.8314303" lon="3.1186051">
        <ele>23.4</ele>
        <time>2015-06-19T11:11:12Z</time>
      </trkpt>
      <trkpt lat="39.831437" lon="3.1184942">
        <ele>23.2</ele>
        <time>2015-06-19T11:11:15Z</time>
      </trkpt>
      <trkpt lat="39.831462" lon="3.1183514">
        <ele>23.2</ele>
        <time>2015-06-19T11:11:18Z</time>
      </trkpt>
      <trkpt lat="39.8314691" lon="3.1182571">
        <ele>23.2</ele>
        <time>2015-06-19T11:11:20Z</time>
      </trkpt>
      <trkpt lat="39.8314973" lon="3.1180002">
        <ele>23.2</ele>
        <time>2015-06-19T11:11:26Z</time>
      </trkpt>
      <trkpt lat="39.8315354" lon="3.1177666">
        <ele>23.2</ele>
        <time>2015-06-19T11:11:32Z</time>
      </trkpt>
      <trkpt lat="39.8315623" lon="3.1177222">
        <ele>23</ele>
        <time>2015-06-19T11:11:36Z</time>
      </trkpt>
      <trkpt lat="39.8315612" lon="3.1177004">
        <ele>23</ele>
        <time>2015-06-19T11:11:44Z</time>
      </trkpt>
      <trkpt lat="39.8315365" lon="3.1176436">
        <ele>23</ele>
        <time>2015-06-19T11:11:56Z</time>
      </trkpt>
      <trkpt lat="39.8315503" lon="3.1174703">
        <ele>23.2</ele>
        <time>2015-06-19T11:12:01Z</time>
      </trkpt>
      <trkpt lat="39.8316238" lon="3.1172812">
        <ele>23.2</ele>
        <time>2015-06-19T11:12:06Z</time>
      </trkpt>
      <trkpt lat="39.8316346" lon="3.1172767">
        <ele>23.2</ele>
        <time>2015-06-19T11:12:07Z</time>
      </trkpt>
      <trkpt lat="39.831659" lon="3.1172351">
        <ele>23.2</ele>
        <time>2015-06-19T11:12:10Z</time>
      </trkpt>
      <trkpt lat="39.8317104" lon="3.1170585">
        <ele>23.2</ele>
        <time>2015-06-19T11:12:14Z</time>
      </trkpt>
      <trkpt lat="39.8316334" lon="3.1169727">
        <ele>23.8</ele>
        <time>2015-06-19T11:12:17Z</time>
      </trkpt>
      <trkpt lat="39.8315111" lon="3.1169946">
        <ele>23.8</ele>
        <time>2015-06-19T11:12:21Z</time>
      </trkpt>
      <trkpt lat="39.8314162" lon="3.1169345">
        <ele>23.6</ele>
        <time>2015-06-19T11:12:25Z</time>
      </trkpt>
      <trkpt lat="39.8312498" lon="3.1168828">
        <ele>23.6</ele>
        <time>2015-06-19T11:12:29Z</time>
      </trkpt>
      <trkpt lat="39.8312059" lon="3.1168685">
        <ele>23.8</ele>
        <time>2015-06-19T11:12:30Z</time>
      </trkpt>
      <trkpt lat="39.8308691" lon="3.1167817">
        <ele>23.8</ele>
        <time>2015-06-19T11:12:37Z</time>
      </trkpt>
      <trkpt lat="39.8305171" lon="3.1166583">
        <ele>23.8</ele>
        <time>2015-06-19T11:12:43Z</time>
      </trkpt>
      <trkpt lat="39.8299793" lon="3.1164774">
        <ele>24</ele>
        <time>2015-06-19T11:12:52Z</time>
      </trkpt>
      <trkpt lat="39.8294224" lon="3.1162898">
        <ele>24.2</ele>
        <time>2015-06-19T11:13:01Z</time>
      </trkpt>
      <trkpt lat="39.8288617" lon="3.1161206">
        <ele>24.2</ele>
        <time>2015-06-19T11:13:10Z</time>
      </trkpt>
      <trkpt lat="39.8282792" lon="3.1159444">
        <ele>24.2</ele>
        <time>2015-06-19T11:13:19Z</time>
      </trkpt>
      <trkpt lat="39.8276906" lon="3.1158381">
        <ele>24.4</ele>
        <time>2015-06-19T11:13:28Z</time>
      </trkpt>
      <trkpt lat="39.8274921" lon="3.1158062">
        <ele>24.6</ele>
        <time>2015-06-19T11:13:31Z</time>
      </trkpt>
      <trkpt lat="39.8269632" lon="3.1156918">
        <ele>24.8</ele>
        <time>2015-06-19T11:13:39Z</time>
      </trkpt>
      <trkpt lat="39.8269002" lon="3.1156801">
        <ele>24.8</ele>
        <time>2015-06-19T11:13:40Z</time>
      </trkpt>
      <trkpt lat="39.8263526" lon="3.115573">
        <ele>24.8</ele>
        <time>2015-06-19T11:13:48Z</time>
      </trkpt>
      <trkpt lat="39.8262814" lon="3.1155601">
        <ele>24.8</ele>
        <time>2015-06-19T11:13:49Z</time>
      </trkpt>
      <trkpt lat="39.8258247" lon="3.1154727">
        <ele>25</ele>
        <time>2015-06-19T11:13:56Z</time>
      </trkpt>
      <trkpt lat="39.8252463" lon="3.1153698">
        <ele>24.6</ele>
        <time>2015-06-19T11:14:05Z</time>
      </trkpt>
      <trkpt lat="39.8248962" lon="3.1153008">
        <ele>24.2</ele>
        <time>2015-06-19T11:14:11Z</time>
      </trkpt>
      <trkpt lat="39.824738" lon="3.1152559">
        <ele>24.4</ele>
        <time>2015-06-19T11:14:14Z</time>
      </trkpt>
      <trkpt lat="39.8246283" lon="3.1151904">
        <ele>24.6</ele>
        <time>2015-06-19T11:14:16Z</time>
      </trkpt>
      <trkpt lat="39.8245044" lon="3.1151596">
        <ele>24.6</ele>
        <time>2015-06-19T11:14:18Z</time>
      </trkpt>
      <trkpt lat="39.8243027" lon="3.1151324">
        <ele>24.4</ele>
        <time>2015-06-19T11:14:21Z</time>
      </trkpt>
      <trkpt lat="39.8237725" lon="3.1150417">
        <ele>24.2</ele>
        <time>2015-06-19T11:14:29Z</time>
      </trkpt>
      <trkpt lat="39.823197" lon="3.1149254">
        <ele>24.4</ele>
        <time>2015-06-19T11:14:38Z</time>
      </trkpt>
      <trkpt lat="39.8231341" lon="3.1149151">
        <ele>24.2</ele>
        <time>2015-06-19T11:14:39Z</time>
      </trkpt>
      <trkpt lat="39.8227509" lon="3.1148353">
        <ele>24.4</ele>
        <time>2015-06-19T11:14:46Z</time>
      </trkpt>
      <trkpt lat="39.8225878" lon="3.114797">
        <ele>24</ele>
        <time>2015-06-19T11:14:50Z</time>
      </trkpt>
      <trkpt lat="39.8225077" lon="3.1147832">
        <ele>23.8</ele>
        <time>2015-06-19T11:14:52Z</time>
      </trkpt>
      <trkpt lat="39.8224646" lon="3.1147754">
        <ele>23.8</ele>
        <time>2015-06-19T11:14:53Z</time>
      </trkpt>
      <trkpt lat="39.8221573" lon="3.1147275">
        <ele>24.2</ele>
        <time>2015-06-19T11:14:59Z</time>
      </trkpt>
      <trkpt lat="39.8215838" lon="3.1146332">
        <ele>24.4</ele>
        <time>2015-06-19T11:15:09Z</time>
      </trkpt>
      <trkpt lat="39.8211354" lon="3.1145413">
        <ele>24.2</ele>
        <time>2015-06-19T11:15:17Z</time>
      </trkpt>
      <trkpt lat="39.8205931" lon="3.1144359">
        <ele>24.4</ele>
        <time>2015-06-19T11:15:26Z</time>
      </trkpt>
      <trkpt lat="39.8200468" lon="3.1143499">
        <ele>24.8</ele>
        <time>2015-06-19T11:15:35Z</time>
      </trkpt>
      <trkpt lat="39.8199853" lon="3.1143449">
        <ele>24.6</ele>
        <time>2015-06-19T11:15:36Z</time>
      </trkpt>
      <trkpt lat="39.8199282" lon="3.1143266">
        <ele>24.6</ele>
        <time>2015-06-19T11:15:37Z</time>
      </trkpt>
      <trkpt lat="39.8196998" lon="3.1142813">
        <ele>24.4</ele>
        <time>2015-06-19T11:15:41Z</time>
      </trkpt>
      <trkpt lat="39.819219" lon="3.1142133">
        <ele>24.6</ele>
        <time>2015-06-19T11:15:49Z</time>
      </trkpt>
      <trkpt lat="39.8187546" lon="3.1141251">
        <ele>24.8</ele>
        <time>2015-06-19T11:15:57Z</time>
      </trkpt>
      <trkpt lat="39.8186376" lon="3.114106">
        <ele>24.8</ele>
        <time>2015-06-19T11:15:59Z</time>
      </trkpt>
      <trkpt lat="39.8182924" lon="3.1140316">
        <ele>24.8</ele>
        <time>2015-06-19T11:16:05Z</time>
      </trkpt>
      <trkpt lat="39.8178843" lon="3.1139868">
        <ele>24.8</ele>
        <time>2015-06-19T11:16:12Z</time>
      </trkpt>
      <trkpt lat="39.8176763" lon="3.1139403">
        <ele>24.8</ele>
        <time>2015-06-19T11:16:16Z</time>
      </trkpt>
      <trkpt lat="39.8170952" lon="3.1138412">
        <ele>25.4</ele>
        <time>2015-06-19T11:16:26Z</time>
      </trkpt>
      <trkpt lat="39.8167116" lon="3.1138139">
        <ele>25.6</ele>
        <time>2015-06-19T11:16:33Z</time>
      </trkpt>
      <trkpt lat="39.8163681" lon="3.1138522">
        <ele>25.8</ele>
        <time>2015-06-19T11:16:40Z</time>
      </trkpt>
      <trkpt lat="39.8162661" lon="3.1138808">
        <ele>25.6</ele>
        <time>2015-06-19T11:16:42Z</time>
      </trkpt>
      <trkpt lat="39.8161407" lon="3.1139067">
        <ele>25.6</ele>
        <time>2015-06-19T11:16:45Z</time>
      </trkpt>
      <trkpt lat="39.8159241" lon="3.1139714">
        <ele>25.2</ele>
        <time>2015-06-19T11:16:51Z</time>
      </trkpt>
      <trkpt lat="39.815811" lon="3.114013">
        <ele>25.2</ele>
        <time>2015-06-19T11:16:54Z</time>
      </trkpt>
      <trkpt lat="39.8157189" lon="3.1140453">
        <ele>25.2</ele>
        <time>2015-06-19T11:16:56Z</time>
      </trkpt>
      <trkpt lat="39.8156724" lon="3.1140593">
        <ele>25.2</ele>
        <time>2015-06-19T11:16:57Z</time>
      </trkpt>
      <trkpt lat="39.8153728" lon="3.1141512">
        <ele>25.6</ele>
        <time>2015-06-19T11:17:04Z</time>
      </trkpt>
      <trkpt lat="39.8151295" lon="3.1142153">
        <ele>25</ele>
        <time>2015-06-19T11:17:11Z</time>
      </trkpt>
      <trkpt lat="39.8150245" lon="3.1142826">
        <ele>24.8</ele>
        <time>2015-06-19T11:17:14Z</time>
      </trkpt>
      <trkpt lat="39.8149437" lon="3.1143554">
        <ele>25</ele>
        <time>2015-06-19T11:17:16Z</time>
      </trkpt>
      <trkpt lat="39.8147336" lon="3.1144437">
        <ele>25.2</ele>
        <time>2015-06-19T11:17:20Z</time>
      </trkpt>
      <trkpt lat="39.8146736" lon="3.1144607">
        <ele>25.2</ele>
        <time>2015-06-19T11:17:21Z</time>
      </trkpt>
      <trkpt lat="39.8141964" lon="3.1146118">
        <ele>25.4</ele>
        <time>2015-06-19T11:17:29Z</time>
      </trkpt>
      <trkpt lat="39.8139938" lon="3.114665">
        <ele>25.4</ele>
        <time>2015-06-19T11:17:33Z</time>
      </trkpt>
      <trkpt lat="39.8138713" lon="3.1147014">
        <ele>25.2</ele>
        <time>2015-06-19T11:17:37Z</time>
      </trkpt>
      <trkpt lat="39.8136725" lon="3.1147591">
        <ele>25.2</ele>
        <time>2015-06-19T11:17:43Z</time>
      </trkpt>
      <trkpt lat="39.813503" lon="3.114797">
        <ele>25</ele>
        <time>2015-06-19T11:17:50Z</time>
      </trkpt>
      <trkpt lat="39.8133085" lon="3.1148461">
        <ele>25.2</ele>
        <time>2015-06-19T11:17:57Z</time>
      </trkpt>
      <trkpt lat="39.8131336" lon="3.1149002">
        <ele>25.4</ele>
        <time>2015-06-19T11:18:02Z</time>
      </trkpt>
      <trkpt lat="39.812851" lon="3.115003">
        <ele>25.4</ele>
        <time>2015-06-19T11:18:08Z</time>
      </trkpt>
      <trkpt lat="39.8124866" lon="3.1151207">
        <ele>25.8</ele>
        <time>2015-06-19T11:18:15Z</time>
      </trkpt>
      <trkpt lat="39.8123236" lon="3.1151716">
        <ele>25.8</ele>
        <time>2015-06-19T11:18:18Z</time>
      </trkpt>
      <trkpt lat="39.812008" lon="3.1152653">
        <ele>25.6</ele>
        <time>2015-06-19T11:18:23Z</time>
      </trkpt>
      <trkpt lat="39.8115303" lon="3.1154348">
        <ele>25.8</ele>
        <time>2015-06-19T11:18:31Z</time>
      </trkpt>
      <trkpt lat="39.81142" lon="3.1154854">
        <ele>25.8</ele>
        <time>2015-06-19T11:18:33Z</time>
      </trkpt>
      <trkpt lat="39.8113029" lon="3.1155372">
        <ele>25.8</ele>
        <time>2015-06-19T11:18:35Z</time>
      </trkpt>
      <trkpt lat="39.8112498" lon="3.1155672">
        <ele>25.8</ele>
        <time>2015-06-19T11:18:36Z</time>
      </trkpt>
      <trkpt lat="39.8109487" lon="3.1156392">
        <ele>26</ele>
        <time>2015-06-19T11:18:41Z</time>
      </trkpt>
      <trkpt lat="39.8104429" lon="3.1157871">
        <ele>26</ele>
        <time>2015-06-19T11:18:50Z</time>
      </trkpt>
      <trkpt lat="39.8098773" lon="3.1159472">
        <ele>25.6</ele>
        <time>2015-06-19T11:19:00Z</time>
      </trkpt>
      <trkpt lat="39.8093152" lon="3.1161326">
        <ele>25.8</ele>
        <time>2015-06-19T11:19:10Z</time>
      </trkpt>
      <trkpt lat="39.8092448" lon="3.1161578">
        <ele>25.8</ele>
        <time>2015-06-19T11:19:11Z</time>
      </trkpt>
      <trkpt lat="39.8088362" lon="3.1162918">
        <ele>25.8</ele>
        <time>2015-06-19T11:19:18Z</time>
      </trkpt>
      <trkpt lat="39.8082871" lon="3.1164649">
        <ele>25.8</ele>
        <time>2015-06-19T11:19:27Z</time>
      </trkpt>
      <trkpt lat="39.8078199" lon="3.1166269">
        <ele>26</ele>
        <time>2015-06-19T11:19:35Z</time>
      </trkpt>
      <trkpt lat="39.8072707" lon="3.1167867">
        <ele>26</ele>
        <time>2015-06-19T11:19:44Z</time>
      </trkpt>
      <trkpt lat="39.8072062" lon="3.1168101">
        <ele>25.8</ele>
        <time>2015-06-19T11:19:45Z</time>
      </trkpt>
      <trkpt lat="39.8067983" lon="3.1169489">
        <ele>26</ele>
        <time>2015-06-19T11:19:50Z</time>
      </trkpt>
      <trkpt lat="39.8063434" lon="3.1170936">
        <ele>26.8</ele>
        <time>2015-06-19T11:19:55Z</time>
      </trkpt>
      <trkpt lat="39.8059545" lon="3.1172052">
        <ele>27.2</ele>
        <time>2015-06-19T11:19:59Z</time>
      </trkpt>
      <trkpt lat="39.8053886" lon="3.1173703">
        <ele>27</ele>
        <time>2015-06-19T11:20:05Z</time>
      </trkpt>
      <trkpt lat="39.8048045" lon="3.1175517">
        <ele>26.6</ele>
        <time>2015-06-19T11:20:12Z</time>
      </trkpt>
      <trkpt lat="39.8044102" lon="3.117665">
        <ele>26.2</ele>
        <time>2015-06-19T11:20:18Z</time>
      </trkpt>
      <trkpt lat="39.8043152" lon="3.1176549">
        <ele>26.2</ele>
        <time>2015-06-19T11:20:20Z</time>
      </trkpt>
      <trkpt lat="39.8042344" lon="3.1176066">
        <ele>25.8</ele>
        <time>2015-06-19T11:20:22Z</time>
      </trkpt>
      <trkpt lat="39.8040764" lon="3.1175103">
        <ele>25.8</ele>
        <time>2015-06-19T11:20:26Z</time>
      </trkpt>
      <trkpt lat="39.8040343" lon="3.1173311">
        <ele>26</ele>
        <time>2015-06-19T11:20:29Z</time>
      </trkpt>
      <trkpt lat="39.8039755" lon="3.1170255">
        <ele>25.6</ele>
        <time>2015-06-19T11:20:34Z</time>
      </trkpt>
      <trkpt lat="39.803959" lon="3.116965">
        <ele>25.6</ele>
        <time>2015-06-19T11:20:35Z</time>
      </trkpt>
      <trkpt lat="39.8038601" lon="3.1165242">
        <ele>25.2</ele>
        <time>2015-06-19T11:20:42Z</time>
      </trkpt>
      <trkpt lat="39.8037557" lon="3.1160203">
        <ele>25</ele>
        <time>2015-06-19T11:20:50Z</time>
      </trkpt>
      <trkpt lat="39.8037164" lon="3.1157915">
        <ele>24.8</ele>
        <time>2015-06-19T11:20:54Z</time>
      </trkpt>
      <trkpt lat="39.8037136" lon="3.1157024">
        <ele>24.6</ele>
        <time>2015-06-19T11:20:56Z</time>
      </trkpt>
      <trkpt lat="39.8037044" lon="3.1156056">
        <ele>24.4</ele>
        <time>2015-06-19T11:20:59Z</time>
      </trkpt>
      <trkpt lat="39.8036616" lon="3.1155827">
        <ele>24.2</ele>
        <time>2015-06-19T11:21:01Z</time>
      </trkpt>
      <trkpt lat="39.8036241" lon="3.1156431">
        <ele>24.2</ele>
        <time>2015-06-19T11:21:04Z</time>
      </trkpt>
      <trkpt lat="39.8036454" lon="3.1157687">
        <ele>24.6</ele>
        <time>2015-06-19T11:21:08Z</time>
      </trkpt>
      <trkpt lat="39.803654" lon="3.1158078">
        <ele>24.6</ele>
        <time>2015-06-19T11:21:09Z</time>
      </trkpt>
      <trkpt lat="39.8037103" lon="3.1160696">
        <ele>25</ele>
        <time>2015-06-19T11:21:15Z</time>
      </trkpt>
      <trkpt lat="39.803786" lon="3.1162918">
        <ele>24.8</ele>
        <time>2015-06-19T11:21:22Z</time>
      </trkpt>
      <trkpt lat="39.8037825" lon="3.1162276">
        <ele>25</ele>
        <time>2015-06-19T11:21:24Z</time>
      </trkpt>
      <trkpt lat="39.8037602" lon="3.1161178">
        <ele>24.8</ele>
        <time>2015-06-19T11:21:26Z</time>
      </trkpt>
      <trkpt lat="39.8037421" lon="3.1159973">
        <ele>24.8</ele>
        <time>2015-06-19T11:21:28Z</time>
      </trkpt>
      <trkpt lat="39.8036998" lon="3.1157071">
        <ele>25</ele>
        <time>2015-06-19T11:21:32Z</time>
      </trkpt>
      <trkpt lat="39.8037092" lon="3.115636">
        <ele>24.8</ele>
        <time>2015-06-19T11:21:33Z</time>
      </trkpt>
      <trkpt lat="39.8038042" lon="3.1155666">
        <ele>24.8</ele>
        <time>2015-06-19T11:21:35Z</time>
      </trkpt>
      <trkpt lat="39.8039187" lon="3.1155377">
        <ele>24.6</ele>
        <time>2015-06-19T11:21:37Z</time>
      </trkpt>
      <trkpt lat="39.8040321" lon="3.1155035">
        <ele>24.6</ele>
        <time>2015-06-19T11:21:39Z</time>
      </trkpt>
      <trkpt lat="39.804542" lon="3.1154045">
        <ele>25.2</ele>
        <time>2015-06-19T11:21:48Z</time>
      </trkpt>
      <trkpt lat="39.8049987" lon="3.1152843">
        <ele>25</ele>
        <time>2015-06-19T11:21:56Z</time>
      </trkpt>
      <trkpt lat="39.8054218" lon="3.1151841">
        <ele>25.2</ele>
        <time>2015-06-19T11:22:04Z</time>
      </trkpt>
      <trkpt lat="39.8055692" lon="3.1151439">
        <ele>24.8</ele>
        <time>2015-06-19T11:22:07Z</time>
      </trkpt>
      <trkpt lat="39.8057521" lon="3.1151095">
        <ele>24.4</ele>
        <time>2015-06-19T11:22:11Z</time>
      </trkpt>
      <trkpt lat="39.8059689" lon="3.1150886">
        <ele>24.6</ele>
        <time>2015-06-19T11:22:15Z</time>
      </trkpt>
      <trkpt lat="39.8061201" lon="3.1150618">
        <ele>25</ele>
        <time>2015-06-19T11:22:19Z</time>
      </trkpt>
      <trkpt lat="39.8063021" lon="3.1149905">
        <ele>24.8</ele>
        <time>2015-06-19T11:22:24Z</time>
      </trkpt>
      <trkpt lat="39.8064399" lon="3.1149461">
        <ele>25</ele>
        <time>2015-06-19T11:22:27Z</time>
      </trkpt>
      <trkpt lat="39.8065834" lon="3.1148916">
        <ele>25.2</ele>
        <time>2015-06-19T11:22:30Z</time>
      </trkpt>
      <trkpt lat="39.807034" lon="3.1146885">
        <ele>25</ele>
        <time>2015-06-19T11:22:39Z</time>
      </trkpt>
      <trkpt lat="39.8072654" lon="3.1145866">
        <ele>25</ele>
        <time>2015-06-19T11:22:44Z</time>
      </trkpt>
      <trkpt lat="39.807348" lon="3.1145459">
        <ele>25.2</ele>
        <time>2015-06-19T11:22:46Z</time>
      </trkpt>
      <trkpt lat="39.807435" lon="3.114504">
        <ele>25</ele>
        <time>2015-06-19T11:22:48Z</time>
      </trkpt>
      <trkpt lat="39.807583" lon="3.1144552">
        <ele>25</ele>
        <time>2015-06-19T11:22:51Z</time>
      </trkpt>
      <trkpt lat="39.8077224" lon="3.1144262">
        <ele>25</ele>
        <time>2015-06-19T11:22:54Z</time>
      </trkpt>
      <trkpt lat="39.8077607" lon="3.1144263">
        <ele>25.2</ele>
        <time>2015-06-19T11:22:55Z</time>
      </trkpt>
      <trkpt lat="39.8078053" lon="3.1144354">
        <ele>25.2</ele>
        <time>2015-06-19T11:22:56Z</time>
      </trkpt>
      <trkpt lat="39.8079892" lon="3.1145501">
        <ele>25.2</ele>
        <time>2015-06-19T11:23:01Z</time>
      </trkpt>
      <trkpt lat="39.8080672" lon="3.1146011">
        <ele>25</ele>
        <time>2015-06-19T11:23:03Z</time>
      </trkpt>
      <trkpt lat="39.8081628" lon="3.1145953">
        <ele>25.2</ele>
        <time>2015-06-19T11:23:05Z</time>
      </trkpt>
      <trkpt lat="39.8082665" lon="3.1145713">
        <ele>25.2</ele>
        <time>2015-06-19T11:23:07Z</time>
      </trkpt>
      <trkpt lat="39.80841" lon="3.1145358">
        <ele>25</ele>
        <time>2015-06-19T11:23:10Z</time>
      </trkpt>
      <trkpt lat="39.8088942" lon="3.1143981">
        <ele>25</ele>
        <time>2015-06-19T11:23:19Z</time>
      </trkpt>
      <trkpt lat="39.8092291" lon="3.1143025">
        <ele>25</ele>
        <time>2015-06-19T11:23:26Z</time>
      </trkpt>
      <trkpt lat="39.8095279" lon="3.1142201">
        <ele>24.8</ele>
        <time>2015-06-19T11:23:32Z</time>
      </trkpt>
      <trkpt lat="39.8095683" lon="3.1142273">
        <ele>24.8</ele>
        <time>2015-06-19T11:23:33Z</time>
      </trkpt>
      <trkpt lat="39.8096079" lon="3.1143229">
        <ele>24.8</ele>
        <time>2015-06-19T11:23:35Z</time>
      </trkpt>
      <trkpt lat="39.8096363" lon="3.1144283">
        <ele>24.8</ele>
        <time>2015-06-19T11:23:37Z</time>
      </trkpt>
      <trkpt lat="39.8096956" lon="3.1145005">
        <ele>24.8</ele>
        <time>2015-06-19T11:23:39Z</time>
      </trkpt>
      <trkpt lat="39.8097383" lon="3.1144907">
        <ele>24.8</ele>
        <time>2015-06-19T11:23:40Z</time>
      </trkpt>
      <trkpt lat="39.8099319" lon="3.1144263">
        <ele>25</ele>
        <time>2015-06-19T11:23:44Z</time>
      </trkpt>
      <trkpt lat="39.810221" lon="3.1143066">
        <ele>25.2</ele>
        <time>2015-06-19T11:23:50Z</time>
      </trkpt>
      <trkpt lat="39.8102754" lon="3.1142796">
        <ele>25.2</ele>
        <time>2015-06-19T11:23:51Z</time>
      </trkpt>
      <trkpt lat="39.8105439" lon="3.1141706">
        <ele>25</ele>
        <time>2015-06-19T11:23:56Z</time>
      </trkpt>
      <trkpt lat="39.8105932" lon="3.1141422">
        <ele>25</ele>
        <time>2015-06-19T11:23:57Z</time>
      </trkpt>
      <trkpt lat="39.8108233" lon="3.1140745">
        <ele>25</ele>
        <time>2015-06-19T11:24:01Z</time>
      </trkpt>
      <trkpt lat="39.8112475" lon="3.1139371">
        <ele>25</ele>
        <time>2015-06-19T11:24:08Z</time>
      </trkpt>
      <trkpt lat="39.8117785" lon="3.1137738">
        <ele>24.4</ele>
        <time>2015-06-19T11:24:17Z</time>
      </trkpt>
      <trkpt lat="39.8122496" lon="3.1136299">
        <ele>24.2</ele>
        <time>2015-06-19T11:24:25Z</time>
      </trkpt>
      <trkpt lat="39.8125784" lon="3.1135335">
        <ele>24.6</ele>
        <time>2015-06-19T11:24:31Z</time>
      </trkpt>
      <trkpt lat="39.8128268" lon="3.1134727">
        <ele>24.4</ele>
        <time>2015-06-19T11:24:37Z</time>
      </trkpt>
      <trkpt lat="39.8129299" lon="3.1134394">
        <ele>24.2</ele>
        <time>2015-06-19T11:24:42Z</time>
      </trkpt>
      <trkpt lat="39.8129502" lon="3.1134337">
        <ele>24</ele>
        <time>2015-06-19T11:24:45Z</time>
      </trkpt>
      <trkpt lat="39.8129636" lon="3.1134234">
        <ele>24</ele>
        <time>2015-06-19T11:24:46Z</time>
      </trkpt>
      <trkpt lat="39.8129745" lon="3.1132816">
        <ele>23.8</ele>
        <time>2015-06-19T11:24:50Z</time>
      </trkpt>
      <trkpt lat="39.8129558" lon="3.1131758">
        <ele>24</ele>
        <time>2015-06-19T11:24:52Z</time>
      </trkpt>
      <trkpt lat="39.8129149" lon="3.1129445">
        <ele>24.2</ele>
        <time>2015-06-19T11:24:56Z</time>
      </trkpt>
      <trkpt lat="39.812828" lon="3.1124782">
        <ele>25</ele>
        <time>2015-06-19T11:25:05Z</time>
      </trkpt>
      <trkpt lat="39.8127774" lon="3.1121657">
        <ele>25.8</ele>
        <time>2015-06-19T11:25:12Z</time>
      </trkpt>
      <trkpt lat="39.812779" lon="3.1121045">
        <ele>25.6</ele>
        <time>2015-06-19T11:25:13Z</time>
      </trkpt>
      <trkpt lat="39.8128406" lon="3.1119269">
        <ele>25.4</ele>
        <time>2015-06-19T11:25:16Z</time>
      </trkpt>
      <trkpt lat="39.8128652" lon="3.111865">
        <ele>25.2</ele>
        <time>2015-06-19T11:25:17Z</time>
      </trkpt>
      <trkpt lat="39.8128933" lon="3.1118128">
        <ele>25</ele>
        <time>2015-06-19T11:25:18Z</time>
      </trkpt>
      <trkpt lat="39.8129852" lon="3.1116454">
        <ele>24.4</ele>
        <time>2015-06-19T11:25:21Z</time>
      </trkpt>
      <trkpt lat="39.8130424" lon="3.1115371">
        <ele>24.2</ele>
        <time>2015-06-19T11:25:23Z</time>
      </trkpt>
      <trkpt lat="39.8132093" lon="3.1111921">
        <ele>24.4</ele>
        <time>2015-06-19T11:25:30Z</time>
      </trkpt>
      <trkpt lat="39.8132562" lon="3.1111019">
        <ele>24.4</ele>
        <time>2015-06-19T11:25:32Z</time>
      </trkpt>
      <trkpt lat="39.8133393" lon="3.1109107">
        <ele>24.6</ele>
        <time>2015-06-19T11:25:36Z</time>
      </trkpt>
      <trkpt lat="39.8134403" lon="3.1106939">
        <ele>25.2</ele>
        <time>2015-06-19T11:25:42Z</time>
      </trkpt>
      <trkpt lat="39.8134926" lon="3.1105544">
        <ele>25.8</ele>
        <time>2015-06-19T11:25:45Z</time>
      </trkpt>
      <trkpt lat="39.8134997" lon="3.1104879">
        <ele>25.8</ele>
        <time>2015-06-19T11:25:46Z</time>
      </trkpt>
      <trkpt lat="39.8134956" lon="3.1104071">
        <ele>25.8</ele>
        <time>2015-06-19T11:25:47Z</time>
      </trkpt>
      <trkpt lat="39.8134648" lon="3.1101707">
        <ele>25.4</ele>
        <time>2015-06-19T11:25:50Z</time>
      </trkpt>
      <trkpt lat="39.8134455" lon="3.1100074">
        <ele>25</ele>
        <time>2015-06-19T11:25:52Z</time>
      </trkpt>
      <trkpt lat="39.8134284" lon="3.1098468">
        <ele>24.6</ele>
        <time>2015-06-19T11:25:54Z</time>
      </trkpt>
      <trkpt lat="39.8133735" lon="3.1094748">
        <ele>24.2</ele>
        <time>2015-06-19T11:25:59Z</time>
      </trkpt>
      <trkpt lat="39.8133185" lon="3.1090771">
        <ele>24.4</ele>
        <time>2015-06-19T11:26:05Z</time>
      </trkpt>
      <trkpt lat="39.8132974" lon="3.1089066">
        <ele>24.4</ele>
        <time>2015-06-19T11:26:09Z</time>
      </trkpt>
      <trkpt lat="39.8132608" lon="3.1086287">
        <ele>24.4</ele>
        <time>2015-06-19T11:26:15Z</time>
      </trkpt>
      <trkpt lat="39.8131982" lon="3.1082742">
        <ele>24.2</ele>
        <time>2015-06-19T11:26:22Z</time>
      </trkpt>
      <trkpt lat="39.8131485" lon="3.1081705">
        <ele>24.2</ele>
        <time>2015-06-19T11:26:24Z</time>
      </trkpt>
      <trkpt lat="39.8130384" lon="3.1079695">
        <ele>24.4</ele>
        <time>2015-06-19T11:26:28Z</time>
      </trkpt>
      <trkpt lat="39.8127675" lon="3.1074204">
        <ele>24.4</ele>
        <time>2015-06-19T11:26:38Z</time>
      </trkpt>
      <trkpt lat="39.8126067" lon="3.1070485">
        <ele>24.4</ele>
        <time>2015-06-19T11:26:45Z</time>
      </trkpt>
      <trkpt lat="39.8125169" lon="3.1068851">
        <ele>24.4</ele>
        <time>2015-06-19T11:26:50Z</time>
      </trkpt>
      <trkpt lat="39.8124239" lon="3.1067133">
        <ele>24.2</ele>
        <time>2015-06-19T11:26:54Z</time>
      </trkpt>
      <trkpt lat="39.8122486" lon="3.1063663">
        <ele>24.4</ele>
        <time>2015-06-19T11:27:01Z</time>
      </trkpt>
      <trkpt lat="39.8120198" lon="3.1058811">
        <ele>24.6</ele>
        <time>2015-06-19T11:27:10Z</time>
      </trkpt>
      <trkpt lat="39.8118469" lon="3.1057535">
        <ele>23.6</ele>
        <time>2015-06-19T11:27:14Z</time>
      </trkpt>
      <trkpt lat="39.8118089" lon="3.1057266">
        <ele>23.2</ele>
        <time>2015-06-19T11:27:15Z</time>
      </trkpt>
      <trkpt lat="39.8116275" lon="3.1056337">
        <ele>23</ele>
        <time>2015-06-19T11:27:19Z</time>
      </trkpt>
      <trkpt lat="39.8115282" lon="3.1056416">
        <ele>23</ele>
        <time>2015-06-19T11:27:21Z</time>
      </trkpt>
      <trkpt lat="39.8114312" lon="3.105667">
        <ele>23</ele>
        <time>2015-06-19T11:27:23Z</time>
      </trkpt>
      <trkpt lat="39.8112781" lon="3.1057093">
        <ele>23</ele>
        <time>2015-06-19T11:27:26Z</time>
      </trkpt>
      <trkpt lat="39.8109225" lon="3.1058115">
        <ele>23</ele>
        <time>2015-06-19T11:27:33Z</time>
      </trkpt>
      <trkpt lat="39.8106911" lon="3.1058717">
        <ele>22.4</ele>
        <time>2015-06-19T11:27:38Z</time>
      </trkpt>
      <trkpt lat="39.8105498" lon="3.10591">
        <ele>22.2</ele>
        <time>2015-06-19T11:27:41Z</time>
      </trkpt>
      <trkpt lat="39.8102136" lon="3.1059936">
        <ele>22.2</ele>
        <time>2015-06-19T11:27:48Z</time>
      </trkpt>
      <trkpt lat="39.8100842" lon="3.1060464">
        <ele>22</ele>
        <time>2015-06-19T11:27:51Z</time>
      </trkpt>
      <trkpt lat="39.8100206" lon="3.1061158">
        <ele>22</ele>
        <time>2015-06-19T11:27:53Z</time>
      </trkpt>
      <trkpt lat="39.809879" lon="3.1063279">
        <ele>21.4</ele>
        <time>2015-06-19T11:27:58Z</time>
      </trkpt>
      <trkpt lat="39.8098719" lon="3.1063891">
        <ele>21.2</ele>
        <time>2015-06-19T11:27:59Z</time>
      </trkpt>
      <trkpt lat="39.8099126" lon="3.1066172">
        <ele>21.6</ele>
        <time>2015-06-19T11:28:03Z</time>
      </trkpt>
      <trkpt lat="39.8099443" lon="3.1067248">
        <ele>22</ele>
        <time>2015-06-19T11:28:05Z</time>
      </trkpt>
      <trkpt lat="39.8100227" lon="3.1070592">
        <ele>22.2</ele>
        <time>2015-06-19T11:28:11Z</time>
      </trkpt>
      <trkpt lat="39.8100336" lon="3.1071099">
        <ele>22.8</ele>
        <time>2015-06-19T11:28:12Z</time>
      </trkpt>
      <trkpt lat="39.8100556" lon="3.1072203">
        <ele>24.4</ele>
        <time>2015-06-19T11:28:14Z</time>
      </trkpt>
      <trkpt lat="39.8101139" lon="3.1075143">
        <ele>25.4</ele>
        <time>2015-06-19T11:28:19Z</time>
      </trkpt>
      <trkpt lat="39.810229" lon="3.1080504">
        <ele>25.4</ele>
        <time>2015-06-19T11:28:28Z</time>
      </trkpt>
      <trkpt lat="39.8103393" lon="3.1085549">
        <ele>25.2</ele>
        <time>2015-06-19T11:28:36Z</time>
      </trkpt>
      <trkpt lat="39.8103633" lon="3.1086145">
        <ele>25.2</ele>
        <time>2015-06-19T11:28:37Z</time>
      </trkpt>
      <trkpt lat="39.8104576" lon="3.1087548">
        <ele>25.2</ele>
        <time>2015-06-19T11:28:40Z</time>
      </trkpt>
      <trkpt lat="39.8104995" lon="3.1088087">
        <ele>25.2</ele>
        <time>2015-06-19T11:28:41Z</time>
      </trkpt>
      <trkpt lat="39.8107645" lon="3.1091107">
        <ele>25.4</ele>
        <time>2015-06-19T11:28:48Z</time>
      </trkpt>
      <trkpt lat="39.8110852" lon="3.1095096">
        <ele>25.2</ele>
        <time>2015-06-19T11:28:57Z</time>
      </trkpt>
      <trkpt lat="39.811244" lon="3.109737">
        <ele>24.8</ele>
        <time>2015-06-19T11:29:02Z</time>
      </trkpt>
      <trkpt lat="39.8112609" lon="3.1097935">
        <ele>25</ele>
        <time>2015-06-19T11:29:03Z</time>
      </trkpt>
      <trkpt lat="39.811339" lon="3.1101338">
        <ele>24.6</ele>
        <time>2015-06-19T11:29:09Z</time>
      </trkpt>
      <trkpt lat="39.8113765" lon="3.1102911">
        <ele>24.8</ele>
        <time>2015-06-19T11:29:12Z</time>
      </trkpt>
      <trkpt lat="39.8114164" lon="3.1104278">
        <ele>24.8</ele>
        <time>2015-06-19T11:29:15Z</time>
      </trkpt>
      <trkpt lat="39.8114185" lon="3.110528">
        <ele>24.8</ele>
        <time>2015-06-19T11:29:17Z</time>
      </trkpt>
      <trkpt lat="39.811438" lon="3.1106259">
        <ele>24.8</ele>
        <time>2015-06-19T11:29:19Z</time>
      </trkpt>
      <trkpt lat="39.8115355" lon="3.1110299">
        <ele>25</ele>
        <time>2015-06-19T11:29:26Z</time>
      </trkpt>
      <trkpt lat="39.8116407" lon="3.1115164">
        <ele>24.8</ele>
        <time>2015-06-19T11:29:34Z</time>
      </trkpt>
      <trkpt lat="39.811681" lon="3.1116945">
        <ele>24.8</ele>
        <time>2015-06-19T11:29:37Z</time>
      </trkpt>
      <trkpt lat="39.8117656" lon="3.1118181">
        <ele>24.6</ele>
        <time>2015-06-19T11:29:40Z</time>
      </trkpt>
      <trkpt lat="39.8119492" lon="3.1118808">
        <ele>24.4</ele>
        <time>2015-06-19T11:29:44Z</time>
      </trkpt>
      <trkpt lat="39.8120888" lon="3.1119137">
        <ele>24.6</ele>
        <time>2015-06-19T11:29:47Z</time>
      </trkpt>
      <trkpt lat="39.8123244" lon="3.1119511">
        <ele>24.6</ele>
        <time>2015-06-19T11:29:52Z</time>
      </trkpt>
      <trkpt lat="39.8126539" lon="3.1120041">
        <ele>24.4</ele>
        <time>2015-06-19T11:29:59Z</time>
      </trkpt>
      <trkpt lat="39.8127589" lon="3.1121295">
        <ele>24.6</ele>
        <time>2015-06-19T11:30:03Z</time>
      </trkpt>
      <trkpt lat="39.8127917" lon="3.1123244">
        <ele>25.6</ele>
        <time>2015-06-19T11:30:07Z</time>
      </trkpt>
      <trkpt lat="39.8128027" lon="3.1123733">
        <ele>25.8</ele>
        <time>2015-06-19T11:30:08Z</time>
      </trkpt>
      <trkpt lat="39.8128834" lon="3.1127295">
        <ele>26.4</ele>
        <time>2015-06-19T11:30:14Z</time>
      </trkpt>
      <trkpt lat="39.8129271" lon="3.1130246">
        <ele>25.6</ele>
        <time>2015-06-19T11:30:18Z</time>
      </trkpt>
      <trkpt lat="39.8129519" lon="3.1131724">
        <ele>25.2</ele>
        <time>2015-06-19T11:30:20Z</time>
      </trkpt>
      <trkpt lat="39.8129971" lon="3.1134138">
        <ele>24.6</ele>
        <time>2015-06-19T11:30:24Z</time>
      </trkpt>
      <trkpt lat="39.8130065" lon="3.1134685">
        <ele>24.4</ele>
        <time>2015-06-19T11:30:25Z</time>
      </trkpt>
      <trkpt lat="39.8130874" lon="3.1138729">
        <ele>24.8</ele>
        <time>2015-06-19T11:30:32Z</time>
      </trkpt>
      <trkpt lat="39.8131796" lon="3.1143271">
        <ele>25.2</ele>
        <time>2015-06-19T11:30:41Z</time>
      </trkpt>
      <trkpt lat="39.8132491" lon="3.114624">
        <ele>25.4</ele>
        <time>2015-06-19T11:30:49Z</time>
      </trkpt>
      <trkpt lat="39.8132454" lon="3.1146336">
        <ele>25.4</ele>
        <time>2015-06-19T11:30:50Z</time>
      </trkpt>
      <trkpt lat="39.8132433" lon="3.114662">
        <ele>25.4</ele>
        <time>2015-06-19T11:30:52Z</time>
      </trkpt>
      <trkpt lat="39.8132448" lon="3.1146772">
        <ele>25.4</ele>
        <time>2015-06-19T11:30:55Z</time>
      </trkpt>
      <trkpt lat="39.8132471" lon="3.1147187">
        <ele>25.2</ele>
        <time>2015-06-19T11:31:07Z</time>
      </trkpt>
      <trkpt lat="39.8132396" lon="3.1147242">
        <ele>25.2</ele>
        <time>2015-06-19T11:31:21Z</time>
      </trkpt>
      <trkpt lat="39.8132279" lon="3.1147202">
        <ele>25.2</ele>
        <time>2015-06-19T11:31:23Z</time>
      </trkpt>
      <trkpt lat="39.8132168" lon="3.1147141">
        <ele>25.4</ele>
        <time>2015-06-19T11:31:28Z</time>
      </trkpt>
      <trkpt lat="39.8132221" lon="3.1147068">
        <ele>25.6</ele>
        <time>2015-06-19T11:31:35Z</time>
      </trkpt>
      <trkpt lat="39.8132215" lon="3.1146972">
        <ele>25.6</ele>
        <time>2015-06-19T11:31:41Z</time>
      </trkpt>
      <trkpt lat="39.813213" lon="3.1147205">
        <ele>25.6</ele>
        <time>2015-06-19T11:31:52Z</time>
      </trkpt>
      <trkpt lat="39.8131875" lon="3.1147492">
        <ele>25.6</ele>
        <time>2015-06-19T11:32:07Z</time>
      </trkpt>
      <trkpt lat="39.8131664" lon="3.1148016">
        <ele>25.6</ele>
        <time>2015-06-19T11:32:19Z</time>
      </trkpt>
      <trkpt lat="39.8131549" lon="3.1148311">
        <ele>25.6</ele>
        <time>2015-06-19T11:32:29Z</time>
      </trkpt>
      <trkpt lat="39.8131502" lon="3.11484">
        <ele>25.6</ele>
        <time>2015-06-19T11:32:38Z</time>
      </trkpt>
      <trkpt lat="39.8131397" lon="3.114856">
        <ele>25.6</ele>
        <time>2015-06-19T11:32:48Z</time>
      </trkpt>
      <trkpt lat="39.813145" lon="3.1148497">
        <ele>25.6</ele>
        <time>2015-06-19T11:32:57Z</time>
      </trkpt>
      <trkpt lat="39.8131554" lon="3.1148434">
        <ele>25.6</ele>
        <time>2015-06-19T11:33:04Z</time>
      </trkpt>
      <trkpt lat="39.8131786" lon="3.1148177">
        <ele>25.4</ele>
        <time>2015-06-19T11:33:10Z</time>
      </trkpt>
      <trkpt lat="39.8131792" lon="3.1148231">
        <ele>25.4</ele>
        <time>2015-06-19T11:33:11Z</time>
      </trkpt>
      <trkpt lat="39.8131827" lon="3.1148548">
        <ele>25.4</ele>
        <time>2015-06-19T11:33:15Z</time>
      </trkpt>
      <trkpt lat="39.8131686" lon="3.1148788">
        <ele>25.4</ele>
        <time>2015-06-19T11:33:17Z</time>
      </trkpt>
      <trkpt lat="39.8131326" lon="3.1149932">
        <ele>25.6</ele>
        <time>2015-06-19T11:33:22Z</time>
      </trkpt>
      <trkpt lat="39.8132065" lon="3.1151054">
        <ele>25.8</ele>
        <time>2015-06-19T11:33:25Z</time>
      </trkpt>
      <trkpt lat="39.8133439" lon="3.1150511">
        <ele>26.2</ele>
        <time>2015-06-19T11:33:28Z</time>
      </trkpt>
      <trkpt lat="39.8136538" lon="3.1149492">
        <ele>26</ele>
        <time>2015-06-19T11:33:34Z</time>
      </trkpt>
      <trkpt lat="39.8137552" lon="3.114901">
        <ele>26</ele>
        <time>2015-06-19T11:33:36Z</time>
      </trkpt>
      <trkpt lat="39.8139117" lon="3.1148505">
        <ele>25.8</ele>
        <time>2015-06-19T11:33:39Z</time>
      </trkpt>
      <trkpt lat="39.8142277" lon="3.1147502">
        <ele>25.6</ele>
        <time>2015-06-19T11:33:46Z</time>
      </trkpt>
      <trkpt lat="39.8144686" lon="3.1146671">
        <ele>25.6</ele>
        <time>2015-06-19T11:33:52Z</time>
      </trkpt>
      <trkpt lat="39.8147166" lon="3.1145886">
        <ele>25.6</ele>
        <time>2015-06-19T11:33:58Z</time>
      </trkpt>
      <trkpt lat="39.8149192" lon="3.1145262">
        <ele>25.4</ele>
        <time>2015-06-19T11:34:04Z</time>
      </trkpt>
      <trkpt lat="39.8151528" lon="3.1144385">
        <ele>25.4</ele>
        <time>2015-06-19T11:34:11Z</time>
      </trkpt>
      <trkpt lat="39.8152147" lon="3.1143669">
        <ele>25.4</ele>
        <time>2015-06-19T11:34:13Z</time>
      </trkpt>
      <trkpt lat="39.8152173" lon="3.1142979">
        <ele>25.4</ele>
        <time>2015-06-19T11:34:14Z</time>
      </trkpt>
      <trkpt lat="39.815133" lon="3.1141074">
        <ele>25.4</ele>
        <time>2015-06-19T11:34:17Z</time>
      </trkpt>
      <trkpt lat="39.8150912" lon="3.1138711">
        <ele>25.6</ele>
        <time>2015-06-19T11:34:20Z</time>
      </trkpt>
      <trkpt lat="39.8150259" lon="3.1133514">
        <ele>25.2</ele>
        <time>2015-06-19T11:34:26Z</time>
      </trkpt>
      <trkpt lat="39.8149548" lon="3.1128074">
        <ele>25.2</ele>
        <time>2015-06-19T11:34:32Z</time>
      </trkpt>
      <trkpt lat="39.8148989" lon="3.1122706">
        <ele>25.2</ele>
        <time>2015-06-19T11:34:38Z</time>
      </trkpt>
      <trkpt lat="39.8148451" lon="3.1119294">
        <ele>24.8</ele>
        <time>2015-06-19T11:34:43Z</time>
      </trkpt>
      <trkpt lat="39.8147861" lon="3.1114618">
        <ele>24.6</ele>
        <time>2015-06-19T11:34:49Z</time>
      </trkpt>
      <trkpt lat="39.8146907" lon="3.1107114">
        <ele>24.8</ele>
        <time>2015-06-19T11:34:58Z</time>
      </trkpt>
      <trkpt lat="39.8146265" lon="3.1101277">
        <ele>24.8</ele>
        <time>2015-06-19T11:35:05Z</time>
      </trkpt>
      <trkpt lat="39.8145387" lon="3.1094539">
        <ele>25</ele>
        <time>2015-06-19T11:35:13Z</time>
      </trkpt>
      <trkpt lat="39.814466" lon="3.1088879">
        <ele>25.2</ele>
        <time>2015-06-19T11:35:20Z</time>
      </trkpt>
      <trkpt lat="39.8144374" lon="3.1086455">
        <ele>25.2</ele>
        <time>2015-06-19T11:35:23Z</time>
      </trkpt>
      <trkpt lat="39.8144005" lon="3.1083993">
        <ele>25.2</ele>
        <time>2015-06-19T11:35:26Z</time>
      </trkpt>
      <trkpt lat="39.8143642" lon="3.1078317">
        <ele>25.8</ele>
        <time>2015-06-19T11:35:33Z</time>
      </trkpt>
      <trkpt lat="39.8144349" lon="3.1074031">
        <ele>26.4</ele>
        <time>2015-06-19T11:35:38Z</time>
      </trkpt>
      <trkpt lat="39.814455" lon="3.1073127">
        <ele>26.6</ele>
        <time>2015-06-19T11:35:39Z</time>
      </trkpt>
      <trkpt lat="39.8144908" lon="3.1068685">
        <ele>26.8</ele>
        <time>2015-06-19T11:35:44Z</time>
      </trkpt>
      <trkpt lat="39.8143975" lon="3.1063191">
        <ele>26.4</ele>
        <time>2015-06-19T11:35:50Z</time>
      </trkpt>
      <trkpt lat="39.814204" lon="3.1059249">
        <ele>26</ele>
        <time>2015-06-19T11:35:55Z</time>
      </trkpt>
      <trkpt lat="39.813882" lon="3.1055463">
        <ele>26.4</ele>
        <time>2015-06-19T11:36:01Z</time>
      </trkpt>
      <trkpt lat="39.8134761" lon="3.1050732">
        <ele>26.8</ele>
        <time>2015-06-19T11:36:09Z</time>
      </trkpt>
      <trkpt lat="39.8133678" lon="3.104889">
        <ele>26.8</ele>
        <time>2015-06-19T11:36:12Z</time>
      </trkpt>
      <trkpt lat="39.8133526" lon="3.1048135">
        <ele>26.6</ele>
        <time>2015-06-19T11:36:13Z</time>
      </trkpt>
      <trkpt lat="39.8132929" lon="3.1045036">
        <ele>26.4</ele>
        <time>2015-06-19T11:36:17Z</time>
      </trkpt>
      <trkpt lat="39.8131338" lon="3.1043596">
        <ele>26.6</ele>
        <time>2015-06-19T11:36:20Z</time>
      </trkpt>
      <trkpt lat="39.8130719" lon="3.1043231">
        <ele>26.6</ele>
        <time>2015-06-19T11:36:21Z</time>
      </trkpt>
      <trkpt lat="39.8130158" lon="3.1042707">
        <ele>26.6</ele>
        <time>2015-06-19T11:36:22Z</time>
      </trkpt>
      <trkpt lat="39.8129357" lon="3.1041207">
        <ele>26.8</ele>
        <time>2015-06-19T11:36:24Z</time>
      </trkpt>
      <trkpt lat="39.8128739" lon="3.1039563">
        <ele>26.8</ele>
        <time>2015-06-19T11:36:26Z</time>
      </trkpt>
      <trkpt lat="39.812796" lon="3.1037016">
        <ele>27</ele>
        <time>2015-06-19T11:36:29Z</time>
      </trkpt>
      <trkpt lat="39.8125534" lon="3.1029879">
        <ele>26.4</ele>
        <time>2015-06-19T11:36:37Z</time>
      </trkpt>
      <trkpt lat="39.8124928" lon="3.102804">
        <ele>26.6</ele>
        <time>2015-06-19T11:36:39Z</time>
      </trkpt>
      <trkpt lat="39.8122783" lon="3.1021416">
        <ele>26.6</ele>
        <time>2015-06-19T11:36:46Z</time>
      </trkpt>
      <trkpt lat="39.8121347" lon="3.1017908">
        <ele>26.6</ele>
        <time>2015-06-19T11:36:50Z</time>
      </trkpt>
      <trkpt lat="39.8118101" lon="3.10118">
        <ele>26</ele>
        <time>2015-06-19T11:36:57Z</time>
      </trkpt>
      <trkpt lat="39.8117634" lon="3.1010935">
        <ele>26</ele>
        <time>2015-06-19T11:36:58Z</time>
      </trkpt>
      <trkpt lat="39.8114274" lon="3.1005074">
        <ele>25.8</ele>
        <time>2015-06-19T11:37:05Z</time>
      </trkpt>
      <trkpt lat="39.8113746" lon="3.1004088">
        <ele>25.8</ele>
        <time>2015-06-19T11:37:06Z</time>
      </trkpt>
      <trkpt lat="39.8110544" lon="3.0997969">
        <ele>25.8</ele>
        <time>2015-06-19T11:37:13Z</time>
      </trkpt>
      <trkpt lat="39.8109659" lon="3.0996265">
        <ele>25.8</ele>
        <time>2015-06-19T11:37:15Z</time>
      </trkpt>
      <trkpt lat="39.810739" lon="3.0990402">
        <ele>26</ele>
        <time>2015-06-19T11:37:21Z</time>
      </trkpt>
      <trkpt lat="39.8105098" lon="3.0983366">
        <ele>26</ele>
        <time>2015-06-19T11:37:28Z</time>
      </trkpt>
      <trkpt lat="39.8103483" lon="3.0978384">
        <ele>26</ele>
        <time>2015-06-19T11:37:33Z</time>
      </trkpt>
      <trkpt lat="39.8101306" lon="3.0971703">
        <ele>26.2</ele>
        <time>2015-06-19T11:37:40Z</time>
      </trkpt>
      <trkpt lat="39.8099748" lon="3.0966832">
        <ele>26</ele>
        <time>2015-06-19T11:37:45Z</time>
      </trkpt>
      <trkpt lat="39.8097601" lon="3.0960138">
        <ele>25.8</ele>
        <time>2015-06-19T11:37:52Z</time>
      </trkpt>
      <trkpt lat="39.8096364" lon="3.0956387">
        <ele>26</ele>
        <time>2015-06-19T11:37:56Z</time>
      </trkpt>
      <trkpt lat="39.8093981" lon="3.0949044">
        <ele>26.2</ele>
        <time>2015-06-19T11:38:04Z</time>
      </trkpt>
      <trkpt lat="39.8092838" lon="3.0945503">
        <ele>26.4</ele>
        <time>2015-06-19T11:38:08Z</time>
      </trkpt>
      <trkpt lat="39.8090481" lon="3.0938185">
        <ele>26.6</ele>
        <time>2015-06-19T11:38:16Z</time>
      </trkpt>
      <trkpt lat="39.8090185" lon="3.0937265">
        <ele>26.2</ele>
        <time>2015-06-19T11:38:17Z</time>
      </trkpt>
      <trkpt lat="39.8087862" lon="3.0930248">
        <ele>26</ele>
        <time>2015-06-19T11:38:24Z</time>
      </trkpt>
      <trkpt lat="39.808759" lon="3.0929354">
        <ele>26</ele>
        <time>2015-06-19T11:38:25Z</time>
      </trkpt>
      <trkpt lat="39.8085295" lon="3.092237">
        <ele>26.4</ele>
        <time>2015-06-19T11:38:32Z</time>
      </trkpt>
      <trkpt lat="39.8084" lon="3.0918418">
        <ele>26.4</ele>
        <time>2015-06-19T11:38:36Z</time>
      </trkpt>
      <trkpt lat="39.808174" lon="3.0911387">
        <ele>26.4</ele>
        <time>2015-06-19T11:38:43Z</time>
      </trkpt>
      <trkpt lat="39.8080483" lon="3.0907404">
        <ele>26.4</ele>
        <time>2015-06-19T11:38:47Z</time>
      </trkpt>
      <trkpt lat="39.8078129" lon="3.0900375">
        <ele>26.2</ele>
        <time>2015-06-19T11:38:54Z</time>
      </trkpt>
      <trkpt lat="39.8077208" lon="3.0898568">
        <ele>26.4</ele>
        <time>2015-06-19T11:38:56Z</time>
      </trkpt>
      <trkpt lat="39.8076675" lon="3.0897703">
        <ele>26.4</ele>
        <time>2015-06-19T11:38:57Z</time>
      </trkpt>
      <trkpt lat="39.8073188" lon="3.0892842">
        <ele>26.6</ele>
        <time>2015-06-19T11:39:03Z</time>
      </trkpt>
      <trkpt lat="39.8069229" lon="3.0887161">
        <ele>26.4</ele>
        <time>2015-06-19T11:39:10Z</time>
      </trkpt>
      <trkpt lat="39.80669" lon="3.0883769">
        <ele>26.6</ele>
        <time>2015-06-19T11:39:14Z</time>
      </trkpt>
      <trkpt lat="39.8062961" lon="3.0878012">
        <ele>26.4</ele>
        <time>2015-06-19T11:39:21Z</time>
      </trkpt>
      <trkpt lat="39.8060735" lon="3.0874791">
        <ele>26.6</ele>
        <time>2015-06-19T11:39:25Z</time>
      </trkpt>
      <trkpt lat="39.8056721" lon="3.0868932">
        <ele>26.4</ele>
        <time>2015-06-19T11:39:32Z</time>
      </trkpt>
      <trkpt lat="39.8053924" lon="3.0864908">
        <ele>26.8</ele>
        <time>2015-06-19T11:39:37Z</time>
      </trkpt>
      <trkpt lat="39.805013" lon="3.0859388">
        <ele>26.8</ele>
        <time>2015-06-19T11:39:44Z</time>
      </trkpt>
      <trkpt lat="39.8048563" lon="3.0857104">
        <ele>26.6</ele>
        <time>2015-06-19T11:39:47Z</time>
      </trkpt>
      <trkpt lat="39.8044845" lon="3.0851671">
        <ele>26.4</ele>
        <time>2015-06-19T11:39:54Z</time>
      </trkpt>
      <trkpt lat="39.8042747" lon="3.084863">
        <ele>26.6</ele>
        <time>2015-06-19T11:39:58Z</time>
      </trkpt>
      <trkpt lat="39.8039599" lon="3.0844466">
        <ele>26.4</ele>
        <time>2015-06-19T11:40:04Z</time>
      </trkpt>
      <trkpt lat="39.8039064" lon="3.0844065">
        <ele>26.4</ele>
        <time>2015-06-19T11:40:05Z</time>
      </trkpt>
      <trkpt lat="39.803624" lon="3.0843183">
        <ele>26.4</ele>
        <time>2015-06-19T11:40:09Z</time>
      </trkpt>
      <trkpt lat="39.8034831" lon="3.0843219">
        <ele>26.6</ele>
        <time>2015-06-19T11:40:11Z</time>
      </trkpt>
      <trkpt lat="39.8031935" lon="3.0843403">
        <ele>26.4</ele>
        <time>2015-06-19T11:40:15Z</time>
      </trkpt>
      <trkpt lat="39.8025989" lon="3.084378">
        <ele>26.4</ele>
        <time>2015-06-19T11:40:23Z</time>
      </trkpt>
      <trkpt lat="39.8023754" lon="3.0843949">
        <ele>26.4</ele>
        <time>2015-06-19T11:40:26Z</time>
      </trkpt>
      <trkpt lat="39.8018016" lon="3.0844374">
        <ele>26.4</ele>
        <time>2015-06-19T11:40:34Z</time>
      </trkpt>
      <trkpt lat="39.8016565" lon="3.0844476">
        <ele>26.4</ele>
        <time>2015-06-19T11:40:36Z</time>
      </trkpt>
      <trkpt lat="39.8014337" lon="3.0844435">
        <ele>26.4</ele>
        <time>2015-06-19T11:40:39Z</time>
      </trkpt>
      <trkpt lat="39.8012953" lon="3.0843794">
        <ele>26.4</ele>
        <time>2015-06-19T11:40:41Z</time>
      </trkpt>
      <trkpt lat="39.8011346" lon="3.0841613">
        <ele>26.4</ele>
        <time>2015-06-19T11:40:44Z</time>
      </trkpt>
      <trkpt lat="39.8010439" lon="3.0839228">
        <ele>26.4</ele>
        <time>2015-06-19T11:40:47Z</time>
      </trkpt>
      <trkpt lat="39.8010053" lon="3.0838101">
        <ele>26.4</ele>
        <time>2015-06-19T11:40:48Z</time>
      </trkpt>
      <trkpt lat="39.8007428" lon="3.0830921">
        <ele>26.6</ele>
        <time>2015-06-19T11:40:56Z</time>
      </trkpt>
      <trkpt lat="39.8006128" lon="3.0827347">
        <ele>26.4</ele>
        <time>2015-06-19T11:41:00Z</time>
      </trkpt>
      <trkpt lat="39.8003822" lon="3.0820978">
        <ele>26.6</ele>
        <time>2015-06-19T11:41:07Z</time>
      </trkpt>
      <trkpt lat="39.8002493" lon="3.0817347">
        <ele>26.6</ele>
        <time>2015-06-19T11:41:11Z</time>
      </trkpt>
      <trkpt lat="39.8000107" lon="3.0810815">
        <ele>26.6</ele>
        <time>2015-06-19T11:41:18Z</time>
      </trkpt>
      <trkpt lat="39.7998391" lon="3.0806148">
        <ele>26.6</ele>
        <time>2015-06-19T11:41:23Z</time>
      </trkpt>
      <trkpt lat="39.7995955" lon="3.0799489">
        <ele>27</ele>
        <time>2015-06-19T11:41:30Z</time>
      </trkpt>
      <trkpt lat="39.799353" lon="3.079298">
        <ele>26.8</ele>
        <time>2015-06-19T11:41:37Z</time>
      </trkpt>
      <trkpt lat="39.7990918" lon="3.0785952">
        <ele>26.8</ele>
        <time>2015-06-19T11:41:45Z</time>
      </trkpt>
      <trkpt lat="39.7989609" lon="3.078241">
        <ele>26.6</ele>
        <time>2015-06-19T11:41:49Z</time>
      </trkpt>
      <trkpt lat="39.7987038" lon="3.0775349">
        <ele>27.2</ele>
        <time>2015-06-19T11:41:57Z</time>
      </trkpt>
      <trkpt lat="39.7984515" lon="3.0768394">
        <ele>26.8</ele>
        <time>2015-06-19T11:42:05Z</time>
      </trkpt>
      <trkpt lat="39.7983861" lon="3.0766628">
        <ele>26.6</ele>
        <time>2015-06-19T11:42:07Z</time>
      </trkpt>
      <trkpt lat="39.7981382" lon="3.0759899">
        <ele>26.8</ele>
        <time>2015-06-19T11:42:15Z</time>
      </trkpt>
      <trkpt lat="39.7980399" lon="3.0757321">
        <ele>27</ele>
        <time>2015-06-19T11:42:18Z</time>
      </trkpt>
      <trkpt lat="39.7977955" lon="3.0750609">
        <ele>26.8</ele>
        <time>2015-06-19T11:42:26Z</time>
      </trkpt>
      <trkpt lat="39.7977078" lon="3.0748153">
        <ele>27</ele>
        <time>2015-06-19T11:42:29Z</time>
      </trkpt>
      <trkpt lat="39.7974535" lon="3.0741184">
        <ele>26.6</ele>
        <time>2015-06-19T11:42:37Z</time>
      </trkpt>
      <trkpt lat="39.797406" lon="3.0739915">
        <ele>26.8</ele>
        <time>2015-06-19T11:42:39Z</time>
      </trkpt>
      <trkpt lat="39.7971643" lon="3.07334">
        <ele>26.6</ele>
        <time>2015-06-19T11:42:46Z</time>
      </trkpt>
      <trkpt lat="39.7970028" lon="3.0728999">
        <ele>26.6</ele>
        <time>2015-06-19T11:42:51Z</time>
      </trkpt>
      <trkpt lat="39.796894" lon="3.072649">
        <ele>26.6</ele>
        <time>2015-06-19T11:42:54Z</time>
      </trkpt>
      <trkpt lat="39.7967826" lon="3.0725219">
        <ele>26.8</ele>
        <time>2015-06-19T11:42:56Z</time>
      </trkpt>
      <trkpt lat="39.7965703" lon="3.0725097">
        <ele>27</ele>
        <time>2015-06-19T11:42:59Z</time>
      </trkpt>
      <trkpt lat="39.7963079" lon="3.0726613">
        <ele>27.2</ele>
        <time>2015-06-19T11:43:03Z</time>
      </trkpt>
      <trkpt lat="39.7960512" lon="3.0728185">
        <ele>27.6</ele>
        <time>2015-06-19T11:43:07Z</time>
      </trkpt>
      <trkpt lat="39.7957943" lon="3.0729758">
        <ele>28</ele>
        <time>2015-06-19T11:43:11Z</time>
      </trkpt>
      <trkpt lat="39.7956477" lon="3.0730392">
        <ele>28.2</ele>
        <time>2015-06-19T11:43:13Z</time>
      </trkpt>
      <trkpt lat="39.7954954" lon="3.0730635">
        <ele>28</ele>
        <time>2015-06-19T11:43:15Z</time>
      </trkpt>
      <trkpt lat="39.7952883" lon="3.0729257">
        <ele>27.8</ele>
        <time>2015-06-19T11:43:18Z</time>
      </trkpt>
      <trkpt lat="39.7952277" lon="3.0726458">
        <ele>27.8</ele>
        <time>2015-06-19T11:43:21Z</time>
      </trkpt>
      <trkpt lat="39.7953103" lon="3.0723782">
        <ele>28</ele>
        <time>2015-06-19T11:43:24Z</time>
      </trkpt>
      <trkpt lat="39.7954001" lon="3.0722342">
        <ele>28</ele>
        <time>2015-06-19T11:43:26Z</time>
      </trkpt>
      <trkpt lat="39.7954976" lon="3.0721013">
        <ele>27.8</ele>
        <time>2015-06-19T11:43:28Z</time>
      </trkpt>
      <trkpt lat="39.7957837" lon="3.0716721">
        <ele>27.6</ele>
        <time>2015-06-19T11:43:34Z</time>
      </trkpt>
      <trkpt lat="39.7960086" lon="3.0712957">
        <ele>27.4</ele>
        <time>2015-06-19T11:43:39Z</time>
      </trkpt>
      <trkpt lat="39.796067" lon="3.0711335">
        <ele>27.6</ele>
        <time>2015-06-19T11:43:41Z</time>
      </trkpt>
      <trkpt lat="39.7961089" lon="3.0709489">
        <ele>27.8</ele>
        <time>2015-06-19T11:43:43Z</time>
      </trkpt>
      <trkpt lat="39.7961689" lon="3.0706234">
        <ele>27.8</ele>
        <time>2015-06-19T11:43:47Z</time>
      </trkpt>
      <trkpt lat="39.7962899" lon="3.0699063">
        <ele>27.6</ele>
        <time>2015-06-19T11:43:55Z</time>
      </trkpt>
      <trkpt lat="39.7963534" lon="3.0695483">
        <ele>27.8</ele>
        <time>2015-06-19T11:43:59Z</time>
      </trkpt>
      <trkpt lat="39.796455" lon="3.0688398">
        <ele>27.6</ele>
        <time>2015-06-19T11:44:07Z</time>
      </trkpt>
      <trkpt lat="39.7964486" lon="3.0687507">
        <ele>27.6</ele>
        <time>2015-06-19T11:44:08Z</time>
      </trkpt>
      <trkpt lat="39.7964368" lon="3.068662">
        <ele>27.6</ele>
        <time>2015-06-19T11:44:09Z</time>
      </trkpt>
      <trkpt lat="39.7963271" lon="3.0682274">
        <ele>27.6</ele>
        <time>2015-06-19T11:44:14Z</time>
      </trkpt>
      <trkpt lat="39.7961248" lon="3.0675312">
        <ele>26.6</ele>
        <time>2015-06-19T11:44:22Z</time>
      </trkpt>
      <trkpt lat="39.7960251" lon="3.0671871">
        <ele>26.6</ele>
        <time>2015-06-19T11:44:26Z</time>
      </trkpt>
      <trkpt lat="39.7958183" lon="3.0664782">
        <ele>26.8</ele>
        <time>2015-06-19T11:44:34Z</time>
      </trkpt>
      <trkpt lat="39.795742" lon="3.0662093">
        <ele>26.8</ele>
        <time>2015-06-19T11:44:37Z</time>
      </trkpt>
      <trkpt lat="39.79569" lon="3.0660302">
        <ele>26.6</ele>
        <time>2015-06-19T11:44:39Z</time>
      </trkpt>
      <trkpt lat="39.7954835" lon="3.0653216">
        <ele>26.8</ele>
        <time>2015-06-19T11:44:47Z</time>
      </trkpt>
      <trkpt lat="39.7953768" lon="3.0649636">
        <ele>26.8</ele>
        <time>2015-06-19T11:44:51Z</time>
      </trkpt>
      <trkpt lat="39.7951659" lon="3.0642418">
        <ele>27</ele>
        <time>2015-06-19T11:44:59Z</time>
      </trkpt>
      <trkpt lat="39.7951095" lon="3.0640525">
        <ele>27.2</ele>
        <time>2015-06-19T11:45:01Z</time>
      </trkpt>
      <trkpt lat="39.7948926" lon="3.0633028">
        <ele>27.2</ele>
        <time>2015-06-19T11:45:09Z</time>
      </trkpt>
      <trkpt lat="39.7948397" lon="3.0631184">
        <ele>27.2</ele>
        <time>2015-06-19T11:45:11Z</time>
      </trkpt>
      <trkpt lat="39.7947373" lon="3.062747">
        <ele>27.6</ele>
        <time>2015-06-19T11:45:15Z</time>
      </trkpt>
      <trkpt lat="39.7945793" lon="3.0621953">
        <ele>27.4</ele>
        <time>2015-06-19T11:45:21Z</time>
      </trkpt>
      <trkpt lat="39.7943765" lon="3.0614574">
        <ele>27.4</ele>
        <time>2015-06-19T11:45:29Z</time>
      </trkpt>
      <trkpt lat="39.7942977" lon="3.061178">
        <ele>27.4</ele>
        <time>2015-06-19T11:45:32Z</time>
      </trkpt>
      <trkpt lat="39.7940963" lon="3.0604568">
        <ele>27.8</ele>
        <time>2015-06-19T11:45:40Z</time>
      </trkpt>
      <trkpt lat="39.7939879" lon="3.0600783">
        <ele>27.6</ele>
        <time>2015-06-19T11:45:44Z</time>
      </trkpt>
      <trkpt lat="39.7938065" lon="3.0594284">
        <ele>27.8</ele>
        <time>2015-06-19T11:45:51Z</time>
      </trkpt>
      <trkpt lat="39.793597" lon="3.0586937">
        <ele>27.4</ele>
        <time>2015-06-19T11:45:59Z</time>
      </trkpt>
      <trkpt lat="39.7934674" lon="3.0582326">
        <ele>27.2</ele>
        <time>2015-06-19T11:46:04Z</time>
      </trkpt>
      <trkpt lat="39.7932511" lon="3.0577344">
        <ele>27.8</ele>
        <time>2015-06-19T11:46:10Z</time>
      </trkpt>
      <trkpt lat="39.7929401" lon="3.0571957">
        <ele>28</ele>
        <time>2015-06-19T11:46:17Z</time>
      </trkpt>
      <trkpt lat="39.7925997" lon="3.0566031">
        <ele>27.8</ele>
        <time>2015-06-19T11:46:25Z</time>
      </trkpt>
      <trkpt lat="39.7925498" lon="3.0565183">
        <ele>27.8</ele>
        <time>2015-06-19T11:46:26Z</time>
      </trkpt>
      <trkpt lat="39.7921988" lon="3.0559039">
        <ele>27.8</ele>
        <time>2015-06-19T11:46:34Z</time>
      </trkpt>
      <trkpt lat="39.7920258" lon="3.0555971">
        <ele>27.8</ele>
        <time>2015-06-19T11:46:38Z</time>
      </trkpt>
      <trkpt lat="39.7916758" lon="3.0549687">
        <ele>28</ele>
        <time>2015-06-19T11:46:46Z</time>
      </trkpt>
      <trkpt lat="39.7915399" lon="3.054733">
        <ele>28</ele>
        <time>2015-06-19T11:46:49Z</time>
      </trkpt>
      <trkpt lat="39.7911616" lon="3.0541369">
        <ele>28.2</ele>
        <time>2015-06-19T11:46:57Z</time>
      </trkpt>
      <trkpt lat="39.7911132" lon="3.0540624">
        <ele>28.2</ele>
        <time>2015-06-19T11:46:58Z</time>
      </trkpt>
      <trkpt lat="39.7907247" lon="3.0534729">
        <ele>28.2</ele>
        <time>2015-06-19T11:47:06Z</time>
      </trkpt>
      <trkpt lat="39.790543" lon="3.0531753">
        <ele>28.4</ele>
        <time>2015-06-19T11:47:10Z</time>
      </trkpt>
      <trkpt lat="39.79036" lon="3.0528746">
        <ele>28.6</ele>
        <time>2015-06-19T11:47:14Z</time>
      </trkpt>
      <trkpt lat="39.7901345" lon="3.0525129">
        <ele>28.8</ele>
        <time>2015-06-19T11:47:19Z</time>
      </trkpt>
      <trkpt lat="39.7897803" lon="3.0519281">
        <ele>28.8</ele>
        <time>2015-06-19T11:47:27Z</time>
      </trkpt>
      <trkpt lat="39.7896969" lon="3.0517851">
        <ele>28.6</ele>
        <time>2015-06-19T11:47:29Z</time>
      </trkpt>
      <trkpt lat="39.7893416" lon="3.0512028">
        <ele>28.8</ele>
        <time>2015-06-19T11:47:37Z</time>
      </trkpt>
      <trkpt lat="39.789215" lon="3.0509934">
        <ele>28.8</ele>
        <time>2015-06-19T11:47:40Z</time>
      </trkpt>
      <trkpt lat="39.788864" lon="3.0504185">
        <ele>29.2</ele>
        <time>2015-06-19T11:47:48Z</time>
      </trkpt>
      <trkpt lat="39.7888177" lon="3.0503567">
        <ele>29</ele>
        <time>2015-06-19T11:47:49Z</time>
      </trkpt>
      <trkpt lat="39.7887247" lon="3.0502434">
        <ele>28.8</ele>
        <time>2015-06-19T11:47:51Z</time>
      </trkpt>
      <trkpt lat="39.7886013" lon="3.0501763">
        <ele>29</ele>
        <time>2015-06-19T11:47:53Z</time>
      </trkpt>
      <trkpt lat="39.7883848" lon="3.0501767">
        <ele>29.2</ele>
        <time>2015-06-19T11:47:56Z</time>
      </trkpt>
      <trkpt lat="39.7882029" lon="3.0503003">
        <ele>29.4</ele>
        <time>2015-06-19T11:47:59Z</time>
      </trkpt>
      <trkpt lat="39.7880928" lon="3.0504203">
        <ele>29.6</ele>
        <time>2015-06-19T11:48:01Z</time>
      </trkpt>
      <trkpt lat="39.7879128" lon="3.0506206">
        <ele>29.8</ele>
        <time>2015-06-19T11:48:05Z</time>
      </trkpt>
      <trkpt lat="39.7874677" lon="3.0510151">
        <ele>28.8</ele>
        <time>2015-06-19T11:48:12Z</time>
      </trkpt>
      <trkpt lat="39.7872134" lon="3.051168">
        <ele>29.4</ele>
        <time>2015-06-19T11:48:16Z</time>
      </trkpt>
      <trkpt lat="39.7870752" lon="3.0511785">
        <ele>29.4</ele>
        <time>2015-06-19T11:48:18Z</time>
      </trkpt>
      <trkpt lat="39.7868832" lon="3.0510869">
        <ele>29.4</ele>
        <time>2015-06-19T11:48:21Z</time>
      </trkpt>
      <trkpt lat="39.7867054" lon="3.0508371">
        <ele>29</ele>
        <time>2015-06-19T11:48:25Z</time>
      </trkpt>
      <trkpt lat="39.786665" lon="3.0507664">
        <ele>28.8</ele>
        <time>2015-06-19T11:48:26Z</time>
      </trkpt>
      <trkpt lat="39.7865914" lon="3.0506384">
        <ele>28.4</ele>
        <time>2015-06-19T11:48:28Z</time>
      </trkpt>
      <trkpt lat="39.7863535" lon="3.0502445">
        <ele>28.6</ele>
        <time>2015-06-19T11:48:34Z</time>
      </trkpt>
      <trkpt lat="39.7860164" lon="3.0496771">
        <ele>29</ele>
        <time>2015-06-19T11:48:42Z</time>
      </trkpt>
      <trkpt lat="39.7859758" lon="3.049605">
        <ele>28.8</ele>
        <time>2015-06-19T11:48:43Z</time>
      </trkpt>
      <trkpt lat="39.7856293" lon="3.0490288">
        <ele>29.2</ele>
        <time>2015-06-19T11:48:51Z</time>
      </trkpt>
      <trkpt lat="39.7855416" lon="3.0488938">
        <ele>29.4</ele>
        <time>2015-06-19T11:48:53Z</time>
      </trkpt>
      <trkpt lat="39.7854922" lon="3.0488181">
        <ele>29.6</ele>
        <time>2015-06-19T11:48:54Z</time>
      </trkpt>
      <trkpt lat="39.7851124" lon="3.0482513">
        <ele>29.2</ele>
        <time>2015-06-19T11:49:02Z</time>
      </trkpt>
      <trkpt lat="39.7850125" lon="3.0481072">
        <ele>29.4</ele>
        <time>2015-06-19T11:49:04Z</time>
      </trkpt>
      <trkpt lat="39.7846224" lon="3.0475377">
        <ele>29.8</ele>
        <time>2015-06-19T11:49:12Z</time>
      </trkpt>
      <trkpt lat="39.7845281" lon="3.0473945">
        <ele>29.8</ele>
        <time>2015-06-19T11:49:14Z</time>
      </trkpt>
      <trkpt lat="39.7841578" lon="3.0468292">
        <ele>29.4</ele>
        <time>2015-06-19T11:49:22Z</time>
      </trkpt>
      <trkpt lat="39.7841131" lon="3.0467644">
        <ele>29.6</ele>
        <time>2015-06-19T11:49:23Z</time>
      </trkpt>
      <trkpt lat="39.7837397" lon="3.0462233">
        <ele>30</ele>
        <time>2015-06-19T11:49:31Z</time>
      </trkpt>
      <trkpt lat="39.7835984" lon="3.0460276">
        <ele>30.2</ele>
        <time>2015-06-19T11:49:34Z</time>
      </trkpt>
      <trkpt lat="39.7833187" lon="3.0456275">
        <ele>30.2</ele>
        <time>2015-06-19T11:49:40Z</time>
      </trkpt>
      <trkpt lat="39.7830032" lon="3.0451454">
        <ele>30.6</ele>
        <time>2015-06-19T11:49:47Z</time>
      </trkpt>
      <trkpt lat="39.7827968" lon="3.0448188">
        <ele>30.6</ele>
        <time>2015-06-19T11:49:52Z</time>
      </trkpt>
      <trkpt lat="39.7824445" lon="3.0442171">
        <ele>31.4</ele>
        <time>2015-06-19T11:50:00Z</time>
      </trkpt>
      <trkpt lat="39.782365" lon="3.0440704">
        <ele>31.6</ele>
        <time>2015-06-19T11:50:02Z</time>
      </trkpt>
      <trkpt lat="39.7820898" lon="3.0435799">
        <ele>33</ele>
        <time>2015-06-19T11:50:09Z</time>
      </trkpt>
      <trkpt lat="39.7820173" lon="3.0434545">
        <ele>33.8</ele>
        <time>2015-06-19T11:50:11Z</time>
      </trkpt>
      <trkpt lat="39.781979" lon="3.0433878">
        <ele>34</ele>
        <time>2015-06-19T11:50:12Z</time>
      </trkpt>
      <trkpt lat="39.78184" lon="3.0431351">
        <ele>33</ele>
        <time>2015-06-19T11:50:16Z</time>
      </trkpt>
      <trkpt lat="39.7816397" lon="3.0427823">
        <ele>32.6</ele>
        <time>2015-06-19T11:50:22Z</time>
      </trkpt>
      <trkpt lat="39.7813061" lon="3.0421911">
        <ele>32</ele>
        <time>2015-06-19T11:50:32Z</time>
      </trkpt>
      <trkpt lat="39.7812679" lon="3.0421265">
        <ele>32</ele>
        <time>2015-06-19T11:50:33Z</time>
      </trkpt>
      <trkpt lat="39.7812014" lon="3.0420101">
        <ele>32</ele>
        <time>2015-06-19T11:50:35Z</time>
      </trkpt>
      <trkpt lat="39.7809493" lon="3.0415623">
        <ele>31.8</ele>
        <time>2015-06-19T11:50:42Z</time>
      </trkpt>
      <trkpt lat="39.7806295" lon="3.0409954">
        <ele>32.2</ele>
        <time>2015-06-19T11:50:51Z</time>
      </trkpt>
      <trkpt lat="39.7805179" lon="3.0408004">
        <ele>32.4</ele>
        <time>2015-06-19T11:50:54Z</time>
      </trkpt>
      <trkpt lat="39.7801987" lon="3.0402395">
        <ele>33.2</ele>
        <time>2015-06-19T11:51:03Z</time>
      </trkpt>
      <trkpt lat="39.7800988" lon="3.0400583">
        <ele>33.4</ele>
        <time>2015-06-19T11:51:06Z</time>
      </trkpt>
      <trkpt lat="39.7797619" lon="3.0394627">
        <ele>33.6</ele>
        <time>2015-06-19T11:51:16Z</time>
      </trkpt>
      <trkpt lat="39.7794238" lon="3.0388627">
        <ele>33.8</ele>
        <time>2015-06-19T11:51:26Z</time>
      </trkpt>
      <trkpt lat="39.7793574" lon="3.0387432">
        <ele>34.2</ele>
        <time>2015-06-19T11:51:28Z</time>
      </trkpt>
      <trkpt lat="39.7793261" lon="3.0386881">
        <ele>34.2</ele>
        <time>2015-06-19T11:51:29Z</time>
      </trkpt>
      <trkpt lat="39.7790194" lon="3.0381476">
        <ele>35</ele>
        <time>2015-06-19T11:51:38Z</time>
      </trkpt>
      <trkpt lat="39.7789601" lon="3.0380398">
        <ele>35.4</ele>
        <time>2015-06-19T11:51:40Z</time>
      </trkpt>
      <trkpt lat="39.7786931" lon="3.0376026">
        <ele>35.2</ele>
        <time>2015-06-19T11:51:48Z</time>
      </trkpt>
      <trkpt lat="39.7782911" lon="3.0370519">
        <ele>35.6</ele>
        <time>2015-06-19T11:51:59Z</time>
      </trkpt>
      <trkpt lat="39.7778615" lon="3.0365938">
        <ele>35.6</ele>
        <time>2015-06-19T11:52:09Z</time>
      </trkpt>
      <trkpt lat="39.777819" lon="3.0365515">
        <ele>35.4</ele>
        <time>2015-06-19T11:52:10Z</time>
      </trkpt>
      <trkpt lat="39.777365" lon="3.0361039">
        <ele>35.8</ele>
        <time>2015-06-19T11:52:20Z</time>
      </trkpt>
      <trkpt lat="39.777232" lon="3.0359729">
        <ele>35.8</ele>
        <time>2015-06-19T11:52:23Z</time>
      </trkpt>
      <trkpt lat="39.776789" lon="3.0355328">
        <ele>36.2</ele>
        <time>2015-06-19T11:52:33Z</time>
      </trkpt>
      <trkpt lat="39.7765683" lon="3.0353136">
        <ele>36.6</ele>
        <time>2015-06-19T11:52:38Z</time>
      </trkpt>
      <trkpt lat="39.7764419" lon="3.035188">
        <ele>37</ele>
        <time>2015-06-19T11:52:41Z</time>
      </trkpt>
      <trkpt lat="39.776009" lon="3.0347556">
        <ele>37.4</ele>
        <time>2015-06-19T11:52:51Z</time>
      </trkpt>
      <trkpt lat="39.7759665" lon="3.0347133">
        <ele>37.4</ele>
        <time>2015-06-19T11:52:52Z</time>
      </trkpt>
      <trkpt lat="39.7758426" lon="3.0345904">
        <ele>37.6</ele>
        <time>2015-06-19T11:52:55Z</time>
      </trkpt>
      <trkpt lat="39.7754004" lon="3.0341516">
        <ele>38.2</ele>
        <time>2015-06-19T11:53:06Z</time>
      </trkpt>
      <trkpt lat="39.7753601" lon="3.0341112">
        <ele>38</ele>
        <time>2015-06-19T11:53:07Z</time>
      </trkpt>
      <trkpt lat="39.7749534" lon="3.0337043">
        <ele>38.8</ele>
        <time>2015-06-19T11:53:17Z</time>
      </trkpt>
      <trkpt lat="39.7744921" lon="3.033245">
        <ele>38.8</ele>
        <time>2015-06-19T11:53:28Z</time>
      </trkpt>
      <trkpt lat="39.7744106" lon="3.033167">
        <ele>38.6</ele>
        <time>2015-06-19T11:53:30Z</time>
      </trkpt>
      <trkpt lat="39.773955" lon="3.032714">
        <ele>38.8</ele>
        <time>2015-06-19T11:53:41Z</time>
      </trkpt>
      <trkpt lat="39.7735898" lon="3.0323225">
        <ele>39.2</ele>
        <time>2015-06-19T11:53:50Z</time>
      </trkpt>
      <trkpt lat="39.7731593" lon="3.0318235">
        <ele>39.6</ele>
        <time>2015-06-19T11:54:01Z</time>
      </trkpt>
      <trkpt lat="39.7730148" lon="3.0316478">
        <ele>39.8</ele>
        <time>2015-06-19T11:54:05Z</time>
      </trkpt>
      <trkpt lat="39.7728281" lon="3.031421">
        <ele>40.6</ele>
        <time>2015-06-19T11:54:10Z</time>
      </trkpt>
      <trkpt lat="39.7724237" lon="3.0308722">
        <ele>40.4</ele>
        <time>2015-06-19T11:54:21Z</time>
      </trkpt>
      <trkpt lat="39.7722648" lon="3.0306172">
        <ele>40.8</ele>
        <time>2015-06-19T11:54:26Z</time>
      </trkpt>
      <trkpt lat="39.7721735" lon="3.0304787">
        <ele>40.8</ele>
        <time>2015-06-19T11:54:29Z</time>
      </trkpt>
      <trkpt lat="39.7720694" lon="3.0303742">
        <ele>40.8</ele>
        <time>2015-06-19T11:54:32Z</time>
      </trkpt>
      <trkpt lat="39.7720011" lon="3.0302731">
        <ele>40.8</ele>
        <time>2015-06-19T11:54:34Z</time>
      </trkpt>
      <trkpt lat="39.7719679" lon="3.030239">
        <ele>41</ele>
        <time>2015-06-19T11:54:35Z</time>
      </trkpt>
      <trkpt lat="39.7718245" lon="3.0301821">
        <ele>41.4</ele>
        <time>2015-06-19T11:54:38Z</time>
      </trkpt>
      <trkpt lat="39.7717166" lon="3.0302991">
        <ele>41.2</ele>
        <time>2015-06-19T11:54:41Z</time>
      </trkpt>
      <trkpt lat="39.77171" lon="3.0305148">
        <ele>41</ele>
        <time>2015-06-19T11:54:44Z</time>
      </trkpt>
      <trkpt lat="39.7717141" lon="3.0305798">
        <ele>41</ele>
        <time>2015-06-19T11:54:45Z</time>
      </trkpt>
      <trkpt lat="39.7717237" lon="3.0306348">
        <ele>41</ele>
        <time>2015-06-19T11:54:46Z</time>
      </trkpt>
      <trkpt lat="39.7716471" lon="3.0307031">
        <ele>41</ele>
        <time>2015-06-19T11:54:48Z</time>
      </trkpt>
      <trkpt lat="39.7715681" lon="3.0307636">
        <ele>41</ele>
        <time>2015-06-19T11:54:50Z</time>
      </trkpt>
      <trkpt lat="39.7714167" lon="3.0308964">
        <ele>40.8</ele>
        <time>2015-06-19T11:54:54Z</time>
      </trkpt>
      <trkpt lat="39.7711313" lon="3.0311226">
        <ele>40.4</ele>
        <time>2015-06-19T11:55:02Z</time>
      </trkpt>
      <trkpt lat="39.7710108" lon="3.0312503">
        <ele>40.4</ele>
        <time>2015-06-19T11:55:07Z</time>
      </trkpt>
      <trkpt lat="39.7708582" lon="3.0313974">
        <ele>40</ele>
        <time>2015-06-19T11:55:12Z</time>
      </trkpt>
      <trkpt lat="39.7708312" lon="3.0314268">
        <ele>40</ele>
        <time>2015-06-19T11:55:13Z</time>
      </trkpt>
      <trkpt lat="39.7706587" lon="3.0315786">
        <ele>40.4</ele>
        <time>2015-06-19T11:55:18Z</time>
      </trkpt>
      <trkpt lat="39.7704265" lon="3.0317656">
        <ele>40.4</ele>
        <time>2015-06-19T11:55:25Z</time>
      </trkpt>
      <trkpt lat="39.7703556" lon="3.0318252">
        <ele>40.4</ele>
        <time>2015-06-19T11:55:27Z</time>
      </trkpt>
      <trkpt lat="39.7701994" lon="3.0319537">
        <ele>40.4</ele>
        <time>2015-06-19T11:55:32Z</time>
      </trkpt>
      <trkpt lat="39.7699245" lon="3.0321836">
        <ele>40.6</ele>
        <time>2015-06-19T11:55:40Z</time>
      </trkpt>
      <trkpt lat="39.7695245" lon="3.0325206">
        <ele>40.6</ele>
        <time>2015-06-19T11:55:50Z</time>
      </trkpt>
      <trkpt lat="39.7691736" lon="3.0328096">
        <ele>41</ele>
        <time>2015-06-19T11:55:59Z</time>
      </trkpt>
      <trkpt lat="39.7690398" lon="3.0328393">
        <ele>41</ele>
        <time>2015-06-19T11:56:02Z</time>
      </trkpt>
      <trkpt lat="39.7689937" lon="3.0328677">
        <ele>41</ele>
        <time>2015-06-19T11:56:03Z</time>
      </trkpt>
      <trkpt lat="39.7689573" lon="3.0329118">
        <ele>41</ele>
        <time>2015-06-19T11:56:04Z</time>
      </trkpt>
      <trkpt lat="39.7689019" lon="3.0330254">
        <ele>41.2</ele>
        <time>2015-06-19T11:56:06Z</time>
      </trkpt>
      <trkpt lat="39.7687319" lon="3.0331835">
        <ele>41.2</ele>
        <time>2015-06-19T11:56:10Z</time>
      </trkpt>
      <trkpt lat="39.768376" lon="3.0333559">
        <ele>40.8</ele>
        <time>2015-06-19T11:56:17Z</time>
      </trkpt>
      <trkpt lat="39.7680256" lon="3.033395">
        <ele>41.4</ele>
        <time>2015-06-19T11:56:23Z</time>
      </trkpt>
      <trkpt lat="39.7676505" lon="3.0333082">
        <ele>41.6</ele>
        <time>2015-06-19T11:56:30Z</time>
      </trkpt>
      <trkpt lat="39.7673515" lon="3.0331129">
        <ele>41.8</ele>
        <time>2015-06-19T11:56:36Z</time>
      </trkpt>
      <trkpt lat="39.7672198" lon="3.0329748">
        <ele>42</ele>
        <time>2015-06-19T11:56:39Z</time>
      </trkpt>
      <trkpt lat="39.7670993" lon="3.0328209">
        <ele>42.2</ele>
        <time>2015-06-19T11:56:42Z</time>
      </trkpt>
      <trkpt lat="39.7668288" lon="3.0323646">
        <ele>43</ele>
        <time>2015-06-19T11:56:50Z</time>
      </trkpt>
      <trkpt lat="39.7667905" lon="3.0323033">
        <ele>43</ele>
        <time>2015-06-19T11:56:51Z</time>
      </trkpt>
      <trkpt lat="39.7666944" lon="3.0321428">
        <ele>43</ele>
        <time>2015-06-19T11:56:54Z</time>
      </trkpt>
      <trkpt lat="39.766638" lon="3.0320274">
        <ele>42.8</ele>
        <time>2015-06-19T11:56:56Z</time>
      </trkpt>
      <trkpt lat="39.7664102" lon="3.0315936">
        <ele>42.6</ele>
        <time>2015-06-19T11:57:04Z</time>
      </trkpt>
      <trkpt lat="39.7662021" lon="3.0312082">
        <ele>43.4</ele>
        <time>2015-06-19T11:57:11Z</time>
      </trkpt>
      <trkpt lat="39.7659682" lon="3.0307593">
        <ele>44.2</ele>
        <time>2015-06-19T11:57:19Z</time>
      </trkpt>
      <trkpt lat="39.76594" lon="3.0307097">
        <ele>44.2</ele>
        <time>2015-06-19T11:57:20Z</time>
      </trkpt>
      <trkpt lat="39.7657072" lon="3.0302839">
        <ele>43.6</ele>
        <time>2015-06-19T11:57:28Z</time>
      </trkpt>
      <trkpt lat="39.7655009" lon="3.0299002">
        <ele>44.2</ele>
        <time>2015-06-19T11:57:36Z</time>
      </trkpt>
      <trkpt lat="39.7654882" lon="3.0298453">
        <ele>44.4</ele>
        <time>2015-06-19T11:57:37Z</time>
      </trkpt>
      <trkpt lat="39.7654493" lon="3.0296837">
        <ele>44.2</ele>
        <time>2015-06-19T11:57:40Z</time>
      </trkpt>
      <trkpt lat="39.7653761" lon="3.0296257">
        <ele>44.2</ele>
        <time>2015-06-19T11:57:42Z</time>
      </trkpt>
      <trkpt lat="39.7652442" lon="3.0296714">
        <ele>44.4</ele>
        <time>2015-06-19T11:57:45Z</time>
      </trkpt>
      <trkpt lat="39.7651499" lon="3.0298322">
        <ele>44.2</ele>
        <time>2015-06-19T11:57:48Z</time>
      </trkpt>
      <trkpt lat="39.7651196" lon="3.0298922">
        <ele>44</ele>
        <time>2015-06-19T11:57:49Z</time>
      </trkpt>
      <trkpt lat="39.7650881" lon="3.0299365">
        <ele>44</ele>
        <time>2015-06-19T11:57:50Z</time>
      </trkpt>
      <trkpt lat="39.7649476" lon="3.0300298">
        <ele>43.8</ele>
        <time>2015-06-19T11:57:53Z</time>
      </trkpt>
      <trkpt lat="39.7648937" lon="3.0300556">
        <ele>44</ele>
        <time>2015-06-19T11:57:54Z</time>
      </trkpt>
      <trkpt lat="39.7645298" lon="3.0301728">
        <ele>44.6</ele>
        <time>2015-06-19T11:58:01Z</time>
      </trkpt>
      <trkpt lat="39.7643777" lon="3.03021">
        <ele>45.2</ele>
        <time>2015-06-19T11:58:04Z</time>
      </trkpt>
      <trkpt lat="39.7640232" lon="3.0303291">
        <ele>45.4</ele>
        <time>2015-06-19T11:58:11Z</time>
      </trkpt>
      <trkpt lat="39.7638266" lon="3.0304214">
        <ele>45.6</ele>
        <time>2015-06-19T11:58:15Z</time>
      </trkpt>
      <trkpt lat="39.7636214" lon="3.030541">
        <ele>45.8</ele>
        <time>2015-06-19T11:58:19Z</time>
      </trkpt>
      <trkpt lat="39.7631257" lon="3.0308611">
        <ele>45.6</ele>
        <time>2015-06-19T11:58:28Z</time>
      </trkpt>
      <trkpt lat="39.7630772" lon="3.0308933">
        <ele>45.6</ele>
        <time>2015-06-19T11:58:29Z</time>
      </trkpt>
      <trkpt lat="39.762546" lon="3.0312354">
        <ele>45.2</ele>
        <time>2015-06-19T11:58:38Z</time>
      </trkpt>
      <trkpt lat="39.7624876" lon="3.0312739">
        <ele>45.2</ele>
        <time>2015-06-19T11:58:39Z</time>
      </trkpt>
      <trkpt lat="39.7619775" lon="3.0316045">
        <ele>44.8</ele>
        <time>2015-06-19T11:58:48Z</time>
      </trkpt>
      <trkpt lat="39.7618126" lon="3.0317121">
        <ele>44.6</ele>
        <time>2015-06-19T11:58:51Z</time>
      </trkpt>
      <trkpt lat="39.761276" lon="3.032064">
        <ele>44.8</ele>
        <time>2015-06-19T11:59:01Z</time>
      </trkpt>
      <trkpt lat="39.7611718" lon="3.0321355">
        <ele>44.8</ele>
        <time>2015-06-19T11:59:03Z</time>
      </trkpt>
      <trkpt lat="39.7606917" lon="3.0324666">
        <ele>44.8</ele>
        <time>2015-06-19T11:59:12Z</time>
      </trkpt>
      <trkpt lat="39.7605821" lon="3.0325421">
        <ele>44.8</ele>
        <time>2015-06-19T11:59:14Z</time>
      </trkpt>
      <trkpt lat="39.7600951" lon="3.0328855">
        <ele>45</ele>
        <time>2015-06-19T11:59:23Z</time>
      </trkpt>
      <trkpt lat="39.7599889" lon="3.032957">
        <ele>45.4</ele>
        <time>2015-06-19T11:59:25Z</time>
      </trkpt>
      <trkpt lat="39.7594863" lon="3.0332637">
        <ele>45.2</ele>
        <time>2015-06-19T11:59:34Z</time>
      </trkpt>
      <trkpt lat="39.7594372" lon="3.033292">
        <ele>45.2</ele>
        <time>2015-06-19T11:59:35Z</time>
      </trkpt>
      <trkpt lat="39.758941" lon="3.0336386">
        <ele>45.4</ele>
        <time>2015-06-19T11:59:44Z</time>
      </trkpt>
      <trkpt lat="39.758483" lon="3.0340512">
        <ele>45.4</ele>
        <time>2015-06-19T11:59:53Z</time>
      </trkpt>
      <trkpt lat="39.75838" lon="3.0341473">
        <ele>45.4</ele>
        <time>2015-06-19T11:59:55Z</time>
      </trkpt>
      <trkpt lat="39.7579003" lon="3.0345801">
        <ele>45.4</ele>
        <time>2015-06-19T12:00:04Z</time>
      </trkpt>
      <trkpt lat="39.7576887" lon="3.0347705">
        <ele>45.4</ele>
        <time>2015-06-19T12:00:08Z</time>
      </trkpt>
      <trkpt lat="39.7572352" lon="3.0351788">
        <ele>45.8</ele>
        <time>2015-06-19T12:00:17Z</time>
      </trkpt>
      <trkpt lat="39.75713" lon="3.035276">
        <ele>46</ele>
        <time>2015-06-19T12:00:19Z</time>
      </trkpt>
      <trkpt lat="39.7569803" lon="3.0354096">
        <ele>46.4</ele>
        <time>2015-06-19T12:00:22Z</time>
      </trkpt>
      <trkpt lat="39.7566532" lon="3.0357102">
        <ele>47.2</ele>
        <time>2015-06-19T12:00:29Z</time>
      </trkpt>
      <trkpt lat="39.756608" lon="3.0357519">
        <ele>47.4</ele>
        <time>2015-06-19T12:00:30Z</time>
      </trkpt>
      <trkpt lat="39.7561582" lon="3.0361547">
        <ele>47.8</ele>
        <time>2015-06-19T12:00:40Z</time>
      </trkpt>
      <trkpt lat="39.7559655" lon="3.0363304">
        <ele>48.4</ele>
        <time>2015-06-19T12:00:44Z</time>
      </trkpt>
      <trkpt lat="39.7557008" lon="3.0365722">
        <ele>48.2</ele>
        <time>2015-06-19T12:00:49Z</time>
      </trkpt>
      <trkpt lat="39.7552299" lon="3.0369967">
        <ele>47.2</ele>
        <time>2015-06-19T12:00:57Z</time>
      </trkpt>
      <trkpt lat="39.7551686" lon="3.0370515">
        <ele>47.4</ele>
        <time>2015-06-19T12:00:58Z</time>
      </trkpt>
      <trkpt lat="39.7547899" lon="3.0373953">
        <ele>46.2</ele>
        <time>2015-06-19T12:01:04Z</time>
      </trkpt>
      <trkpt lat="39.754503" lon="3.0376547">
        <ele>46.2</ele>
        <time>2015-06-19T12:01:09Z</time>
      </trkpt>
      <trkpt lat="39.7541725" lon="3.0379539">
        <ele>45</ele>
        <time>2015-06-19T12:01:15Z</time>
      </trkpt>
      <trkpt lat="39.7538322" lon="3.0382584">
        <ele>45</ele>
        <time>2015-06-19T12:01:21Z</time>
      </trkpt>
      <trkpt lat="39.7533537" lon="3.0386895">
        <ele>45</ele>
        <time>2015-06-19T12:01:30Z</time>
      </trkpt>
      <trkpt lat="39.7532972" lon="3.0387402">
        <ele>45</ele>
        <time>2015-06-19T12:01:31Z</time>
      </trkpt>
      <trkpt lat="39.7528517" lon="3.0391304">
        <ele>44.8</ele>
        <time>2015-06-19T12:01:39Z</time>
      </trkpt>
      <trkpt lat="39.7524893" lon="3.0394428">
        <ele>44.2</ele>
        <time>2015-06-19T12:01:45Z</time>
      </trkpt>
      <trkpt lat="39.752181" lon="3.0397243">
        <ele>44</ele>
        <time>2015-06-19T12:01:50Z</time>
      </trkpt>
      <trkpt lat="39.751929" lon="3.03996">
        <ele>42.8</ele>
        <time>2015-06-19T12:01:54Z</time>
      </trkpt>
      <trkpt lat="39.7514613" lon="3.0403811">
        <ele>42</ele>
        <time>2015-06-19T12:02:02Z</time>
      </trkpt>
      <trkpt lat="39.7514005" lon="3.0404353">
        <ele>42</ele>
        <time>2015-06-19T12:02:03Z</time>
      </trkpt>
      <trkpt lat="39.7513436" lon="3.0404864">
        <ele>41.8</ele>
        <time>2015-06-19T12:02:04Z</time>
      </trkpt>
      <trkpt lat="39.7508644" lon="3.0409157">
        <ele>42</ele>
        <time>2015-06-19T12:02:13Z</time>
      </trkpt>
      <trkpt lat="39.7503808" lon="3.0413561">
        <ele>42.6</ele>
        <time>2015-06-19T12:02:23Z</time>
      </trkpt>
      <trkpt lat="39.7502282" lon="3.0414951">
        <ele>42.8</ele>
        <time>2015-06-19T12:02:26Z</time>
      </trkpt>
      <trkpt lat="39.7498708" lon="3.0418208">
        <ele>43</ele>
        <time>2015-06-19T12:02:33Z</time>
      </trkpt>
      <trkpt lat="39.7493904" lon="3.0422506">
        <ele>43.2</ele>
        <time>2015-06-19T12:02:42Z</time>
      </trkpt>
      <trkpt lat="39.7492334" lon="3.0423894">
        <ele>43.2</ele>
        <time>2015-06-19T12:02:45Z</time>
      </trkpt>
      <trkpt lat="39.7487426" lon="3.0428254">
        <ele>43.6</ele>
        <time>2015-06-19T12:02:54Z</time>
      </trkpt>
      <trkpt lat="39.7486336" lon="3.0429232">
        <ele>43.6</ele>
        <time>2015-06-19T12:02:56Z</time>
      </trkpt>
      <trkpt lat="39.7481745" lon="3.0433398">
        <ele>43</ele>
        <time>2015-06-19T12:03:04Z</time>
      </trkpt>
      <trkpt lat="39.7479956" lon="3.0435028">
        <ele>43</ele>
        <time>2015-06-19T12:03:07Z</time>
      </trkpt>
      <trkpt lat="39.7475312" lon="3.0439271">
        <ele>42.8</ele>
        <time>2015-06-19T12:03:15Z</time>
      </trkpt>
      <trkpt lat="39.7473557" lon="3.0440863">
        <ele>43</ele>
        <time>2015-06-19T12:03:18Z</time>
      </trkpt>
      <trkpt lat="39.746884" lon="3.0445156">
        <ele>43</ele>
        <time>2015-06-19T12:03:26Z</time>
      </trkpt>
      <trkpt lat="39.7467087" lon="3.0446734">
        <ele>43.2</ele>
        <time>2015-06-19T12:03:29Z</time>
      </trkpt>
      <trkpt lat="39.7462317" lon="3.0451063">
        <ele>43.2</ele>
        <time>2015-06-19T12:03:37Z</time>
      </trkpt>
      <trkpt lat="39.7461136" lon="3.0452039">
        <ele>43.2</ele>
        <time>2015-06-19T12:03:39Z</time>
      </trkpt>
      <trkpt lat="39.7456955" lon="3.0455791">
        <ele>43.8</ele>
        <time>2015-06-19T12:03:47Z</time>
      </trkpt>
      <trkpt lat="39.7452272" lon="3.0459993">
        <ele>43.6</ele>
        <time>2015-06-19T12:03:57Z</time>
      </trkpt>
      <trkpt lat="39.74489" lon="3.046302">
        <ele>43.8</ele>
        <time>2015-06-19T12:04:06Z</time>
      </trkpt>
      <trkpt lat="39.7445672" lon="3.0466094">
        <ele>44.8</ele>
        <time>2015-06-19T12:04:16Z</time>
      </trkpt>
      <trkpt lat="39.7444798" lon="3.0466983">
        <ele>45</ele>
        <time>2015-06-19T12:04:19Z</time>
      </trkpt>
      <trkpt lat="39.7443452" lon="3.0468359">
        <ele>46</ele>
        <time>2015-06-19T12:04:24Z</time>
      </trkpt>
      <trkpt lat="39.7442979" lon="3.0468877">
        <ele>46.6</ele>
        <time>2015-06-19T12:04:26Z</time>
      </trkpt>
      <trkpt lat="39.7442353" lon="3.0469542">
        <ele>47.2</ele>
        <time>2015-06-19T12:04:29Z</time>
      </trkpt>
      <trkpt lat="39.7441524" lon="3.0470411">
        <ele>47.8</ele>
        <time>2015-06-19T12:04:33Z</time>
      </trkpt>
      <trkpt lat="39.7440908" lon="3.0471068">
        <ele>48.4</ele>
        <time>2015-06-19T12:04:36Z</time>
      </trkpt>
      <trkpt lat="39.7439715" lon="3.0472385">
        <ele>49.4</ele>
        <time>2015-06-19T12:04:42Z</time>
      </trkpt>
      <trkpt lat="39.7439325" lon="3.0472819">
        <ele>49.8</ele>
        <time>2015-06-19T12:04:44Z</time>
      </trkpt>
      <trkpt lat="39.7438937" lon="3.0473256">
        <ele>50.4</ele>
        <time>2015-06-19T12:04:46Z</time>
      </trkpt>
      <trkpt lat="39.7438152" lon="3.0474126">
        <ele>51.6</ele>
        <time>2015-06-19T12:04:50Z</time>
      </trkpt>
      <trkpt lat="39.7437099" lon="3.047526">
        <ele>52.4</ele>
        <time>2015-06-19T12:04:55Z</time>
      </trkpt>
      <trkpt lat="39.7436659" lon="3.0475738">
        <ele>52.8</ele>
        <time>2015-06-19T12:04:57Z</time>
      </trkpt>
      <trkpt lat="39.7435177" lon="3.047735">
        <ele>54</ele>
        <time>2015-06-19T12:05:04Z</time>
      </trkpt>
      <trkpt lat="39.7434789" lon="3.0477784">
        <ele>54.6</ele>
        <time>2015-06-19T12:05:06Z</time>
      </trkpt>
      <trkpt lat="39.7434386" lon="3.0478254">
        <ele>55.2</ele>
        <time>2015-06-19T12:05:08Z</time>
      </trkpt>
      <trkpt lat="39.7433379" lon="3.04794">
        <ele>56.4</ele>
        <time>2015-06-19T12:05:13Z</time>
      </trkpt>
      <trkpt lat="39.7432789" lon="3.0480075">
        <ele>56.8</ele>
        <time>2015-06-19T12:05:16Z</time>
      </trkpt>
      <trkpt lat="39.7432017" lon="3.0481004">
        <ele>57.4</ele>
        <time>2015-06-19T12:05:20Z</time>
      </trkpt>
      <trkpt lat="39.7431022" lon="3.0482098">
        <ele>58.6</ele>
        <time>2015-06-19T12:05:25Z</time>
      </trkpt>
      <trkpt lat="39.7430795" lon="3.048233">
        <ele>58.8</ele>
        <time>2015-06-19T12:05:26Z</time>
      </trkpt>
      <trkpt lat="39.7430187" lon="3.0482992">
        <ele>59.8</ele>
        <time>2015-06-19T12:05:29Z</time>
      </trkpt>
      <trkpt lat="39.7429187" lon="3.0484153">
        <ele>60.8</ele>
        <time>2015-06-19T12:05:34Z</time>
      </trkpt>
      <trkpt lat="39.7428358" lon="3.0485058">
        <ele>61.6</ele>
        <time>2015-06-19T12:05:38Z</time>
      </trkpt>
      <trkpt lat="39.7427994" lon="3.0485483">
        <ele>62</ele>
        <time>2015-06-19T12:05:40Z</time>
      </trkpt>
      <trkpt lat="39.7427207" lon="3.0486381">
        <ele>63</ele>
        <time>2015-06-19T12:05:44Z</time>
      </trkpt>
      <trkpt lat="39.7426133" lon="3.0487544">
        <ele>64</ele>
        <time>2015-06-19T12:05:49Z</time>
      </trkpt>
      <trkpt lat="39.7425348" lon="3.0488485">
        <ele>65.2</ele>
        <time>2015-06-19T12:05:53Z</time>
      </trkpt>
      <trkpt lat="39.7424186" lon="3.0489888">
        <ele>66.2</ele>
        <time>2015-06-19T12:05:59Z</time>
      </trkpt>
      <trkpt lat="39.742397" lon="3.049013">
        <ele>66.4</ele>
        <time>2015-06-19T12:06:00Z</time>
      </trkpt>
      <trkpt lat="39.7423298" lon="3.0490912">
        <ele>67.4</ele>
        <time>2015-06-19T12:06:04Z</time>
      </trkpt>
      <trkpt lat="39.742279" lon="3.0491526">
        <ele>67.8</ele>
        <time>2015-06-19T12:06:07Z</time>
      </trkpt>
      <trkpt lat="39.742218" lon="3.0492308">
        <ele>68.4</ele>
        <time>2015-06-19T12:06:11Z</time>
      </trkpt>
      <trkpt lat="39.7421507" lon="3.0493142">
        <ele>69</ele>
        <time>2015-06-19T12:06:15Z</time>
      </trkpt>
      <trkpt lat="39.7420605" lon="3.0494354">
        <ele>69.4</ele>
        <time>2015-06-19T12:06:20Z</time>
      </trkpt>
      <trkpt lat="39.7419884" lon="3.0495368">
        <ele>70</ele>
        <time>2015-06-19T12:06:24Z</time>
      </trkpt>
      <trkpt lat="39.7418854" lon="3.0496571">
        <ele>70.4</ele>
        <time>2015-06-19T12:06:30Z</time>
      </trkpt>
      <trkpt lat="39.7418634" lon="3.0496652">
        <ele>70.6</ele>
        <time>2015-06-19T12:06:31Z</time>
      </trkpt>
      <trkpt lat="39.7417852" lon="3.0496874">
        <ele>70.8</ele>
        <time>2015-06-19T12:06:35Z</time>
      </trkpt>
      <trkpt lat="39.7416659" lon="3.0498074">
        <ele>71</ele>
        <time>2015-06-19T12:06:42Z</time>
      </trkpt>
      <trkpt lat="39.7416431" lon="3.0498488">
        <ele>71</ele>
        <time>2015-06-19T12:06:44Z</time>
      </trkpt>
      <trkpt lat="39.7416121" lon="3.0499007">
        <ele>71.2</ele>
        <time>2015-06-19T12:06:47Z</time>
      </trkpt>
      <trkpt lat="39.7416084" lon="3.0499251">
        <ele>71.2</ele>
        <time>2015-06-19T12:06:49Z</time>
      </trkpt>
      <trkpt lat="39.7416125" lon="3.0499124">
        <ele>71.2</ele>
        <time>2015-06-19T12:06:52Z</time>
      </trkpt>
      <trkpt lat="39.7416218" lon="3.0499071">
        <ele>71</ele>
        <time>2015-06-19T12:07:10Z</time>
      </trkpt>
      <trkpt lat="39.7416121" lon="3.0499095">
        <ele>71.2</ele>
        <time>2015-06-19T12:07:21Z</time>
      </trkpt>
      <trkpt lat="39.7416104" lon="3.0499105">
        <ele>71.2</ele>
        <time>2015-06-19T12:07:30Z</time>
      </trkpt>
      <trkpt lat="39.7416378" lon="3.0499051">
        <ele>71.2</ele>
        <time>2015-06-19T12:07:39Z</time>
      </trkpt>
      <trkpt lat="39.7416933" lon="3.0499199">
        <ele>71.2</ele>
        <time>2015-06-19T12:07:52Z</time>
      </trkpt>
      <trkpt lat="39.741709" lon="3.0499379">
        <ele>71.2</ele>
        <time>2015-06-19T12:08:08Z</time>
      </trkpt>
      <trkpt lat="39.7416916" lon="3.0499475">
        <ele>71.4</ele>
        <time>2015-06-19T12:08:25Z</time>
      </trkpt>
      <trkpt lat="39.741673" lon="3.0499441">
        <ele>71.2</ele>
        <time>2015-06-19T12:08:37Z</time>
      </trkpt>
      <trkpt lat="39.7416571" lon="3.0499493">
        <ele>71.2</ele>
        <time>2015-06-19T12:08:57Z</time>
      </trkpt>
      <trkpt lat="39.7416469" lon="3.0499811">
        <ele>71</ele>
        <time>2015-06-19T12:09:05Z</time>
      </trkpt>
      <trkpt lat="39.7416416" lon="3.0499805">
        <ele>71.4</ele>
        <time>2015-06-19T12:09:13Z</time>
      </trkpt>
      <trkpt lat="39.7416337" lon="3.0499853">
        <ele>71.2</ele>
        <time>2015-06-19T12:09:23Z</time>
      </trkpt>
      <trkpt lat="39.7416327" lon="3.0500015">
        <ele>71.2</ele>
        <time>2015-06-19T12:09:24Z</time>
      </trkpt>
      <trkpt lat="39.7415704" lon="3.0500815">
        <ele>71.4</ele>
        <time>2015-06-19T12:09:28Z</time>
      </trkpt>
      <trkpt lat="39.7415187" lon="3.0501309">
        <ele>71.6</ele>
        <time>2015-06-19T12:09:30Z</time>
      </trkpt>
      <trkpt lat="39.7414483" lon="3.0502245">
        <ele>72</ele>
        <time>2015-06-19T12:09:33Z</time>
      </trkpt>
      <trkpt lat="39.7413266" lon="3.0503748">
        <ele>72.8</ele>
        <time>2015-06-19T12:09:38Z</time>
      </trkpt>
      <trkpt lat="39.7412518" lon="3.0504677">
        <ele>73.4</ele>
        <time>2015-06-19T12:09:41Z</time>
      </trkpt>
      <trkpt lat="39.7410924" lon="3.0506707">
        <ele>73.8</ele>
        <time>2015-06-19T12:09:47Z</time>
      </trkpt>
      <trkpt lat="39.7409524" lon="3.0508475">
        <ele>74.4</ele>
        <time>2015-06-19T12:09:52Z</time>
      </trkpt>
      <trkpt lat="39.7407907" lon="3.0510382">
        <ele>75</ele>
        <time>2015-06-19T12:09:58Z</time>
      </trkpt>
      <trkpt lat="39.7406785" lon="3.0511512">
        <ele>75.2</ele>
        <time>2015-06-19T12:10:02Z</time>
      </trkpt>
      <trkpt lat="39.7405229" lon="3.0512807">
        <ele>76</ele>
        <time>2015-06-19T12:10:07Z</time>
      </trkpt>
      <trkpt lat="39.740337" lon="3.0514123">
        <ele>76.6</ele>
        <time>2015-06-19T12:10:13Z</time>
      </trkpt>
      <trkpt lat="39.7402181" lon="3.0514794">
        <ele>77</ele>
        <time>2015-06-19T12:10:17Z</time>
      </trkpt>
      <trkpt lat="39.740089" lon="3.0515517">
        <ele>77.6</ele>
        <time>2015-06-19T12:10:21Z</time>
      </trkpt>
      <trkpt lat="39.739981" lon="3.0516308">
        <ele>78.2</ele>
        <time>2015-06-19T12:10:25Z</time>
      </trkpt>
      <trkpt lat="39.7398876" lon="3.0517434">
        <ele>79.4</ele>
        <time>2015-06-19T12:10:29Z</time>
      </trkpt>
      <trkpt lat="39.7397583" lon="3.0519231">
        <ele>80.4</ele>
        <time>2015-06-19T12:10:35Z</time>
      </trkpt>
      <trkpt lat="39.7396955" lon="3.0519632">
        <ele>81</ele>
        <time>2015-06-19T12:10:37Z</time>
      </trkpt>
      <trkpt lat="39.739634" lon="3.0519973">
        <ele>81.6</ele>
        <time>2015-06-19T12:10:39Z</time>
      </trkpt>
      <trkpt lat="39.7395032" lon="3.0521444">
        <ele>81.8</ele>
        <time>2015-06-19T12:10:44Z</time>
      </trkpt>
      <trkpt lat="39.7392551" lon="3.0523896">
        <ele>82.6</ele>
        <time>2015-06-19T12:10:53Z</time>
      </trkpt>
      <trkpt lat="39.7392254" lon="3.0524185">
        <ele>82.8</ele>
        <time>2015-06-19T12:10:54Z</time>
      </trkpt>
      <trkpt lat="39.739049" lon="3.0526351">
        <ele>83.6</ele>
        <time>2015-06-19T12:11:01Z</time>
      </trkpt>
      <trkpt lat="39.7390254" lon="3.0526678">
        <ele>83.8</ele>
        <time>2015-06-19T12:11:02Z</time>
      </trkpt>
      <trkpt lat="39.7388637" lon="3.0529391">
        <ele>84.2</ele>
        <time>2015-06-19T12:11:09Z</time>
      </trkpt>
      <trkpt lat="39.738685" lon="3.05322">
        <ele>84</ele>
        <time>2015-06-19T12:11:16Z</time>
      </trkpt>
      <trkpt lat="39.7386624" lon="3.0532539">
        <ele>84</ele>
        <time>2015-06-19T12:11:17Z</time>
      </trkpt>
      <trkpt lat="39.7384501" lon="3.0535634">
        <ele>84.2</ele>
        <time>2015-06-19T12:11:24Z</time>
      </trkpt>
      <trkpt lat="39.7383768" lon="3.0536778">
        <ele>84.6</ele>
        <time>2015-06-19T12:11:27Z</time>
      </trkpt>
      <trkpt lat="39.7383241" lon="3.0537719">
        <ele>84.8</ele>
        <time>2015-06-19T12:11:29Z</time>
      </trkpt>
      <trkpt lat="39.7381843" lon="3.0540136">
        <ele>84.8</ele>
        <time>2015-06-19T12:11:34Z</time>
      </trkpt>
      <trkpt lat="39.7380907" lon="3.0541825">
        <ele>84.8</ele>
        <time>2015-06-19T12:11:38Z</time>
      </trkpt>
      <trkpt lat="39.7380644" lon="3.054227">
        <ele>85</ele>
        <time>2015-06-19T12:11:39Z</time>
      </trkpt>
      <trkpt lat="39.7379391" lon="3.054424">
        <ele>85.8</ele>
        <time>2015-06-19T12:11:44Z</time>
      </trkpt>
      <trkpt lat="39.7379246" lon="3.0544648">
        <ele>85.8</ele>
        <time>2015-06-19T12:11:45Z</time>
      </trkpt>
      <trkpt lat="39.7377603" lon="3.0547088">
        <ele>86.4</ele>
        <time>2015-06-19T12:11:51Z</time>
      </trkpt>
      <trkpt lat="39.7377284" lon="3.0547432">
        <ele>86.4</ele>
        <time>2015-06-19T12:11:52Z</time>
      </trkpt>
      <trkpt lat="39.7376402" lon="3.0548504">
        <ele>87</ele>
        <time>2015-06-19T12:11:55Z</time>
      </trkpt>
      <trkpt lat="39.7375514" lon="3.0549434">
        <ele>87.4</ele>
        <time>2015-06-19T12:11:58Z</time>
      </trkpt>
      <trkpt lat="39.7374363" lon="3.05508">
        <ele>88</ele>
        <time>2015-06-19T12:12:02Z</time>
      </trkpt>
      <trkpt lat="39.7373831" lon="3.0551424">
        <ele>88.4</ele>
        <time>2015-06-19T12:12:04Z</time>
      </trkpt>
      <trkpt lat="39.7372209" lon="3.0553548">
        <ele>88.8</ele>
        <time>2015-06-19T12:12:10Z</time>
      </trkpt>
      <trkpt lat="39.7371957" lon="3.0553957">
        <ele>88.8</ele>
        <time>2015-06-19T12:12:11Z</time>
      </trkpt>
      <trkpt lat="39.7371131" lon="3.0555076">
        <ele>89</ele>
        <time>2015-06-19T12:12:14Z</time>
      </trkpt>
      <trkpt lat="39.7370685" lon="3.0555537">
        <ele>89.6</ele>
        <time>2015-06-19T12:12:17Z</time>
      </trkpt>
      <trkpt lat="39.7370642" lon="3.0555778">
        <ele>89.8</ele>
        <time>2015-06-19T12:12:21Z</time>
      </trkpt>
      <trkpt lat="39.7370733" lon="3.055595">
        <ele>89.8</ele>
        <time>2015-06-19T12:12:22Z</time>
      </trkpt>
      <trkpt lat="39.7370316" lon="3.0556562">
        <ele>89.8</ele>
        <time>2015-06-19T12:12:25Z</time>
      </trkpt>
      <trkpt lat="39.7369602" lon="3.055745">
        <ele>90</ele>
        <time>2015-06-19T12:12:28Z</time>
      </trkpt>
      <trkpt lat="39.7369354" lon="3.0557823">
        <ele>90</ele>
        <time>2015-06-19T12:12:29Z</time>
      </trkpt>
      <trkpt lat="39.7369104" lon="3.0558198">
        <ele>90.2</ele>
        <time>2015-06-19T12:12:30Z</time>
      </trkpt>
      <trkpt lat="39.7368009" lon="3.0560102">
        <ele>90.6</ele>
        <time>2015-06-19T12:12:35Z</time>
      </trkpt>
      <trkpt lat="39.7367369" lon="3.0560761">
        <ele>91</ele>
        <time>2015-06-19T12:12:38Z</time>
      </trkpt>
      <trkpt lat="39.7366921" lon="3.0561078">
        <ele>91</ele>
        <time>2015-06-19T12:12:39Z</time>
      </trkpt>
      <trkpt lat="39.7366019" lon="3.056168">
        <ele>91.4</ele>
        <time>2015-06-19T12:12:41Z</time>
      </trkpt>
      <trkpt lat="39.7364103" lon="3.0563166">
        <ele>90.8</ele>
        <time>2015-06-19T12:12:45Z</time>
      </trkpt>
      <trkpt lat="39.7362617" lon="3.0564431">
        <ele>90.2</ele>
        <time>2015-06-19T12:12:49Z</time>
      </trkpt>
      <trkpt lat="39.7362394" lon="3.0564628">
        <ele>90</ele>
        <time>2015-06-19T12:12:50Z</time>
      </trkpt>
      <trkpt lat="39.7361575" lon="3.0565063">
        <ele>89.6</ele>
        <time>2015-06-19T12:12:55Z</time>
      </trkpt>
      <trkpt lat="39.7360631" lon="3.0565542">
        <ele>89.4</ele>
        <time>2015-06-19T12:12:59Z</time>
      </trkpt>
      <trkpt lat="39.7359355" lon="3.0566709">
        <ele>89.6</ele>
        <time>2015-06-19T12:13:03Z</time>
      </trkpt>
      <trkpt lat="39.7356823" lon="3.0568576">
        <ele>90.2</ele>
        <time>2015-06-19T12:13:10Z</time>
      </trkpt>
      <trkpt lat="39.7355208" lon="3.0569443">
        <ele>90.6</ele>
        <time>2015-06-19T12:13:15Z</time>
      </trkpt>
      <trkpt lat="39.7354429" lon="3.0570059">
        <ele>91</ele>
        <time>2015-06-19T12:13:17Z</time>
      </trkpt>
      <trkpt lat="39.7353477" lon="3.0570934">
        <ele>91.2</ele>
        <time>2015-06-19T12:13:20Z</time>
      </trkpt>
      <trkpt lat="39.7353242" lon="3.0571084">
        <ele>91.2</ele>
        <time>2015-06-19T12:13:22Z</time>
      </trkpt>
      <trkpt lat="39.7353022" lon="3.0571118">
        <ele>91.2</ele>
        <time>2015-06-19T12:13:24Z</time>
      </trkpt>
      <trkpt lat="39.7351894" lon="3.0571517">
        <ele>91.2</ele>
        <time>2015-06-19T12:13:28Z</time>
      </trkpt>
      <trkpt lat="39.7350055" lon="3.0572299">
        <ele>91.8</ele>
        <time>2015-06-19T12:13:33Z</time>
      </trkpt>
      <trkpt lat="39.7348921" lon="3.0572757">
        <ele>92.4</ele>
        <time>2015-06-19T12:13:36Z</time>
      </trkpt>
      <trkpt lat="39.7347733" lon="3.0573159">
        <ele>93</ele>
        <time>2015-06-19T12:13:39Z</time>
      </trkpt>
      <trkpt lat="39.7346731" lon="3.0573626">
        <ele>93.6</ele>
        <time>2015-06-19T12:13:42Z</time>
      </trkpt>
      <trkpt lat="39.7346376" lon="3.0573786">
        <ele>93.8</ele>
        <time>2015-06-19T12:13:43Z</time>
      </trkpt>
      <trkpt lat="39.7346058" lon="3.0573703">
        <ele>94</ele>
        <time>2015-06-19T12:13:44Z</time>
      </trkpt>
      <trkpt lat="39.7345061" lon="3.0573791">
        <ele>94.6</ele>
        <time>2015-06-19T12:13:47Z</time>
      </trkpt>
      <trkpt lat="39.7343062" lon="3.0574805">
        <ele>95.6</ele>
        <time>2015-06-19T12:13:53Z</time>
      </trkpt>
      <trkpt lat="39.734145" lon="3.0575868">
        <ele>96.4</ele>
        <time>2015-06-19T12:13:58Z</time>
      </trkpt>
      <trkpt lat="39.734117" lon="3.057595">
        <ele>96.6</ele>
        <time>2015-06-19T12:13:59Z</time>
      </trkpt>
      <trkpt lat="39.7339355" lon="3.0576612">
        <ele>97.6</ele>
        <time>2015-06-19T12:14:04Z</time>
      </trkpt>
      <trkpt lat="39.7339037" lon="3.0576764">
        <ele>97.6</ele>
        <time>2015-06-19T12:14:05Z</time>
      </trkpt>
      <trkpt lat="39.7336471" lon="3.0578251">
        <ele>98.6</ele>
        <time>2015-06-19T12:14:12Z</time>
      </trkpt>
      <trkpt lat="39.7336011" lon="3.0578484">
        <ele>98.8</ele>
        <time>2015-06-19T12:14:13Z</time>
      </trkpt>
      <trkpt lat="39.7334254" lon="3.0579327">
        <ele>99.6</ele>
        <time>2015-06-19T12:14:17Z</time>
      </trkpt>
      <trkpt lat="39.73333" lon="3.0579784">
        <ele>99.8</ele>
        <time>2015-06-19T12:14:19Z</time>
      </trkpt>
      <trkpt lat="39.733164" lon="3.0580774">
        <ele>99.8</ele>
        <time>2015-06-19T12:14:23Z</time>
      </trkpt>
      <trkpt lat="39.7328864" lon="3.0581743">
        <ele>100.4</ele>
        <time>2015-06-19T12:14:29Z</time>
      </trkpt>
      <trkpt lat="39.7326506" lon="3.0582825">
        <ele>100</ele>
        <time>2015-06-19T12:14:34Z</time>
      </trkpt>
      <trkpt lat="39.732336" lon="3.0584338">
        <ele>99.8</ele>
        <time>2015-06-19T12:14:40Z</time>
      </trkpt>
      <trkpt lat="39.7319573" lon="3.0586154">
        <ele>100</ele>
        <time>2015-06-19T12:14:47Z</time>
      </trkpt>
      <trkpt lat="39.7316693" lon="3.0587501">
        <ele>99.8</ele>
        <time>2015-06-19T12:14:52Z</time>
      </trkpt>
      <trkpt lat="39.7316207" lon="3.0587704">
        <ele>99.6</ele>
        <time>2015-06-19T12:14:53Z</time>
      </trkpt>
      <trkpt lat="39.7315663" lon="3.0587881">
        <ele>99.4</ele>
        <time>2015-06-19T12:14:54Z</time>
      </trkpt>
      <trkpt lat="39.7314295" lon="3.0587995">
        <ele>99.2</ele>
        <time>2015-06-19T12:14:57Z</time>
      </trkpt>
      <trkpt lat="39.7313831" lon="3.0588156">
        <ele>99.2</ele>
        <time>2015-06-19T12:14:58Z</time>
      </trkpt>
      <trkpt lat="39.7312364" lon="3.0588147">
        <ele>99.6</ele>
        <time>2015-06-19T12:15:01Z</time>
      </trkpt>
      <trkpt lat="39.7310305" lon="3.0588829">
        <ele>99.8</ele>
        <time>2015-06-19T12:15:05Z</time>
      </trkpt>
      <trkpt lat="39.7309638" lon="3.058892">
        <ele>99.4</ele>
        <time>2015-06-19T12:15:06Z</time>
      </trkpt>
      <trkpt lat="39.7306872" lon="3.0589733">
        <ele>98.8</ele>
        <time>2015-06-19T12:15:11Z</time>
      </trkpt>
      <trkpt lat="39.7305737" lon="3.0590179">
        <ele>99</ele>
        <time>2015-06-19T12:15:13Z</time>
      </trkpt>
      <trkpt lat="39.7305192" lon="3.0590264">
        <ele>99</ele>
        <time>2015-06-19T12:15:14Z</time>
      </trkpt>
      <trkpt lat="39.7302411" lon="3.059072">
        <ele>99.2</ele>
        <time>2015-06-19T12:15:19Z</time>
      </trkpt>
      <trkpt lat="39.7300826" lon="3.0591165">
        <ele>99.4</ele>
        <time>2015-06-19T12:15:22Z</time>
      </trkpt>
      <trkpt lat="39.7299204" lon="3.0591569">
        <ele>99.4</ele>
        <time>2015-06-19T12:15:25Z</time>
      </trkpt>
      <trkpt lat="39.7296794" lon="3.0592234">
        <ele>99</ele>
        <time>2015-06-19T12:15:30Z</time>
      </trkpt>
      <trkpt lat="39.7295157" lon="3.0592347">
        <ele>99</ele>
        <time>2015-06-19T12:15:35Z</time>
      </trkpt>
      <trkpt lat="39.729284" lon="3.0591543">
        <ele>98.8</ele>
        <time>2015-06-19T12:15:41Z</time>
      </trkpt>
      <trkpt lat="39.7291997" lon="3.0591177">
        <ele>98.6</ele>
        <time>2015-06-19T12:15:43Z</time>
      </trkpt>
      <trkpt lat="39.7290435" lon="3.0590446">
        <ele>98</ele>
        <time>2015-06-19T12:15:47Z</time>
      </trkpt>
      <trkpt lat="39.7290028" lon="3.0590157">
        <ele>97.8</ele>
        <time>2015-06-19T12:15:48Z</time>
      </trkpt>
      <trkpt lat="39.7289632" lon="3.0589771">
        <ele>97.6</ele>
        <time>2015-06-19T12:15:49Z</time>
      </trkpt>
      <trkpt lat="39.7288315" lon="3.0589451">
        <ele>97</ele>
        <time>2015-06-19T12:15:52Z</time>
      </trkpt>
      <trkpt lat="39.7287482" lon="3.0589217">
        <ele>96.4</ele>
        <time>2015-06-19T12:15:54Z</time>
      </trkpt>
      <trkpt lat="39.7285263" lon="3.0588321">
        <ele>96.4</ele>
        <time>2015-06-19T12:15:59Z</time>
      </trkpt>
      <trkpt lat="39.7281489" lon="3.0586564">
        <ele>95.4</ele>
        <time>2015-06-19T12:16:06Z</time>
      </trkpt>
      <trkpt lat="39.7280899" lon="3.0586379">
        <ele>95.4</ele>
        <time>2015-06-19T12:16:07Z</time>
      </trkpt>
      <trkpt lat="39.7276764" lon="3.0584763">
        <ele>94.4</ele>
        <time>2015-06-19T12:16:14Z</time>
      </trkpt>
      <trkpt lat="39.7275636" lon="3.0584187">
        <ele>94.4</ele>
        <time>2015-06-19T12:16:16Z</time>
      </trkpt>
      <trkpt lat="39.7275169" lon="3.0584037">
        <ele>94.4</ele>
        <time>2015-06-19T12:16:17Z</time>
      </trkpt>
      <trkpt lat="39.7272419" lon="3.0582772">
        <ele>94.2</ele>
        <time>2015-06-19T12:16:22Z</time>
      </trkpt>
      <trkpt lat="39.7271088" lon="3.0582016">
        <ele>93.6</ele>
        <time>2015-06-19T12:16:26Z</time>
      </trkpt>
      <trkpt lat="39.7271032" lon="3.0581961">
        <ele>93.4</ele>
        <time>2015-06-19T12:16:27Z</time>
      </trkpt>
      <trkpt lat="39.7271028" lon="3.0581901">
        <ele>93</ele>
        <time>2015-06-19T12:16:30Z</time>
      </trkpt>
      <trkpt lat="39.7271076" lon="3.0581884">
        <ele>92.4</ele>
        <time>2015-06-19T12:16:50Z</time>
      </trkpt>
      <trkpt lat="39.7271046" lon="3.0581815">
        <ele>92.4</ele>
        <time>2015-06-19T12:17:03Z</time>
      </trkpt>
      <trkpt lat="39.7271024" lon="3.0581783">
        <ele>92.6</ele>
        <time>2015-06-19T12:17:10Z</time>
      </trkpt>
      <trkpt lat="39.7270972" lon="3.0581675">
        <ele>92.6</ele>
        <time>2015-06-19T12:17:29Z</time>
      </trkpt>
      <trkpt lat="39.7270766" lon="3.0581731">
        <ele>92.6</ele>
        <time>2015-06-19T12:17:31Z</time>
      </trkpt>
      <trkpt lat="39.7270811" lon="3.058226">
        <ele>92.6</ele>
        <time>2015-06-19T12:17:34Z</time>
      </trkpt>
      <trkpt lat="39.7271189" lon="3.0582388">
        <ele>92.6</ele>
        <time>2015-06-19T12:17:36Z</time>
      </trkpt>
      <trkpt lat="39.7271999" lon="3.0582786">
        <ele>92.8</ele>
        <time>2015-06-19T12:17:39Z</time>
      </trkpt>
      <trkpt lat="39.7274377" lon="3.0583659">
        <ele>93</ele>
        <time>2015-06-19T12:17:45Z</time>
      </trkpt>
      <trkpt lat="39.727627" lon="3.058442">
        <ele>93.4</ele>
        <time>2015-06-19T12:17:49Z</time>
      </trkpt>
      <trkpt lat="39.7278489" lon="3.0585485">
        <ele>93.6</ele>
        <time>2015-06-19T12:17:54Z</time>
      </trkpt>
      <trkpt lat="39.7282199" lon="3.0586881">
        <ele>94.4</ele>
        <time>2015-06-19T12:18:02Z</time>
      </trkpt>
      <trkpt lat="39.7282613" lon="3.0587078">
        <ele>94.6</ele>
        <time>2015-06-19T12:18:03Z</time>
      </trkpt>
      <trkpt lat="39.7286195" lon="3.0588617">
        <ele>95</ele>
        <time>2015-06-19T12:18:11Z</time>
      </trkpt>
      <trkpt lat="39.7288018" lon="3.0589347">
        <ele>95.6</ele>
        <time>2015-06-19T12:18:15Z</time>
      </trkpt>
      <trkpt lat="39.7288813" lon="3.0589705">
        <ele>95.8</ele>
        <time>2015-06-19T12:18:17Z</time>
      </trkpt>
      <trkpt lat="39.7291089" lon="3.0590712">
        <ele>96.4</ele>
        <time>2015-06-19T12:18:23Z</time>
      </trkpt>
      <trkpt lat="39.7292189" lon="3.0591266">
        <ele>96.6</ele>
        <time>2015-06-19T12:18:26Z</time>
      </trkpt>
      <trkpt lat="39.7293483" lon="3.0591989">
        <ele>97</ele>
        <time>2015-06-19T12:18:30Z</time>
      </trkpt>
      <trkpt lat="39.7294534" lon="3.0592784">
        <ele>97.6</ele>
        <time>2015-06-19T12:18:34Z</time>
      </trkpt>
      <trkpt lat="39.7294608" lon="3.059297">
        <ele>97.8</ele>
        <time>2015-06-19T12:18:35Z</time>
      </trkpt>
      <trkpt lat="39.7295004" lon="3.0593477">
        <ele>98.4</ele>
        <time>2015-06-19T12:18:39Z</time>
      </trkpt>
      <trkpt lat="39.7295156" lon="3.0593505">
        <ele>98.6</ele>
        <time>2015-06-19T12:18:40Z</time>
      </trkpt>
      <trkpt lat="39.7295925" lon="3.0593239">
        <ele>98.8</ele>
        <time>2015-06-19T12:18:43Z</time>
      </trkpt>
      <trkpt lat="39.7296278" lon="3.0593035">
        <ele>98.8</ele>
        <time>2015-06-19T12:18:44Z</time>
      </trkpt>
      <trkpt lat="39.7297848" lon="3.0592326">
        <ele>98.6</ele>
        <time>2015-06-19T12:18:48Z</time>
      </trkpt>
      <trkpt lat="39.7299919" lon="3.0591506">
        <ele>98.8</ele>
        <time>2015-06-19T12:18:53Z</time>
      </trkpt>
      <trkpt lat="39.730085" lon="3.0591207">
        <ele>98.6</ele>
        <time>2015-06-19T12:18:55Z</time>
      </trkpt>
      <trkpt lat="39.7304015" lon="3.0590552">
        <ele>98.8</ele>
        <time>2015-06-19T12:19:01Z</time>
      </trkpt>
      <trkpt lat="39.7304483" lon="3.0590434">
        <ele>98.8</ele>
        <time>2015-06-19T12:19:02Z</time>
      </trkpt>
      <trkpt lat="39.7308182" lon="3.0589748">
        <ele>99.2</ele>
        <time>2015-06-19T12:19:09Z</time>
      </trkpt>
      <trkpt lat="39.7312306" lon="3.0588918">
        <ele>98.8</ele>
        <time>2015-06-19T12:19:17Z</time>
      </trkpt>
      <trkpt lat="39.7316046" lon="3.0588612">
        <ele>98.8</ele>
        <time>2015-06-19T12:19:24Z</time>
      </trkpt>
      <trkpt lat="39.731747" lon="3.0588407">
        <ele>99.2</ele>
        <time>2015-06-19T12:19:27Z</time>
      </trkpt>
      <trkpt lat="39.7318994" lon="3.0588378">
        <ele>99.4</ele>
        <time>2015-06-19T12:19:30Z</time>
      </trkpt>
      <trkpt lat="39.7321112" lon="3.0588454">
        <ele>99.8</ele>
        <time>2015-06-19T12:19:34Z</time>
      </trkpt>
      <trkpt lat="39.7322171" lon="3.0588445">
        <ele>99.8</ele>
        <time>2015-06-19T12:19:36Z</time>
      </trkpt>
      <trkpt lat="39.7327092" lon="3.0588342">
        <ele>100.6</ele>
        <time>2015-06-19T12:19:46Z</time>
      </trkpt>
      <trkpt lat="39.7327885" lon="3.0588319">
        <ele>100.8</ele>
        <time>2015-06-19T12:19:48Z</time>
      </trkpt>
      <trkpt lat="39.7329199" lon="3.0588177">
        <ele>101</ele>
        <time>2015-06-19T12:19:51Z</time>
      </trkpt>
      <trkpt lat="39.7330541" lon="3.0587895">
        <ele>100.8</ele>
        <time>2015-06-19T12:19:56Z</time>
      </trkpt>
      <trkpt lat="39.7332005" lon="3.0587206">
        <ele>100.2</ele>
        <time>2015-06-19T12:20:02Z</time>
      </trkpt>
      <trkpt lat="39.7334125" lon="3.0586337">
        <ele>100</ele>
        <time>2015-06-19T12:20:07Z</time>
      </trkpt>
      <trkpt lat="39.7334543" lon="3.0586265">
        <ele>99.8</ele>
        <time>2015-06-19T12:20:08Z</time>
      </trkpt>
      <trkpt lat="39.7336144" lon="3.0585386">
        <ele>99.4</ele>
        <time>2015-06-19T12:20:12Z</time>
      </trkpt>
      <trkpt lat="39.7337481" lon="3.0584715">
        <ele>98.6</ele>
        <time>2015-06-19T12:20:16Z</time>
      </trkpt>
      <trkpt lat="39.7339356" lon="3.0583576">
        <ele>97.6</ele>
        <time>2015-06-19T12:20:21Z</time>
      </trkpt>
      <trkpt lat="39.7339761" lon="3.0583364">
        <ele>97.6</ele>
        <time>2015-06-19T12:20:22Z</time>
      </trkpt>
      <trkpt lat="39.734021" lon="3.0583209">
        <ele>97.4</ele>
        <time>2015-06-19T12:20:23Z</time>
      </trkpt>
      <trkpt lat="39.7341677" lon="3.0582549">
        <ele>97.2</ele>
        <time>2015-06-19T12:20:26Z</time>
      </trkpt>
      <trkpt lat="39.7343455" lon="3.0581669">
        <ele>96.2</ele>
        <time>2015-06-19T12:20:30Z</time>
      </trkpt>
      <trkpt lat="39.734375" lon="3.0581587">
        <ele>96</ele>
        <time>2015-06-19T12:20:31Z</time>
      </trkpt>
      <trkpt lat="39.7344597" lon="3.058105">
        <ele>95.2</ele>
        <time>2015-06-19T12:20:35Z</time>
      </trkpt>
      <trkpt lat="39.7344771" lon="3.0580798">
        <ele>95</ele>
        <time>2015-06-19T12:20:36Z</time>
      </trkpt>
      <trkpt lat="39.7345819" lon="3.057981">
        <ele>94.6</ele>
        <time>2015-06-19T12:20:40Z</time>
      </trkpt>
      <trkpt lat="39.7346994" lon="3.0578891">
        <ele>94.4</ele>
        <time>2015-06-19T12:20:44Z</time>
      </trkpt>
      <trkpt lat="39.7347675" lon="3.0578624">
        <ele>94.2</ele>
        <time>2015-06-19T12:20:47Z</time>
      </trkpt>
      <trkpt lat="39.734821" lon="3.0578504">
        <ele>94</ele>
        <time>2015-06-19T12:20:49Z</time>
      </trkpt>
      <trkpt lat="39.7348841" lon="3.0577966">
        <ele>93.8</ele>
        <time>2015-06-19T12:20:52Z</time>
      </trkpt>
      <trkpt lat="39.7349606" lon="3.0577346">
        <ele>93.6</ele>
        <time>2015-06-19T12:20:57Z</time>
      </trkpt>
      <trkpt lat="39.7350707" lon="3.0576661">
        <ele>93.4</ele>
        <time>2015-06-19T12:21:01Z</time>
      </trkpt>
      <trkpt lat="39.7351315" lon="3.0576216">
        <ele>93.4</ele>
        <time>2015-06-19T12:21:03Z</time>
      </trkpt>
      <trkpt lat="39.7352737" lon="3.0575351">
        <ele>93.4</ele>
        <time>2015-06-19T12:21:07Z</time>
      </trkpt>
      <trkpt lat="39.735292" lon="3.0575203">
        <ele>93.2</ele>
        <time>2015-06-19T12:21:10Z</time>
      </trkpt>
      <trkpt lat="39.7352814" lon="3.0573513">
        <ele>93.2</ele>
        <time>2015-06-19T12:21:15Z</time>
      </trkpt>
      <trkpt lat="39.7352492" lon="3.0571823">
        <ele>93</ele>
        <time>2015-06-19T12:21:19Z</time>
      </trkpt>
      <trkpt lat="39.73525" lon="3.0571162">
        <ele>92.6</ele>
        <time>2015-06-19T12:21:21Z</time>
      </trkpt>
      <trkpt lat="39.7352385" lon="3.0570961">
        <ele>92.4</ele>
        <time>2015-06-19T12:21:22Z</time>
      </trkpt>
      <trkpt lat="39.735234" lon="3.057073">
        <ele>92</ele>
        <time>2015-06-19T12:21:25Z</time>
      </trkpt>
      <trkpt lat="39.7352363" lon="3.0570609">
        <ele>91.8</ele>
        <time>2015-06-19T12:21:26Z</time>
      </trkpt>
      <trkpt lat="39.7352569" lon="3.0570458">
        <ele>91.2</ele>
        <time>2015-06-19T12:21:32Z</time>
      </trkpt>
      <trkpt lat="39.7353028" lon="3.0569958">
        <ele>91.2</ele>
        <time>2015-06-19T12:21:37Z</time>
      </trkpt>
      <trkpt lat="39.7354534" lon="3.0569238">
        <ele>91.2</ele>
        <time>2015-06-19T12:21:43Z</time>
      </trkpt>
      <trkpt lat="39.7356087" lon="3.0568062">
        <ele>91.2</ele>
        <time>2015-06-19T12:21:48Z</time>
      </trkpt>
      <trkpt lat="39.735839" lon="3.056672">
        <ele>90.8</ele>
        <time>2015-06-19T12:21:54Z</time>
      </trkpt>
      <trkpt lat="39.7359275" lon="3.0566124">
        <ele>90.8</ele>
        <time>2015-06-19T12:21:57Z</time>
      </trkpt>
      <trkpt lat="39.7359589" lon="3.0566036">
        <ele>90.4</ele>
        <time>2015-06-19T12:21:59Z</time>
      </trkpt>
      <trkpt lat="39.7360232" lon="3.0566085">
        <ele>89.6</ele>
        <time>2015-06-19T12:22:03Z</time>
      </trkpt>
      <trkpt lat="39.7361074" lon="3.0567397">
        <ele>89.6</ele>
        <time>2015-06-19T12:22:07Z</time>
      </trkpt>
      <trkpt lat="39.736229" lon="3.0569825">
        <ele>90.4</ele>
        <time>2015-06-19T12:22:13Z</time>
      </trkpt>
      <trkpt lat="39.7362964" lon="3.0570806">
        <ele>90.6</ele>
        <time>2015-06-19T12:22:16Z</time>
      </trkpt>
      <trkpt lat="39.736326" lon="3.0571526">
        <ele>91.2</ele>
        <time>2015-06-19T12:22:19Z</time>
      </trkpt>
      <trkpt lat="39.736407" lon="3.0572277">
        <ele>91.4</ele>
        <time>2015-06-19T12:22:25Z</time>
      </trkpt>
      <trkpt lat="39.73654" lon="3.0573401">
        <ele>91.8</ele>
        <time>2015-06-19T12:22:30Z</time>
      </trkpt>
      <trkpt lat="39.7366766" lon="3.0574558">
        <ele>92.6</ele>
        <time>2015-06-19T12:22:36Z</time>
      </trkpt>
      <trkpt lat="39.7367272" lon="3.0574936">
        <ele>92.8</ele>
        <time>2015-06-19T12:22:39Z</time>
      </trkpt>
      <trkpt lat="39.7367514" lon="3.0575221">
        <ele>93</ele>
        <time>2015-06-19T12:22:42Z</time>
      </trkpt>
      <trkpt lat="39.7368058" lon="3.0574878">
        <ele>92.8</ele>
        <time>2015-06-19T12:22:50Z</time>
      </trkpt>
      <trkpt lat="39.7368528" lon="3.0574621">
        <ele>92.8</ele>
        <time>2015-06-19T12:22:58Z</time>
      </trkpt>
      <trkpt lat="39.7368922" lon="3.057446">
        <ele>93</ele>
        <time>2015-06-19T12:23:10Z</time>
      </trkpt>
      <trkpt lat="39.7369355" lon="3.0574459">
        <ele>93</ele>
        <time>2015-06-19T12:23:22Z</time>
      </trkpt>
      <trkpt lat="39.7369893" lon="3.0574701">
        <ele>93</ele>
        <time>2015-06-19T12:23:26Z</time>
      </trkpt>
      <trkpt lat="39.7369874" lon="3.0574812">
        <ele>93</ele>
        <time>2015-06-19T12:23:27Z</time>
      </trkpt>
      <trkpt lat="39.736981" lon="3.057482">
        <ele>93.2</ele>
        <time>2015-06-19T12:23:33Z</time>
      </trkpt>
      <trkpt lat="39.7369829" lon="3.0574936">
        <ele>93.2</ele>
        <time>2015-06-19T12:23:41Z</time>
      </trkpt>
      <trkpt lat="39.7369986" lon="3.0575378">
        <ele>93.2</ele>
        <time>2015-06-19T12:23:47Z</time>
      </trkpt>
      <trkpt lat="39.7369802" lon="3.0575693">
        <ele>93.2</ele>
        <time>2015-06-19T12:23:48Z</time>
      </trkpt>
      <trkpt lat="39.7369635" lon="3.0576353">
        <ele>93.2</ele>
        <time>2015-06-19T12:23:50Z</time>
      </trkpt>
      <trkpt lat="39.7369068" lon="3.0577313">
        <ele>93.4</ele>
        <time>2015-06-19T12:23:52Z</time>
      </trkpt>
      <trkpt lat="39.7368654" lon="3.057754">
        <ele>93.6</ele>
        <time>2015-06-19T12:23:53Z</time>
      </trkpt>
      <trkpt lat="39.7368551" lon="3.0577768">
        <ele>93.6</ele>
        <time>2015-06-19T12:23:54Z</time>
      </trkpt>
      <trkpt lat="39.7367954" lon="3.0579064">
        <ele>94</ele>
        <time>2015-06-19T12:23:57Z</time>
      </trkpt>
      <trkpt lat="39.7366567" lon="3.0581951">
        <ele>94.6</ele>
        <time>2015-06-19T12:24:04Z</time>
      </trkpt>
      <trkpt lat="39.7365992" lon="3.0583142">
        <ele>95</ele>
        <time>2015-06-19T12:24:07Z</time>
      </trkpt>
      <trkpt lat="39.736567" lon="3.0583551">
        <ele>95.2</ele>
        <time>2015-06-19T12:24:09Z</time>
      </trkpt>
      <trkpt lat="39.7365723" lon="3.0583694">
        <ele>95.4</ele>
        <time>2015-06-19T12:24:10Z</time>
      </trkpt>
      <trkpt lat="39.7365372" lon="3.058373">
        <ele>95.6</ele>
        <time>2015-06-19T12:24:12Z</time>
      </trkpt>
      <trkpt lat="39.7364157" lon="3.0583121">
        <ele>95.6</ele>
        <time>2015-06-19T12:24:16Z</time>
      </trkpt>
      <trkpt lat="39.7363033" lon="3.0582525">
        <ele>95.6</ele>
        <time>2015-06-19T12:24:21Z</time>
      </trkpt>
      <trkpt lat="39.7361796" lon="3.0581766">
        <ele>95.4</ele>
        <time>2015-06-19T12:24:26Z</time>
      </trkpt>
      <trkpt lat="39.7361016" lon="3.0581641">
        <ele>95.4</ele>
        <time>2015-06-19T12:24:29Z</time>
      </trkpt>
      <trkpt lat="39.7360657" lon="3.0581764">
        <ele>95.2</ele>
        <time>2015-06-19T12:24:31Z</time>
      </trkpt>
      <trkpt lat="39.735993" lon="3.0582576">
        <ele>95</ele>
        <time>2015-06-19T12:24:34Z</time>
      </trkpt>
      <trkpt lat="39.7359858" lon="3.0582784">
        <ele>95.2</ele>
        <time>2015-06-19T12:24:35Z</time>
      </trkpt>
      <trkpt lat="39.7358967" lon="3.0583966">
        <ele>95.8</ele>
        <time>2015-06-19T12:24:40Z</time>
      </trkpt>
      <trkpt lat="39.7358701" lon="3.0584193">
        <ele>96</ele>
        <time>2015-06-19T12:24:41Z</time>
      </trkpt>
      <trkpt lat="39.7357675" lon="3.0585638">
        <ele>96.6</ele>
        <time>2015-06-19T12:24:45Z</time>
      </trkpt>
      <trkpt lat="39.7357143" lon="3.058629">
        <ele>97</ele>
        <time>2015-06-19T12:24:47Z</time>
      </trkpt>
      <trkpt lat="39.7356357" lon="3.058713">
        <ele>97.4</ele>
        <time>2015-06-19T12:24:50Z</time>
      </trkpt>
      <trkpt lat="39.7355777" lon="3.0588023">
        <ele>98.2</ele>
        <time>2015-06-19T12:24:54Z</time>
      </trkpt>
      <trkpt lat="39.7354719" lon="3.0589368">
        <ele>98.6</ele>
        <time>2015-06-19T12:24:59Z</time>
      </trkpt>
      <trkpt lat="39.7353759" lon="3.0590481">
        <ele>99</ele>
        <time>2015-06-19T12:25:03Z</time>
      </trkpt>
      <trkpt lat="39.7353131" lon="3.0591081">
        <ele>99.2</ele>
        <time>2015-06-19T12:25:05Z</time>
      </trkpt>
      <trkpt lat="39.7352017" lon="3.0591564">
        <ele>99.4</ele>
        <time>2015-06-19T12:25:08Z</time>
      </trkpt>
      <trkpt lat="39.7349531" lon="3.0592151">
        <ele>99.8</ele>
        <time>2015-06-19T12:25:14Z</time>
      </trkpt>
      <trkpt lat="39.7347484" lon="3.0592782">
        <ele>99.6</ele>
        <time>2015-06-19T12:25:20Z</time>
      </trkpt>
      <trkpt lat="39.7346708" lon="3.0592924">
        <ele>99.8</ele>
        <time>2015-06-19T12:25:22Z</time>
      </trkpt>
      <trkpt lat="39.7345858" lon="3.0593257">
        <ele>100</ele>
        <time>2015-06-19T12:25:24Z</time>
      </trkpt>
      <trkpt lat="39.7345415" lon="3.0593413">
        <ele>100.2</ele>
        <time>2015-06-19T12:25:25Z</time>
      </trkpt>
      <trkpt lat="39.7343152" lon="3.0594067">
        <ele>100</ele>
        <time>2015-06-19T12:25:30Z</time>
      </trkpt>
      <trkpt lat="39.7342713" lon="3.0594156">
        <ele>100.2</ele>
        <time>2015-06-19T12:25:31Z</time>
      </trkpt>
      <trkpt lat="39.7342306" lon="3.0594289">
        <ele>100</ele>
        <time>2015-06-19T12:25:32Z</time>
      </trkpt>
      <trkpt lat="39.734148" lon="3.0594472">
        <ele>100.2</ele>
        <time>2015-06-19T12:25:34Z</time>
      </trkpt>
      <trkpt lat="39.7340276" lon="3.0594777">
        <ele>100.4</ele>
        <time>2015-06-19T12:25:37Z</time>
      </trkpt>
      <trkpt lat="39.733731" lon="3.059567">
        <ele>101.4</ele>
        <time>2015-06-19T12:25:45Z</time>
      </trkpt>
      <trkpt lat="39.7336253" lon="3.0596345">
        <ele>101.8</ele>
        <time>2015-06-19T12:25:50Z</time>
      </trkpt>
      <trkpt lat="39.7334686" lon="3.0596789">
        <ele>101.6</ele>
        <time>2015-06-19T12:25:54Z</time>
      </trkpt>
      <trkpt lat="39.7332394" lon="3.0597547">
        <ele>102.2</ele>
        <time>2015-06-19T12:26:00Z</time>
      </trkpt>
      <trkpt lat="39.7330843" lon="3.0597797">
        <ele>102.4</ele>
        <time>2015-06-19T12:26:04Z</time>
      </trkpt>
      <trkpt lat="39.7330207" lon="3.0597847">
        <ele>102.6</ele>
        <time>2015-06-19T12:26:06Z</time>
      </trkpt>
      <trkpt lat="39.7329504" lon="3.0597897">
        <ele>102.4</ele>
        <time>2015-06-19T12:26:11Z</time>
      </trkpt>
      <trkpt lat="39.7329042" lon="3.0597899">
        <ele>102</ele>
        <time>2015-06-19T12:26:20Z</time>
      </trkpt>
      <trkpt lat="39.7328809" lon="3.0597793">
        <ele>102</ele>
        <time>2015-06-19T12:26:26Z</time>
      </trkpt>
      <trkpt lat="39.7328676" lon="3.0597732">
        <ele>102</ele>
        <time>2015-06-19T12:26:27Z</time>
      </trkpt>
      <trkpt lat="39.7328218" lon="3.0597083">
        <ele>102.2</ele>
        <time>2015-06-19T12:26:31Z</time>
      </trkpt>
      <trkpt lat="39.7327301" lon="3.0595925">
        <ele>102.6</ele>
        <time>2015-06-19T12:26:36Z</time>
      </trkpt>
      <trkpt lat="39.7327083" lon="3.0595598">
        <ele>102.8</ele>
        <time>2015-06-19T12:26:39Z</time>
      </trkpt>
      <trkpt lat="39.7327322" lon="3.0595397">
        <ele>102.8</ele>
        <time>2015-06-19T12:26:40Z</time>
      </trkpt>
      <trkpt lat="39.7327343" lon="3.0594673">
        <ele>102.6</ele>
        <time>2015-06-19T12:26:43Z</time>
      </trkpt>
      <trkpt lat="39.7327827" lon="3.0593455">
        <ele>102.6</ele>
        <time>2015-06-19T12:26:46Z</time>
      </trkpt>
      <trkpt lat="39.7328047" lon="3.0593005">
        <ele>102.6</ele>
        <time>2015-06-19T12:26:47Z</time>
      </trkpt>
      <trkpt lat="39.7329177" lon="3.0590556">
        <ele>102.4</ele>
        <time>2015-06-19T12:26:52Z</time>
      </trkpt>
      <trkpt lat="39.7330167" lon="3.0588796">
        <ele>101.6</ele>
        <time>2015-06-19T12:26:57Z</time>
      </trkpt>
      <trkpt lat="39.7330343" lon="3.0588409">
        <ele>101.4</ele>
        <time>2015-06-19T12:26:59Z</time>
      </trkpt>
      <trkpt lat="39.7330429" lon="3.0588411">
        <ele>101.2</ele>
        <time>2015-06-19T12:27:01Z</time>
      </trkpt>
      <trkpt lat="39.7330534" lon="3.0588283">
        <ele>100.8</ele>
        <time>2015-06-19T12:27:08Z</time>
      </trkpt>
      <trkpt lat="39.7330487" lon="3.0588093">
        <ele>101</ele>
        <time>2015-06-19T12:27:14Z</time>
      </trkpt>
      <trkpt lat="39.7330545" lon="3.0588293">
        <ele>100.8</ele>
        <time>2015-06-19T12:27:21Z</time>
      </trkpt>
      <trkpt lat="39.733056" lon="3.0588247">
        <ele>100.8</ele>
        <time>2015-06-19T12:27:28Z</time>
      </trkpt>
      <trkpt lat="39.7330445" lon="3.0588295">
        <ele>101</ele>
        <time>2015-06-19T12:27:36Z</time>
      </trkpt>
      <trkpt lat="39.7330481" lon="3.0588627">
        <ele>101</ele>
        <time>2015-06-19T12:27:48Z</time>
      </trkpt>
      <trkpt lat="39.7330696" lon="3.0588513">
        <ele>100.8</ele>
        <time>2015-06-19T12:27:56Z</time>
      </trkpt>
      <trkpt lat="39.7330633" lon="3.0588367">
        <ele>100.8</ele>
        <time>2015-06-19T12:28:03Z</time>
      </trkpt>
      <trkpt lat="39.7330545" lon="3.0588221">
        <ele>100.8</ele>
        <time>2015-06-19T12:28:12Z</time>
      </trkpt>
      <trkpt lat="39.7330333" lon="3.0588067">
        <ele>100.8</ele>
        <time>2015-06-19T12:28:22Z</time>
      </trkpt>
      <trkpt lat="39.7330204" lon="3.0588238">
        <ele>100.8</ele>
        <time>2015-06-19T12:28:29Z</time>
      </trkpt>
      <trkpt lat="39.7330202" lon="3.0588461">
        <ele>100.8</ele>
        <time>2015-06-19T12:28:37Z</time>
      </trkpt>
      <trkpt lat="39.7330298" lon="3.0588471">
        <ele>100.8</ele>
        <time>2015-06-19T12:28:45Z</time>
      </trkpt>
      <trkpt lat="39.7331314" lon="3.0587881">
        <ele>101</ele>
        <time>2015-06-19T12:28:50Z</time>
      </trkpt>
      <trkpt lat="39.7331353" lon="3.0587643">
        <ele>100.8</ele>
        <time>2015-06-19T12:28:51Z</time>
      </trkpt>
      <trkpt lat="39.7331806" lon="3.0587451">
        <ele>100.8</ele>
        <time>2015-06-19T12:28:53Z</time>
      </trkpt>
      <trkpt lat="39.7333575" lon="3.0586878">
        <ele>100.4</ele>
        <time>2015-06-19T12:28:57Z</time>
      </trkpt>
      <trkpt lat="39.7334305" lon="3.0586638">
        <ele>100.4</ele>
        <time>2015-06-19T12:28:59Z</time>
      </trkpt>
      <trkpt lat="39.7334795" lon="3.0586436">
        <ele>100.2</ele>
        <time>2015-06-19T12:29:00Z</time>
      </trkpt>
      <trkpt lat="39.7335364" lon="3.0586139">
        <ele>100</ele>
        <time>2015-06-19T12:29:01Z</time>
      </trkpt>
      <trkpt lat="39.7336316" lon="3.0585652">
        <ele>99.6</ele>
        <time>2015-06-19T12:29:03Z</time>
      </trkpt>
      <trkpt lat="39.7337808" lon="3.0585023">
        <ele>99.2</ele>
        <time>2015-06-19T12:29:06Z</time>
      </trkpt>
      <trkpt lat="39.7340302" lon="3.0584401">
        <ele>98.2</ele>
        <time>2015-06-19T12:29:11Z</time>
      </trkpt>
      <trkpt lat="39.7340729" lon="3.058421">
        <ele>98.2</ele>
        <time>2015-06-19T12:29:12Z</time>
      </trkpt>
      <trkpt lat="39.7342926" lon="3.0583447">
        <ele>97.2</ele>
        <time>2015-06-19T12:29:17Z</time>
      </trkpt>
      <trkpt lat="39.7343262" lon="3.0583205">
        <ele>97</ele>
        <time>2015-06-19T12:29:18Z</time>
      </trkpt>
      <trkpt lat="39.7344721" lon="3.0582127">
        <ele>96.2</ele>
        <time>2015-06-19T12:29:22Z</time>
      </trkpt>
      <trkpt lat="39.7346165" lon="3.0580815">
        <ele>95.8</ele>
        <time>2015-06-19T12:29:26Z</time>
      </trkpt>
      <trkpt lat="39.7346936" lon="3.0580204">
        <ele>95.6</ele>
        <time>2015-06-19T12:29:28Z</time>
      </trkpt>
      <trkpt lat="39.7348243" lon="3.0579303">
        <ele>95.2</ele>
        <time>2015-06-19T12:29:32Z</time>
      </trkpt>
      <trkpt lat="39.734917" lon="3.0578748">
        <ele>94.8</ele>
        <time>2015-06-19T12:29:35Z</time>
      </trkpt>
      <trkpt lat="39.7349852" lon="3.0578528">
        <ele>94.6</ele>
        <time>2015-06-19T12:29:37Z</time>
      </trkpt>
      <trkpt lat="39.7350126" lon="3.0578196">
        <ele>94.4</ele>
        <time>2015-06-19T12:29:38Z</time>
      </trkpt>
      <trkpt lat="39.7350659" lon="3.0577607">
        <ele>94.4</ele>
        <time>2015-06-19T12:29:40Z</time>
      </trkpt>
      <trkpt lat="39.7351516" lon="3.0577176">
        <ele>94.2</ele>
        <time>2015-06-19T12:29:42Z</time>
      </trkpt>
      <trkpt lat="39.7352556" lon="3.0576745">
        <ele>94.2</ele>
        <time>2015-06-19T12:29:45Z</time>
      </trkpt>
      <trkpt lat="39.7353109" lon="3.0576699">
        <ele>94</ele>
        <time>2015-06-19T12:29:48Z</time>
      </trkpt>
      <trkpt lat="39.7353674" lon="3.0577516">
        <ele>93.8</ele>
        <time>2015-06-19T12:29:52Z</time>
      </trkpt>
      <trkpt lat="39.7355072" lon="3.0578717">
        <ele>93.8</ele>
        <time>2015-06-19T12:29:57Z</time>
      </trkpt>
      <trkpt lat="39.7356176" lon="3.0579876">
        <ele>94.6</ele>
        <time>2015-06-19T12:30:02Z</time>
      </trkpt>
      <trkpt lat="39.7356672" lon="3.0580253">
        <ele>94.8</ele>
        <time>2015-06-19T12:30:04Z</time>
      </trkpt>
      <trkpt lat="39.7356872" lon="3.0580441">
        <ele>95</ele>
        <time>2015-06-19T12:30:05Z</time>
      </trkpt>
      <trkpt lat="39.7357019" lon="3.058081">
        <ele>95</ele>
        <time>2015-06-19T12:30:06Z</time>
      </trkpt>
      <trkpt lat="39.7357472" lon="3.0582096">
        <ele>95.4</ele>
        <time>2015-06-19T12:30:10Z</time>
      </trkpt>
      <trkpt lat="39.7357857" lon="3.0582598">
        <ele>95.4</ele>
        <time>2015-06-19T12:30:12Z</time>
      </trkpt>
      <trkpt lat="39.7358642" lon="3.0583011">
        <ele>95.4</ele>
        <time>2015-06-19T12:30:16Z</time>
      </trkpt>
      <trkpt lat="39.7358921" lon="3.0582975">
        <ele>95.4</ele>
        <time>2015-06-19T12:30:17Z</time>
      </trkpt>
      <trkpt lat="39.736019" lon="3.0583498">
        <ele>95.4</ele>
        <time>2015-06-19T12:30:22Z</time>
      </trkpt>
      <trkpt lat="39.7360423" lon="3.0583661">
        <ele>95.4</ele>
        <time>2015-06-19T12:30:23Z</time>
      </trkpt>
      <trkpt lat="39.7361998" lon="3.0584852">
        <ele>95.6</ele>
        <time>2015-06-19T12:30:29Z</time>
      </trkpt>
      <trkpt lat="39.7363076" lon="3.0585902">
        <ele>96</ele>
        <time>2015-06-19T12:30:34Z</time>
      </trkpt>
      <trkpt lat="39.7363218" lon="3.0586068">
        <ele>96</ele>
        <time>2015-06-19T12:30:35Z</time>
      </trkpt>
      <trkpt lat="39.7363414" lon="3.0586354">
        <ele>96</ele>
        <time>2015-06-19T12:30:37Z</time>
      </trkpt>
      <trkpt lat="39.7363899" lon="3.0586583">
        <ele>96</ele>
        <time>2015-06-19T12:30:40Z</time>
      </trkpt>
      <trkpt lat="39.7364668" lon="3.0586654">
        <ele>96.2</ele>
        <time>2015-06-19T12:30:45Z</time>
      </trkpt>
      <trkpt lat="39.7365344" lon="3.0586217">
        <ele>96.2</ele>
        <time>2015-06-19T12:30:48Z</time>
      </trkpt>
      <trkpt lat="39.7365573" lon="3.0585971">
        <ele>96.2</ele>
        <time>2015-06-19T12:30:49Z</time>
      </trkpt>
      <trkpt lat="39.7366691" lon="3.0584541">
        <ele>96.2</ele>
        <time>2015-06-19T12:30:53Z</time>
      </trkpt>
      <trkpt lat="39.736846" lon="3.0582304">
        <ele>95.6</ele>
        <time>2015-06-19T12:30:59Z</time>
      </trkpt>
      <trkpt lat="39.7369149" lon="3.0581325">
        <ele>95</ele>
        <time>2015-06-19T12:31:02Z</time>
      </trkpt>
      <trkpt lat="39.7369544" lon="3.0580577">
        <ele>94.6</ele>
        <time>2015-06-19T12:31:05Z</time>
      </trkpt>
      <trkpt lat="39.7369566" lon="3.0580211">
        <ele>94.6</ele>
        <time>2015-06-19T12:31:06Z</time>
      </trkpt>
      <trkpt lat="39.7369992" lon="3.0579414">
        <ele>94.4</ele>
        <time>2015-06-19T12:31:10Z</time>
      </trkpt>
      <trkpt lat="39.7370648" lon="3.0579392">
        <ele>94.4</ele>
        <time>2015-06-19T12:31:14Z</time>
      </trkpt>
      <trkpt lat="39.7370911" lon="3.0579381">
        <ele>94.4</ele>
        <time>2015-06-19T12:31:15Z</time>
      </trkpt>
      <trkpt lat="39.737185" lon="3.0579649">
        <ele>94.6</ele>
        <time>2015-06-19T12:31:19Z</time>
      </trkpt>
      <trkpt lat="39.7371918" lon="3.0579855">
        <ele>94.8</ele>
        <time>2015-06-19T12:31:20Z</time>
      </trkpt>
      <trkpt lat="39.7372517" lon="3.0581556">
        <ele>95.2</ele>
        <time>2015-06-19T12:31:27Z</time>
      </trkpt>
      <trkpt lat="39.7373362" lon="3.0583694">
        <ele>95.8</ele>
        <time>2015-06-19T12:31:35Z</time>
      </trkpt>
      <trkpt lat="39.7373565" lon="3.0584761">
        <ele>96</ele>
        <time>2015-06-19T12:31:38Z</time>
      </trkpt>
      <trkpt lat="39.7373453" lon="3.0585498">
        <ele>96.2</ele>
        <time>2015-06-19T12:31:40Z</time>
      </trkpt>
      <trkpt lat="39.737345" lon="3.0587379">
        <ele>96.8</ele>
        <time>2015-06-19T12:31:45Z</time>
      </trkpt>
      <trkpt lat="39.7373151" lon="3.0588537">
        <ele>97</ele>
        <time>2015-06-19T12:31:49Z</time>
      </trkpt>
      <trkpt lat="39.7373037" lon="3.0588728">
        <ele>97.2</ele>
        <time>2015-06-19T12:31:50Z</time>
      </trkpt>
      <trkpt lat="39.737197" lon="3.0590059">
        <ele>97.8</ele>
        <time>2015-06-19T12:31:56Z</time>
      </trkpt>
      <trkpt lat="39.73712" lon="3.0590689">
        <ele>98.2</ele>
        <time>2015-06-19T12:31:59Z</time>
      </trkpt>
      <trkpt lat="39.7370571" lon="3.0591279">
        <ele>98.4</ele>
        <time>2015-06-19T12:32:03Z</time>
      </trkpt>
      <trkpt lat="39.7370564" lon="3.0591389">
        <ele>98.4</ele>
        <time>2015-06-19T12:32:04Z</time>
      </trkpt>
      <trkpt lat="39.7370582" lon="3.0591882">
        <ele>98.4</ele>
        <time>2015-06-19T12:32:07Z</time>
      </trkpt>
      <trkpt lat="39.7370645" lon="3.05922">
        <ele>98.4</ele>
        <time>2015-06-19T12:32:08Z</time>
      </trkpt>
      <trkpt lat="39.7371267" lon="3.0593585">
        <ele>98.6</ele>
        <time>2015-06-19T12:32:13Z</time>
      </trkpt>
      <trkpt lat="39.7372152" lon="3.0594781">
        <ele>99.2</ele>
        <time>2015-06-19T12:32:17Z</time>
      </trkpt>
      <trkpt lat="39.7372378" lon="3.0595129">
        <ele>99.2</ele>
        <time>2015-06-19T12:32:18Z</time>
      </trkpt>
      <trkpt lat="39.7373871" lon="3.059707">
        <ele>99.8</ele>
        <time>2015-06-19T12:32:25Z</time>
      </trkpt>
      <trkpt lat="39.7374161" lon="3.0597362">
        <ele>100</ele>
        <time>2015-06-19T12:32:29Z</time>
      </trkpt>
      <trkpt lat="39.7374214" lon="3.0597514">
        <ele>100</ele>
        <time>2015-06-19T12:32:39Z</time>
      </trkpt>
      <trkpt lat="39.7374107" lon="3.0597692">
        <ele>99.8</ele>
        <time>2015-06-19T12:32:45Z</time>
      </trkpt>
      <trkpt lat="39.7374222" lon="3.0597822">
        <ele>99.8</ele>
        <time>2015-06-19T12:32:50Z</time>
      </trkpt>
      <trkpt lat="39.7374279" lon="3.0597902">
        <ele>99.8</ele>
        <time>2015-06-19T12:32:58Z</time>
      </trkpt>
      <trkpt lat="39.7374413" lon="3.0597795">
        <ele>100</ele>
        <time>2015-06-19T12:33:08Z</time>
      </trkpt>
      <trkpt lat="39.7374467" lon="3.0597529">
        <ele>99.8</ele>
        <time>2015-06-19T12:33:13Z</time>
      </trkpt>
      <trkpt lat="39.7374383" lon="3.0597656">
        <ele>100</ele>
        <time>2015-06-19T12:33:15Z</time>
      </trkpt>
      <trkpt lat="39.7374336" lon="3.0597885">
        <ele>100.2</ele>
        <time>2015-06-19T12:33:24Z</time>
      </trkpt>
      <trkpt lat="39.7374389" lon="3.0598014">
        <ele>100.2</ele>
        <time>2015-06-19T12:33:31Z</time>
      </trkpt>
      <trkpt lat="39.7374368" lon="3.0598163">
        <ele>100</ele>
        <time>2015-06-19T12:33:38Z</time>
      </trkpt>
      <trkpt lat="39.7374329" lon="3.0598557">
        <ele>100.2</ele>
        <time>2015-06-19T12:33:47Z</time>
      </trkpt>
      <trkpt lat="39.7374337" lon="3.059894">
        <ele>100.2</ele>
        <time>2015-06-19T12:33:50Z</time>
      </trkpt>
      <trkpt lat="39.7374323" lon="3.0598983">
        <ele>100.2</ele>
        <time>2015-06-19T12:33:52Z</time>
      </trkpt>
      <trkpt lat="39.7374367" lon="3.0598888">
        <ele>100</ele>
        <time>2015-06-19T12:34:02Z</time>
      </trkpt>
      <trkpt lat="39.7375011" lon="3.0599281">
        <ele>99.8</ele>
        <time>2015-06-19T12:34:07Z</time>
      </trkpt>
      <trkpt lat="39.7376628" lon="3.0599633">
        <ele>99.6</ele>
        <time>2015-06-19T12:34:12Z</time>
      </trkpt>
      <trkpt lat="39.7377064" lon="3.0599554">
        <ele>99.2</ele>
        <time>2015-06-19T12:34:13Z</time>
      </trkpt>
      <trkpt lat="39.7378644" lon="3.0599376">
        <ele>98</ele>
        <time>2015-06-19T12:34:16Z</time>
      </trkpt>
      <trkpt lat="39.7379809" lon="3.0599358">
        <ele>97</ele>
        <time>2015-06-19T12:34:18Z</time>
      </trkpt>
      <trkpt lat="39.7381577" lon="3.0599244">
        <ele>95.4</ele>
        <time>2015-06-19T12:34:21Z</time>
      </trkpt>
      <trkpt lat="39.738205" lon="3.0599272">
        <ele>95</ele>
        <time>2015-06-19T12:34:22Z</time>
      </trkpt>
      <trkpt lat="39.7383024" lon="3.0599246">
        <ele>94.2</ele>
        <time>2015-06-19T12:34:24Z</time>
      </trkpt>
      <trkpt lat="39.7384304" lon="3.0599364">
        <ele>93</ele>
        <time>2015-06-19T12:34:27Z</time>
      </trkpt>
      <trkpt lat="39.7384644" lon="3.05995">
        <ele>93</ele>
        <time>2015-06-19T12:34:28Z</time>
      </trkpt>
      <trkpt lat="39.738493" lon="3.0600603">
        <ele>92.4</ele>
        <time>2015-06-19T12:34:31Z</time>
      </trkpt>
      <trkpt lat="39.7384305" lon="3.0600997">
        <ele>91.8</ele>
        <time>2015-06-19T12:34:33Z</time>
      </trkpt>
      <trkpt lat="39.7383871" lon="3.0600905">
        <ele>91.6</ele>
        <time>2015-06-19T12:34:34Z</time>
      </trkpt>
      <trkpt lat="39.7382879" lon="3.0600671">
        <ele>90.6</ele>
        <time>2015-06-19T12:34:36Z</time>
      </trkpt>
      <trkpt lat="39.7381399" lon="3.0600293">
        <ele>89.6</ele>
        <time>2015-06-19T12:34:39Z</time>
      </trkpt>
      <trkpt lat="39.7380976" lon="3.0600235">
        <ele>89.2</ele>
        <time>2015-06-19T12:34:40Z</time>
      </trkpt>
      <trkpt lat="39.7379896" lon="3.0600912">
        <ele>88.2</ele>
        <time>2015-06-19T12:34:43Z</time>
      </trkpt>
      <trkpt lat="39.7380216" lon="3.0602189">
        <ele>88</ele>
        <time>2015-06-19T12:34:46Z</time>
      </trkpt>
      <trkpt lat="39.7381679" lon="3.0602745">
        <ele>88</ele>
        <time>2015-06-19T12:34:49Z</time>
      </trkpt>
      <trkpt lat="39.7383625" lon="3.0603207">
        <ele>87</ele>
        <time>2015-06-19T12:34:52Z</time>
      </trkpt>
      <trkpt lat="39.7384381" lon="3.060337">
        <ele>86.6</ele>
        <time>2015-06-19T12:34:53Z</time>
      </trkpt>
      <trkpt lat="39.7385132" lon="3.0603545">
        <ele>86</ele>
        <time>2015-06-19T12:34:54Z</time>
      </trkpt>
      <trkpt lat="39.7386695" lon="3.0603952">
        <ele>84.6</ele>
        <time>2015-06-19T12:34:56Z</time>
      </trkpt>
      <trkpt lat="39.7388215" lon="3.0604389">
        <ele>83</ele>
        <time>2015-06-19T12:34:58Z</time>
      </trkpt>
      <trkpt lat="39.738967" lon="3.060481">
        <ele>81.6</ele>
        <time>2015-06-19T12:35:00Z</time>
      </trkpt>
      <trkpt lat="39.7390394" lon="3.0605059">
        <ele>81.2</ele>
        <time>2015-06-19T12:35:01Z</time>
      </trkpt>
      <trkpt lat="39.7391142" lon="3.0605374">
        <ele>80.4</ele>
        <time>2015-06-19T12:35:02Z</time>
      </trkpt>
      <trkpt lat="39.7392607" lon="3.0606183">
        <ele>79.2</ele>
        <time>2015-06-19T12:35:04Z</time>
      </trkpt>
      <trkpt lat="39.7394094" lon="3.0607026">
        <ele>78.4</ele>
        <time>2015-06-19T12:35:06Z</time>
      </trkpt>
      <trkpt lat="39.739479" lon="3.0607408">
        <ele>77.8</ele>
        <time>2015-06-19T12:35:07Z</time>
      </trkpt>
      <trkpt lat="39.7396045" lon="3.0607977">
        <ele>76</ele>
        <time>2015-06-19T12:35:09Z</time>
      </trkpt>
      <trkpt lat="39.7397203" lon="3.0608327">
        <ele>74.8</ele>
        <time>2015-06-19T12:35:11Z</time>
      </trkpt>
      <trkpt lat="39.7398883" lon="3.060873">
        <ele>74.4</ele>
        <time>2015-06-19T12:35:15Z</time>
      </trkpt>
      <trkpt lat="39.7399866" lon="3.0608575">
        <ele>74</ele>
        <time>2015-06-19T12:35:20Z</time>
      </trkpt>
      <trkpt lat="39.7399902" lon="3.060859">
        <ele>73.8</ele>
        <time>2015-06-19T12:35:21Z</time>
      </trkpt>
      <trkpt lat="39.7399887" lon="3.0608549">
        <ele>73.2</ele>
        <time>2015-06-19T12:35:26Z</time>
      </trkpt>
      <trkpt lat="39.7400139" lon="3.0609225">
        <ele>73</ele>
        <time>2015-06-19T12:35:34Z</time>
      </trkpt>
      <trkpt lat="39.7400371" lon="3.0609365">
        <ele>73</ele>
        <time>2015-06-19T12:35:35Z</time>
      </trkpt>
      <trkpt lat="39.7401553" lon="3.060986">
        <ele>72.6</ele>
        <time>2015-06-19T12:35:38Z</time>
      </trkpt>
      <trkpt lat="39.7403625" lon="3.0610702">
        <ele>71.4</ele>
        <time>2015-06-19T12:35:42Z</time>
      </trkpt>
      <trkpt lat="39.7404133" lon="3.0610855">
        <ele>71</ele>
        <time>2015-06-19T12:35:43Z</time>
      </trkpt>
      <trkpt lat="39.7405108" lon="3.0611295">
        <ele>70</ele>
        <time>2015-06-19T12:35:45Z</time>
      </trkpt>
      <trkpt lat="39.7405524" lon="3.0611695">
        <ele>69.8</ele>
        <time>2015-06-19T12:35:46Z</time>
      </trkpt>
      <trkpt lat="39.7405823" lon="3.0612314">
        <ele>69.6</ele>
        <time>2015-06-19T12:35:47Z</time>
      </trkpt>
      <trkpt lat="39.7406074" lon="3.0613791">
        <ele>69</ele>
        <time>2015-06-19T12:35:49Z</time>
      </trkpt>
      <trkpt lat="39.7406135" lon="3.0614547">
        <ele>68.8</ele>
        <time>2015-06-19T12:35:50Z</time>
      </trkpt>
      <trkpt lat="39.7406186" lon="3.0615405">
        <ele>68.6</ele>
        <time>2015-06-19T12:35:51Z</time>
      </trkpt>
      <trkpt lat="39.7406249" lon="3.0617029">
        <ele>68</ele>
        <time>2015-06-19T12:35:53Z</time>
      </trkpt>
      <trkpt lat="39.740626" lon="3.0621303">
        <ele>66.8</ele>
        <time>2015-06-19T12:35:58Z</time>
      </trkpt>
      <trkpt lat="39.7406238" lon="3.0623997">
        <ele>65.8</ele>
        <time>2015-06-19T12:36:01Z</time>
      </trkpt>
      <trkpt lat="39.7406041" lon="3.0625792">
        <ele>65.6</ele>
        <time>2015-06-19T12:36:03Z</time>
      </trkpt>
      <trkpt lat="39.7405584" lon="3.0627421">
        <ele>65.4</ele>
        <time>2015-06-19T12:36:05Z</time>
      </trkpt>
      <trkpt lat="39.7403643" lon="3.0633069">
        <ele>65.4</ele>
        <time>2015-06-19T12:36:12Z</time>
      </trkpt>
      <trkpt lat="39.7401054" lon="3.0638733">
        <ele>65</ele>
        <time>2015-06-19T12:36:20Z</time>
      </trkpt>
      <trkpt lat="39.7400717" lon="3.0640448">
        <ele>64.8</ele>
        <time>2015-06-19T12:36:22Z</time>
      </trkpt>
      <trkpt lat="39.740075" lon="3.0642182">
        <ele>64.6</ele>
        <time>2015-06-19T12:36:24Z</time>
      </trkpt>
      <trkpt lat="39.7400956" lon="3.0644069">
        <ele>64.2</ele>
        <time>2015-06-19T12:36:26Z</time>
      </trkpt>
      <trkpt lat="39.7401331" lon="3.0645829">
        <ele>63.6</ele>
        <time>2015-06-19T12:36:28Z</time>
      </trkpt>
      <trkpt lat="39.7401553" lon="3.0646711">
        <ele>63.4</ele>
        <time>2015-06-19T12:36:29Z</time>
      </trkpt>
      <trkpt lat="39.7403664" lon="3.065378">
        <ele>63.4</ele>
        <time>2015-06-19T12:36:37Z</time>
      </trkpt>
      <trkpt lat="39.7404955" lon="3.0660656">
        <ele>64</ele>
        <time>2015-06-19T12:36:45Z</time>
      </trkpt>
      <trkpt lat="39.7405566" lon="3.0667638">
        <ele>64</ele>
        <time>2015-06-19T12:36:53Z</time>
      </trkpt>
      <trkpt lat="39.7405609" lon="3.0668454">
        <ele>64</ele>
        <time>2015-06-19T12:36:54Z</time>
      </trkpt>
      <trkpt lat="39.7405863" lon="3.0670114">
        <ele>63.8</ele>
        <time>2015-06-19T12:36:56Z</time>
      </trkpt>
      <trkpt lat="39.7406578" lon="3.0671391">
        <ele>63.6</ele>
        <time>2015-06-19T12:36:58Z</time>
      </trkpt>
      <trkpt lat="39.7408024" lon="3.0672888">
        <ele>63.6</ele>
        <time>2015-06-19T12:37:01Z</time>
      </trkpt>
      <trkpt lat="39.740882" lon="3.0673957">
        <ele>63.6</ele>
        <time>2015-06-19T12:37:03Z</time>
      </trkpt>
      <trkpt lat="39.7409397" lon="3.0675036">
        <ele>63.4</ele>
        <time>2015-06-19T12:37:05Z</time>
      </trkpt>
      <trkpt lat="39.7410118" lon="3.0677223">
        <ele>63.6</ele>
        <time>2015-06-19T12:37:08Z</time>
      </trkpt>
      <trkpt lat="39.7410406" lon="3.0678589">
        <ele>63.4</ele>
        <time>2015-06-19T12:37:10Z</time>
      </trkpt>
      <trkpt lat="39.7411224" lon="3.0681457">
        <ele>63.8</ele>
        <time>2015-06-19T12:37:14Z</time>
      </trkpt>
      <trkpt lat="39.7412064" lon="3.068425">
        <ele>64.6</ele>
        <time>2015-06-19T12:37:18Z</time>
      </trkpt>
      <trkpt lat="39.741359" lon="3.0688391">
        <ele>65.4</ele>
        <time>2015-06-19T12:37:24Z</time>
      </trkpt>
      <trkpt lat="39.7415167" lon="3.0693662">
        <ele>65.6</ele>
        <time>2015-06-19T12:37:31Z</time>
      </trkpt>
      <trkpt lat="39.7415611" lon="3.0697943">
        <ele>66.2</ele>
        <time>2015-06-19T12:37:37Z</time>
      </trkpt>
      <trkpt lat="39.7415677" lon="3.0699552">
        <ele>66.8</ele>
        <time>2015-06-19T12:37:40Z</time>
      </trkpt>
      <trkpt lat="39.7415681" lon="3.0701073">
        <ele>67.6</ele>
        <time>2015-06-19T12:37:43Z</time>
      </trkpt>
      <trkpt lat="39.741566" lon="3.0701544">
        <ele>68</ele>
        <time>2015-06-19T12:37:44Z</time>
      </trkpt>
      <trkpt lat="39.7414903" lon="3.0703457">
        <ele>69.2</ele>
        <time>2015-06-19T12:37:49Z</time>
      </trkpt>
      <trkpt lat="39.7413164" lon="3.0704218">
        <ele>69.8</ele>
        <time>2015-06-19T12:37:54Z</time>
      </trkpt>
      <trkpt lat="39.7411994" lon="3.0704527">
        <ele>70.2</ele>
        <time>2015-06-19T12:37:57Z</time>
      </trkpt>
      <trkpt lat="39.7410903" lon="3.070479">
        <ele>71.6</ele>
        <time>2015-06-19T12:38:00Z</time>
      </trkpt>
      <trkpt lat="39.7409875" lon="3.0705335">
        <ele>73</ele>
        <time>2015-06-19T12:38:03Z</time>
      </trkpt>
      <trkpt lat="39.7409137" lon="3.0706858">
        <ele>74</ele>
        <time>2015-06-19T12:38:07Z</time>
      </trkpt>
      <trkpt lat="39.7409706" lon="3.07085">
        <ele>74.6</ele>
        <time>2015-06-19T12:38:11Z</time>
      </trkpt>
      <trkpt lat="39.7410365" lon="3.0708964">
        <ele>75.2</ele>
        <time>2015-06-19T12:38:13Z</time>
      </trkpt>
      <trkpt lat="39.7410956" lon="3.070936">
        <ele>75.8</ele>
        <time>2015-06-19T12:38:15Z</time>
      </trkpt>
      <trkpt lat="39.7411552" lon="3.0709699">
        <ele>76.4</ele>
        <time>2015-06-19T12:38:17Z</time>
      </trkpt>
      <trkpt lat="39.7412732" lon="3.0710475">
        <ele>77.6</ele>
        <time>2015-06-19T12:38:21Z</time>
      </trkpt>
      <trkpt lat="39.741332" lon="3.0710883">
        <ele>78.2</ele>
        <time>2015-06-19T12:38:23Z</time>
      </trkpt>
      <trkpt lat="39.741426" lon="3.071155">
        <ele>78.8</ele>
        <time>2015-06-19T12:38:26Z</time>
      </trkpt>
      <trkpt lat="39.7416286" lon="3.0713138">
        <ele>79.8</ele>
        <time>2015-06-19T12:38:33Z</time>
      </trkpt>
      <trkpt lat="39.7417082" lon="3.0713789">
        <ele>80.8</ele>
        <time>2015-06-19T12:38:36Z</time>
      </trkpt>
      <trkpt lat="39.7418117" lon="3.0714571">
        <ele>82</ele>
        <time>2015-06-19T12:38:40Z</time>
      </trkpt>
      <trkpt lat="39.7418984" lon="3.0715221">
        <ele>82.6</ele>
        <time>2015-06-19T12:38:43Z</time>
      </trkpt>
      <trkpt lat="39.7419833" lon="3.0715819">
        <ele>83</ele>
        <time>2015-06-19T12:38:46Z</time>
      </trkpt>
      <trkpt lat="39.7420614" lon="3.0716142">
        <ele>83.4</ele>
        <time>2015-06-19T12:38:48Z</time>
      </trkpt>
      <trkpt lat="39.7424073" lon="3.0717716">
        <ele>83.8</ele>
        <time>2015-06-19T12:38:57Z</time>
      </trkpt>
      <trkpt lat="39.7427069" lon="3.0719294">
        <ele>83.4</ele>
        <time>2015-06-19T12:39:03Z</time>
      </trkpt>
      <trkpt lat="39.7429853" lon="3.0720951">
        <ele>82.2</ele>
        <time>2015-06-19T12:39:08Z</time>
      </trkpt>
      <trkpt lat="39.7430386" lon="3.0721379">
        <ele>81.8</ele>
        <time>2015-06-19T12:39:09Z</time>
      </trkpt>
      <trkpt lat="39.7431525" lon="3.0722464">
        <ele>80.8</ele>
        <time>2015-06-19T12:39:11Z</time>
      </trkpt>
      <trkpt lat="39.7432077" lon="3.0723049">
        <ele>80.4</ele>
        <time>2015-06-19T12:39:12Z</time>
      </trkpt>
      <trkpt lat="39.7433098" lon="3.0724469">
        <ele>79.4</ele>
        <time>2015-06-19T12:39:14Z</time>
      </trkpt>
      <trkpt lat="39.743353" lon="3.0725237">
        <ele>79.2</ele>
        <time>2015-06-19T12:39:15Z</time>
      </trkpt>
      <trkpt lat="39.7434839" lon="3.0727917">
        <ele>78.2</ele>
        <time>2015-06-19T12:39:18Z</time>
      </trkpt>
      <trkpt lat="39.7435284" lon="3.0728816">
        <ele>77.6</ele>
        <time>2015-06-19T12:39:19Z</time>
      </trkpt>
      <trkpt lat="39.7436167" lon="3.0730673">
        <ele>76.6</ele>
        <time>2015-06-19T12:39:21Z</time>
      </trkpt>
      <trkpt lat="39.7438832" lon="3.0736268">
        <ele>75.6</ele>
        <time>2015-06-19T12:39:27Z</time>
      </trkpt>
      <trkpt lat="39.7439251" lon="3.0737094">
        <ele>75.2</ele>
        <time>2015-06-19T12:39:28Z</time>
      </trkpt>
      <trkpt lat="39.7439996" lon="3.0738586">
        <ele>74.2</ele>
        <time>2015-06-19T12:39:30Z</time>
      </trkpt>
      <trkpt lat="39.744057" lon="3.073981">
        <ele>73.6</ele>
        <time>2015-06-19T12:39:32Z</time>
      </trkpt>
      <trkpt lat="39.7441097" lon="3.0741601">
        <ele>74.4</ele>
        <time>2015-06-19T12:39:36Z</time>
      </trkpt>
      <trkpt lat="39.7441015" lon="3.0742127">
        <ele>74.6</ele>
        <time>2015-06-19T12:39:37Z</time>
      </trkpt>
      <trkpt lat="39.744055" lon="3.0743201">
        <ele>74.4</ele>
        <time>2015-06-19T12:39:39Z</time>
      </trkpt>
      <trkpt lat="39.7439477" lon="3.0745049">
        <ele>73.6</ele>
        <time>2015-06-19T12:39:42Z</time>
      </trkpt>
      <trkpt lat="39.7438738" lon="3.0746423">
        <ele>73</ele>
        <time>2015-06-19T12:39:44Z</time>
      </trkpt>
      <trkpt lat="39.7437525" lon="3.0748644">
        <ele>71.8</ele>
        <time>2015-06-19T12:39:47Z</time>
      </trkpt>
      <trkpt lat="39.7435785" lon="3.0751591">
        <ele>71.6</ele>
        <time>2015-06-19T12:39:51Z</time>
      </trkpt>
      <trkpt lat="39.7433742" lon="3.0755012">
        <ele>70.8</ele>
        <time>2015-06-19T12:39:56Z</time>
      </trkpt>
      <trkpt lat="39.7432338" lon="3.075757">
        <ele>69.8</ele>
        <time>2015-06-19T12:40:00Z</time>
      </trkpt>
      <trkpt lat="39.7429204" lon="3.0763043">
        <ele>70.6</ele>
        <time>2015-06-19T12:40:09Z</time>
      </trkpt>
      <trkpt lat="39.7428859" lon="3.0763648">
        <ele>70.8</ele>
        <time>2015-06-19T12:40:10Z</time>
      </trkpt>
      <trkpt lat="39.7427649" lon="3.0766235">
        <ele>71</ele>
        <time>2015-06-19T12:40:14Z</time>
      </trkpt>
      <trkpt lat="39.7427686" lon="3.0766947">
        <ele>71</ele>
        <time>2015-06-19T12:40:15Z</time>
      </trkpt>
      <trkpt lat="39.7428897" lon="3.0768694">
        <ele>71.2</ele>
        <time>2015-06-19T12:40:18Z</time>
      </trkpt>
      <trkpt lat="39.7430045" lon="3.076962">
        <ele>71.2</ele>
        <time>2015-06-19T12:40:20Z</time>
      </trkpt>
      <trkpt lat="39.7432608" lon="3.0771697">
        <ele>69.6</ele>
        <time>2015-06-19T12:40:24Z</time>
      </trkpt>
      <trkpt lat="39.7434655" lon="3.0773369">
        <ele>68</ele>
        <time>2015-06-19T12:40:27Z</time>
      </trkpt>
      <trkpt lat="39.7437436" lon="3.0775689">
        <ele>66.8</ele>
        <time>2015-06-19T12:40:31Z</time>
      </trkpt>
      <trkpt lat="39.7438155" lon="3.0776297">
        <ele>66.2</ele>
        <time>2015-06-19T12:40:32Z</time>
      </trkpt>
      <trkpt lat="39.7438901" lon="3.07769">
        <ele>65.6</ele>
        <time>2015-06-19T12:40:33Z</time>
      </trkpt>
      <trkpt lat="39.7440321" lon="3.0778084">
        <ele>64.2</ele>
        <time>2015-06-19T12:40:35Z</time>
      </trkpt>
      <trkpt lat="39.7441855" lon="3.0779363">
        <ele>62.8</ele>
        <time>2015-06-19T12:40:37Z</time>
      </trkpt>
      <trkpt lat="39.7443954" lon="3.0781102">
        <ele>61.8</ele>
        <time>2015-06-19T12:40:40Z</time>
      </trkpt>
      <trkpt lat="39.7444761" lon="3.0781798">
        <ele>61.4</ele>
        <time>2015-06-19T12:40:41Z</time>
      </trkpt>
      <trkpt lat="39.7447683" lon="3.0784138">
        <ele>60.8</ele>
        <time>2015-06-19T12:40:45Z</time>
      </trkpt>
      <trkpt lat="39.7450928" lon="3.0786449">
        <ele>59.6</ele>
        <time>2015-06-19T12:40:49Z</time>
      </trkpt>
      <trkpt lat="39.7452521" lon="3.078756">
        <ele>58.4</ele>
        <time>2015-06-19T12:40:51Z</time>
      </trkpt>
      <trkpt lat="39.7454977" lon="3.0789254">
        <ele>57.4</ele>
        <time>2015-06-19T12:40:54Z</time>
      </trkpt>
      <trkpt lat="39.7457583" lon="3.0791038">
        <ele>56.2</ele>
        <time>2015-06-19T12:40:57Z</time>
      </trkpt>
      <trkpt lat="39.7458389" lon="3.0791583">
        <ele>55.8</ele>
        <time>2015-06-19T12:40:58Z</time>
      </trkpt>
      <trkpt lat="39.7461042" lon="3.0793339">
        <ele>55</ele>
        <time>2015-06-19T12:41:01Z</time>
      </trkpt>
      <trkpt lat="39.7463581" lon="3.0795046">
        <ele>53.6</ele>
        <time>2015-06-19T12:41:04Z</time>
      </trkpt>
      <trkpt lat="39.7465338" lon="3.0796228">
        <ele>52.2</ele>
        <time>2015-06-19T12:41:06Z</time>
      </trkpt>
      <trkpt lat="39.7466151" lon="3.0796772">
        <ele>51.6</ele>
        <time>2015-06-19T12:41:07Z</time>
      </trkpt>
      <trkpt lat="39.7467675" lon="3.0797804">
        <ele>51.2</ele>
        <time>2015-06-19T12:41:09Z</time>
      </trkpt>
      <trkpt lat="39.7471478" lon="3.080011">
        <ele>52.2</ele>
        <time>2015-06-19T12:41:14Z</time>
      </trkpt>
      <trkpt lat="39.7472188" lon="3.0800505">
        <ele>52.2</ele>
        <time>2015-06-19T12:41:15Z</time>
      </trkpt>
      <trkpt lat="39.7477306" lon="3.0803299">
        <ele>51.8</ele>
        <time>2015-06-19T12:41:22Z</time>
      </trkpt>
      <trkpt lat="39.7478856" lon="3.0804096">
        <ele>51.4</ele>
        <time>2015-06-19T12:41:24Z</time>
      </trkpt>
      <trkpt lat="39.7481871" lon="3.0805503">
        <ele>54.4</ele>
        <time>2015-06-19T12:41:28Z</time>
      </trkpt>
      <trkpt lat="39.7482671" lon="3.080589">
        <ele>55.6</ele>
        <time>2015-06-19T12:41:29Z</time>
      </trkpt>
      <trkpt lat="39.7483395" lon="3.0806235">
        <ele>56.8</ele>
        <time>2015-06-19T12:41:30Z</time>
      </trkpt>
      <trkpt lat="39.7485695" lon="3.0807398">
        <ele>57</ele>
        <time>2015-06-19T12:41:33Z</time>
      </trkpt>
      <trkpt lat="39.749089" lon="3.0810045">
        <ele>55.8</ele>
        <time>2015-06-19T12:41:40Z</time>
      </trkpt>
      <trkpt lat="39.7492528" lon="3.0810921">
        <ele>55.8</ele>
        <time>2015-06-19T12:41:42Z</time>
      </trkpt>
      <trkpt lat="39.7493262" lon="3.0811341">
        <ele>55.4</ele>
        <time>2015-06-19T12:41:43Z</time>
      </trkpt>
      <trkpt lat="39.7496184" lon="3.0813207">
        <ele>54.6</ele>
        <time>2015-06-19T12:41:47Z</time>
      </trkpt>
      <trkpt lat="39.7499057" lon="3.081499">
        <ele>54</ele>
        <time>2015-06-19T12:41:51Z</time>
      </trkpt>
      <trkpt lat="39.7504544" lon="3.0818546">
        <ele>53.8</ele>
        <time>2015-06-19T12:41:59Z</time>
      </trkpt>
      <trkpt lat="39.7505146" lon="3.081895">
        <ele>54</ele>
        <time>2015-06-19T12:42:00Z</time>
      </trkpt>
      <trkpt lat="39.7509656" lon="3.0821573">
        <ele>53.8</ele>
        <time>2015-06-19T12:42:07Z</time>
      </trkpt>
      <trkpt lat="39.7512405" lon="3.0823003">
        <ele>53.4</ele>
        <time>2015-06-19T12:42:11Z</time>
      </trkpt>
      <trkpt lat="39.7515208" lon="3.0824493">
        <ele>53.2</ele>
        <time>2015-06-19T12:42:15Z</time>
      </trkpt>
      <trkpt lat="39.7519746" lon="3.0826844">
        <ele>52.4</ele>
        <time>2015-06-19T12:42:21Z</time>
      </trkpt>
      <trkpt lat="39.7522015" lon="3.0828009">
        <ele>51.6</ele>
        <time>2015-06-19T12:42:24Z</time>
      </trkpt>
      <trkpt lat="39.7523557" lon="3.082883">
        <ele>51.2</ele>
        <time>2015-06-19T12:42:26Z</time>
      </trkpt>
      <trkpt lat="39.7527351" lon="3.0830926">
        <ele>50</ele>
        <time>2015-06-19T12:42:31Z</time>
      </trkpt>
      <trkpt lat="39.7528341" lon="3.0831455">
        <ele>49.6</ele>
        <time>2015-06-19T12:42:32Z</time>
      </trkpt>
      <trkpt lat="39.7530711" lon="3.0832741">
        <ele>48.8</ele>
        <time>2015-06-19T12:42:35Z</time>
      </trkpt>
      <trkpt lat="39.7534442" lon="3.0834925">
        <ele>47.6</ele>
        <time>2015-06-19T12:42:40Z</time>
      </trkpt>
      <trkpt lat="39.7535247" lon="3.0835435">
        <ele>47.4</ele>
        <time>2015-06-19T12:42:41Z</time>
      </trkpt>
      <trkpt lat="39.7540768" lon="3.0838954">
        <ele>46.8</ele>
        <time>2015-06-19T12:42:49Z</time>
      </trkpt>
      <trkpt lat="39.7542112" lon="3.0839732">
        <ele>46.4</ele>
        <time>2015-06-19T12:42:51Z</time>
      </trkpt>
      <trkpt lat="39.7544044" lon="3.0841006">
        <ele>45.8</ele>
        <time>2015-06-19T12:42:54Z</time>
      </trkpt>
      <trkpt lat="39.7545105" lon="3.0842154">
        <ele>45.6</ele>
        <time>2015-06-19T12:42:56Z</time>
      </trkpt>
      <trkpt lat="39.7546084" lon="3.0843301">
        <ele>45.2</ele>
        <time>2015-06-19T12:42:58Z</time>
      </trkpt>
      <trkpt lat="39.7549902" lon="3.0847597">
        <ele>45.6</ele>
        <time>2015-06-19T12:43:05Z</time>
      </trkpt>
      <trkpt lat="39.7554214" lon="3.0852613">
        <ele>45.6</ele>
        <time>2015-06-19T12:43:13Z</time>
      </trkpt>
      <trkpt lat="39.7558329" lon="3.0857363">
        <ele>45.6</ele>
        <time>2015-06-19T12:43:21Z</time>
      </trkpt>
      <trkpt lat="39.7559394" lon="3.0858526">
        <ele>45.4</ele>
        <time>2015-06-19T12:43:23Z</time>
      </trkpt>
      <trkpt lat="39.7563633" lon="3.0863385">
        <ele>44.4</ele>
        <time>2015-06-19T12:43:31Z</time>
      </trkpt>
      <trkpt lat="39.7564711" lon="3.0864608">
        <ele>44.6</ele>
        <time>2015-06-19T12:43:33Z</time>
      </trkpt>
      <trkpt lat="39.7567294" lon="3.0867555">
        <ele>44.2</ele>
        <time>2015-06-19T12:43:38Z</time>
      </trkpt>
      <trkpt lat="39.7570272" lon="3.0871104">
        <ele>43</ele>
        <time>2015-06-19T12:43:44Z</time>
      </trkpt>
      <trkpt lat="39.7573911" lon="3.0875237">
        <ele>42</ele>
        <time>2015-06-19T12:43:52Z</time>
      </trkpt>
      <trkpt lat="39.757726" lon="3.0879122">
        <ele>41.4</ele>
        <time>2015-06-19T12:43:59Z</time>
      </trkpt>
      <trkpt lat="39.7580841" lon="3.0883184">
        <ele>40.8</ele>
        <time>2015-06-19T12:44:06Z</time>
      </trkpt>
      <trkpt lat="39.7582842" lon="3.0885409">
        <ele>40</ele>
        <time>2015-06-19T12:44:10Z</time>
      </trkpt>
      <trkpt lat="39.758496" lon="3.088782">
        <ele>39.6</ele>
        <time>2015-06-19T12:44:14Z</time>
      </trkpt>
      <trkpt lat="39.7588673" lon="3.0891979">
        <ele>38.8</ele>
        <time>2015-06-19T12:44:21Z</time>
      </trkpt>
      <trkpt lat="39.7589163" lon="3.0892512">
        <ele>38.4</ele>
        <time>2015-06-19T12:44:22Z</time>
      </trkpt>
      <trkpt lat="39.7592461" lon="3.0896415">
        <ele>38</ele>
        <time>2015-06-19T12:44:29Z</time>
      </trkpt>
      <trkpt lat="39.7594959" lon="3.0899215">
        <ele>37.2</ele>
        <time>2015-06-19T12:44:35Z</time>
      </trkpt>
      <trkpt lat="39.7595423" lon="3.0899738">
        <ele>37.2</ele>
        <time>2015-06-19T12:44:36Z</time>
      </trkpt>
      <trkpt lat="39.7598877" lon="3.0903929">
        <ele>36.4</ele>
        <time>2015-06-19T12:44:44Z</time>
      </trkpt>
      <trkpt lat="39.7600118" lon="3.0905354">
        <ele>36.2</ele>
        <time>2015-06-19T12:44:47Z</time>
      </trkpt>
      <trkpt lat="39.7602008" lon="3.0907673">
        <ele>36</ele>
        <time>2015-06-19T12:44:52Z</time>
      </trkpt>
      <trkpt lat="39.760524" lon="3.0911554">
        <ele>35.6</ele>
        <time>2015-06-19T12:44:59Z</time>
      </trkpt>
      <trkpt lat="39.7608594" lon="3.0915674">
        <ele>35.2</ele>
        <time>2015-06-19T12:45:06Z</time>
      </trkpt>
      <trkpt lat="39.7610441" lon="3.0917883">
        <ele>34.6</ele>
        <time>2015-06-19T12:45:10Z</time>
      </trkpt>
      <trkpt lat="39.7614755" lon="3.0922808">
        <ele>34.4</ele>
        <time>2015-06-19T12:45:19Z</time>
      </trkpt>
      <trkpt lat="39.7615733" lon="3.092393">
        <ele>34</ele>
        <time>2015-06-19T12:45:21Z</time>
      </trkpt>
      <trkpt lat="39.7619881" lon="3.0928697">
        <ele>33.6</ele>
        <time>2015-06-19T12:45:29Z</time>
      </trkpt>
      <trkpt lat="39.7620915" lon="3.0929887">
        <ele>33.4</ele>
        <time>2015-06-19T12:45:31Z</time>
      </trkpt>
      <trkpt lat="39.7625237" lon="3.0934781">
        <ele>32.8</ele>
        <time>2015-06-19T12:45:39Z</time>
      </trkpt>
      <trkpt lat="39.7625673" lon="3.093531">
        <ele>33</ele>
        <time>2015-06-19T12:45:40Z</time>
      </trkpt>
      <trkpt lat="39.7629928" lon="3.0940373">
        <ele>33</ele>
        <time>2015-06-19T12:45:49Z</time>
      </trkpt>
      <trkpt lat="39.7634033" lon="3.0945281">
        <ele>32.2</ele>
        <time>2015-06-19T12:45:58Z</time>
      </trkpt>
      <trkpt lat="39.7634518" lon="3.0945875">
        <ele>32</ele>
        <time>2015-06-19T12:45:59Z</time>
      </trkpt>
      <trkpt lat="39.7634959" lon="3.09464">
        <ele>31.6</ele>
        <time>2015-06-19T12:46:00Z</time>
      </trkpt>
      <trkpt lat="39.7639114" lon="3.0951477">
        <ele>31</ele>
        <time>2015-06-19T12:46:09Z</time>
      </trkpt>
      <trkpt lat="39.763994" lon="3.095253">
        <ele>30.6</ele>
        <time>2015-06-19T12:46:11Z</time>
      </trkpt>
      <trkpt lat="39.7641888" lon="3.0954979">
        <ele>30.6</ele>
        <time>2015-06-19T12:46:16Z</time>
      </trkpt>
      <trkpt lat="39.7643239" lon="3.0956222">
        <ele>30.8</ele>
        <time>2015-06-19T12:46:19Z</time>
      </trkpt>
      <trkpt lat="39.7644347" lon="3.0956554">
        <ele>30.6</ele>
        <time>2015-06-19T12:46:21Z</time>
      </trkpt>
      <trkpt lat="39.76455" lon="3.0956734">
        <ele>30.6</ele>
        <time>2015-06-19T12:46:23Z</time>
      </trkpt>
      <trkpt lat="39.7647642" lon="3.0957025">
        <ele>30.4</ele>
        <time>2015-06-19T12:46:27Z</time>
      </trkpt>
      <trkpt lat="39.7648006" lon="3.0957139">
        <ele>30.4</ele>
        <time>2015-06-19T12:46:28Z</time>
      </trkpt>
      <trkpt lat="39.764888" lon="3.0957899">
        <ele>30</ele>
        <time>2015-06-19T12:46:31Z</time>
      </trkpt>
      <trkpt lat="39.7649313" lon="3.0958682">
        <ele>30</ele>
        <time>2015-06-19T12:46:33Z</time>
      </trkpt>
      <trkpt lat="39.76501" lon="3.0959433">
        <ele>30.4</ele>
        <time>2015-06-19T12:46:36Z</time>
      </trkpt>
      <trkpt lat="39.7650566" lon="3.0959946">
        <ele>30.4</ele>
        <time>2015-06-19T12:46:40Z</time>
      </trkpt>
      <trkpt lat="39.7650552" lon="3.095993">
        <ele>29.4</ele>
        <time>2015-06-19T12:46:45Z</time>
      </trkpt>
      <trkpt lat="39.765054" lon="3.095992">
        <ele>29.2</ele>
        <time>2015-06-19T12:46:48Z</time>
      </trkpt>
      <trkpt lat="39.7650545" lon="3.0959889">
        <ele>28.6</ele>
        <time>2015-06-19T12:47:16Z</time>
      </trkpt>
      <trkpt lat="39.7650768" lon="3.0959931">
        <ele>28.8</ele>
        <time>2015-06-19T12:47:31Z</time>
      </trkpt>
      <trkpt lat="39.765091" lon="3.0960111">
        <ele>28.8</ele>
        <time>2015-06-19T12:47:32Z</time>
      </trkpt>
      <trkpt lat="39.7651376" lon="3.0961191">
        <ele>29.2</ele>
        <time>2015-06-19T12:47:35Z</time>
      </trkpt>
      <trkpt lat="39.7651566" lon="3.096173">
        <ele>29.4</ele>
        <time>2015-06-19T12:47:36Z</time>
      </trkpt>
      <trkpt lat="39.765243" lon="3.0964109">
        <ele>30</ele>
        <time>2015-06-19T12:47:40Z</time>
      </trkpt>
      <trkpt lat="39.7653718" lon="3.0967536">
        <ele>30.4</ele>
        <time>2015-06-19T12:47:45Z</time>
      </trkpt>
      <trkpt lat="39.7654774" lon="3.0970369">
        <ele>30.6</ele>
        <time>2015-06-19T12:47:49Z</time>
      </trkpt>
      <trkpt lat="39.7655079" lon="3.0971875">
        <ele>30.6</ele>
        <time>2015-06-19T12:47:51Z</time>
      </trkpt>
      <trkpt lat="39.7655261" lon="3.0974103">
        <ele>30.8</ele>
        <time>2015-06-19T12:47:54Z</time>
      </trkpt>
      <trkpt lat="39.7655905" lon="3.0981774">
        <ele>30.6</ele>
        <time>2015-06-19T12:48:04Z</time>
      </trkpt>
      <trkpt lat="39.765604" lon="3.0983412">
        <ele>30.4</ele>
        <time>2015-06-19T12:48:06Z</time>
      </trkpt>
      <trkpt lat="39.7655995" lon="3.0989789">
        <ele>30.2</ele>
        <time>2015-06-19T12:48:14Z</time>
      </trkpt>
      <trkpt lat="39.7655399" lon="3.0997029">
        <ele>30.4</ele>
        <time>2015-06-19T12:48:23Z</time>
      </trkpt>
      <trkpt lat="39.7655163" lon="3.0998513">
        <ele>30.4</ele>
        <time>2015-06-19T12:48:25Z</time>
      </trkpt>
      <trkpt lat="39.7653561" lon="3.1004771">
        <ele>29.8</ele>
        <time>2015-06-19T12:48:33Z</time>
      </trkpt>
      <trkpt lat="39.7651572" lon="3.1011627">
        <ele>30.2</ele>
        <time>2015-06-19T12:48:42Z</time>
      </trkpt>
      <trkpt lat="39.7649824" lon="3.1018906">
        <ele>30</ele>
        <time>2015-06-19T12:48:51Z</time>
      </trkpt>
      <trkpt lat="39.7648126" lon="3.1025854">
        <ele>30.8</ele>
        <time>2015-06-19T12:49:00Z</time>
      </trkpt>
      <trkpt lat="39.7647933" lon="3.1026614">
        <ele>30.6</ele>
        <time>2015-06-19T12:49:01Z</time>
      </trkpt>
      <trkpt lat="39.7646335" lon="3.1033307">
        <ele>30.2</ele>
        <time>2015-06-19T12:49:10Z</time>
      </trkpt>
      <trkpt lat="39.7645798" lon="3.1035535">
        <ele>30.4</ele>
        <time>2015-06-19T12:49:13Z</time>
      </trkpt>
      <trkpt lat="39.764402" lon="3.1042554">
        <ele>29.8</ele>
        <time>2015-06-19T12:49:23Z</time>
      </trkpt>
      <trkpt lat="39.7643746" lon="3.1043216">
        <ele>29.6</ele>
        <time>2015-06-19T12:49:24Z</time>
      </trkpt>
      <trkpt lat="39.7643459" lon="3.1043815">
        <ele>29.4</ele>
        <time>2015-06-19T12:49:25Z</time>
      </trkpt>
      <trkpt lat="39.7641488" lon="3.1047528">
        <ele>29.6</ele>
        <time>2015-06-19T12:49:31Z</time>
      </trkpt>
      <trkpt lat="39.7638329" lon="3.1053349">
        <ele>29.4</ele>
        <time>2015-06-19T12:49:40Z</time>
      </trkpt>
      <trkpt lat="39.7637922" lon="3.1054136">
        <ele>29.2</ele>
        <time>2015-06-19T12:49:41Z</time>
      </trkpt>
      <trkpt lat="39.7634534" lon="3.1060425">
        <ele>30</ele>
        <time>2015-06-19T12:49:50Z</time>
      </trkpt>
      <trkpt lat="39.7633777" lon="3.1061842">
        <ele>29.8</ele>
        <time>2015-06-19T12:49:52Z</time>
      </trkpt>
      <trkpt lat="39.7630461" lon="3.1067983">
        <ele>29.6</ele>
        <time>2015-06-19T12:50:01Z</time>
      </trkpt>
      <trkpt lat="39.7629683" lon="3.106937">
        <ele>29.6</ele>
        <time>2015-06-19T12:50:03Z</time>
      </trkpt>
      <trkpt lat="39.7626271" lon="3.1075812">
        <ele>28.6</ele>
        <time>2015-06-19T12:50:12Z</time>
      </trkpt>
      <trkpt lat="39.7625898" lon="3.1076557">
        <ele>28.6</ele>
        <time>2015-06-19T12:50:13Z</time>
      </trkpt>
      <trkpt lat="39.7622864" lon="3.1082393">
        <ele>28.6</ele>
        <time>2015-06-19T12:50:21Z</time>
      </trkpt>
      <trkpt lat="39.762211" lon="3.1083818">
        <ele>28.4</ele>
        <time>2015-06-19T12:50:23Z</time>
      </trkpt>
      <trkpt lat="39.7621744" lon="3.1084554">
        <ele>28.2</ele>
        <time>2015-06-19T12:50:24Z</time>
      </trkpt>
      <trkpt lat="39.7618662" lon="3.1090292">
        <ele>28.2</ele>
        <time>2015-06-19T12:50:32Z</time>
      </trkpt>
      <trkpt lat="39.7615279" lon="3.1096621">
        <ele>28.2</ele>
        <time>2015-06-19T12:50:41Z</time>
      </trkpt>
      <trkpt lat="39.7614908" lon="3.1097308">
        <ele>28.2</ele>
        <time>2015-06-19T12:50:42Z</time>
      </trkpt>
      <trkpt lat="39.761171" lon="3.1103322">
        <ele>28.8</ele>
        <time>2015-06-19T12:50:51Z</time>
      </trkpt>
      <trkpt lat="39.7610988" lon="3.1104678">
        <ele>28.4</ele>
        <time>2015-06-19T12:50:53Z</time>
      </trkpt>
      <trkpt lat="39.7607674" lon="3.1110776">
        <ele>28.6</ele>
        <time>2015-06-19T12:51:02Z</time>
      </trkpt>
      <trkpt lat="39.7604418" lon="3.1116792">
        <ele>28.8</ele>
        <time>2015-06-19T12:51:11Z</time>
      </trkpt>
      <trkpt lat="39.7603027" lon="3.1119453">
        <ele>28.6</ele>
        <time>2015-06-19T12:51:15Z</time>
      </trkpt>
      <trkpt lat="39.7602073" lon="3.1121534">
        <ele>29.2</ele>
        <time>2015-06-19T12:51:18Z</time>
      </trkpt>
      <trkpt lat="39.7601605" lon="3.1122865">
        <ele>29.8</ele>
        <time>2015-06-19T12:51:20Z</time>
      </trkpt>
      <trkpt lat="39.7601409" lon="3.1123614">
        <ele>30</ele>
        <time>2015-06-19T12:51:21Z</time>
      </trkpt>
      <trkpt lat="39.7601216" lon="3.11258">
        <ele>30</ele>
        <time>2015-06-19T12:51:24Z</time>
      </trkpt>
      <trkpt lat="39.760117" lon="3.1127284">
        <ele>29.8</ele>
        <time>2015-06-19T12:51:26Z</time>
      </trkpt>
      <trkpt lat="39.7601039" lon="3.1134862">
        <ele>29.6</ele>
        <time>2015-06-19T12:51:36Z</time>
      </trkpt>
      <trkpt lat="39.760099" lon="3.1141363">
        <ele>29.8</ele>
        <time>2015-06-19T12:51:45Z</time>
      </trkpt>
      <trkpt lat="39.7600894" lon="3.1146494">
        <ele>29.8</ele>
        <time>2015-06-19T12:51:53Z</time>
      </trkpt>
      <trkpt lat="39.7600869" lon="3.1148818">
        <ele>30.2</ele>
        <time>2015-06-19T12:51:57Z</time>
      </trkpt>
      <trkpt lat="39.7600835" lon="3.1151748">
        <ele>31</ele>
        <time>2015-06-19T12:52:02Z</time>
      </trkpt>
      <trkpt lat="39.7600828" lon="3.1152332">
        <ele>31.4</ele>
        <time>2015-06-19T12:52:03Z</time>
      </trkpt>
      <trkpt lat="39.7600689" lon="3.115872">
        <ele>31.8</ele>
        <time>2015-06-19T12:52:14Z</time>
      </trkpt>
      <trkpt lat="39.7600593" lon="3.1163499">
        <ele>32.4</ele>
        <time>2015-06-19T12:52:23Z</time>
      </trkpt>
      <trkpt lat="39.7600584" lon="3.1164001">
        <ele>32.4</ele>
        <time>2015-06-19T12:52:24Z</time>
      </trkpt>
      <trkpt lat="39.7600552" lon="3.1167583">
        <ele>33</ele>
        <time>2015-06-19T12:52:31Z</time>
      </trkpt>
      <trkpt lat="39.7600457" lon="3.1170488">
        <ele>33.6</ele>
        <time>2015-06-19T12:52:37Z</time>
      </trkpt>
      <trkpt lat="39.7600421" lon="3.117188">
        <ele>34</ele>
        <time>2015-06-19T12:52:40Z</time>
      </trkpt>
      <trkpt lat="39.7600344" lon="3.1174936">
        <ele>34.6</ele>
        <time>2015-06-19T12:52:46Z</time>
      </trkpt>
      <trkpt lat="39.7600249" lon="3.1177747">
        <ele>35.2</ele>
        <time>2015-06-19T12:52:51Z</time>
      </trkpt>
      <trkpt lat="39.7600144" lon="3.1183898">
        <ele>35.2</ele>
        <time>2015-06-19T12:53:02Z</time>
      </trkpt>
      <trkpt lat="39.7600068" lon="3.1189436">
        <ele>35.6</ele>
        <time>2015-06-19T12:53:12Z</time>
      </trkpt>
      <trkpt lat="39.7600044" lon="3.1190516">
        <ele>35.8</ele>
        <time>2015-06-19T12:53:14Z</time>
      </trkpt>
      <trkpt lat="39.7600035" lon="3.1192476">
        <ele>36.2</ele>
        <time>2015-06-19T12:53:18Z</time>
      </trkpt>
      <trkpt lat="39.7599959" lon="3.1195875">
        <ele>36.8</ele>
        <time>2015-06-19T12:53:25Z</time>
      </trkpt>
      <trkpt lat="39.7599924" lon="3.119733">
        <ele>37.6</ele>
        <time>2015-06-19T12:53:28Z</time>
      </trkpt>
      <trkpt lat="39.7599915" lon="3.1197817">
        <ele>38</ele>
        <time>2015-06-19T12:53:29Z</time>
      </trkpt>
      <trkpt lat="39.7599894" lon="3.1199256">
        <ele>39.2</ele>
        <time>2015-06-19T12:53:32Z</time>
      </trkpt>
      <trkpt lat="39.7600044" lon="3.1201961">
        <ele>39.8</ele>
        <time>2015-06-19T12:53:38Z</time>
      </trkpt>
      <trkpt lat="39.7600164" lon="3.1202817">
        <ele>40.2</ele>
        <time>2015-06-19T12:53:40Z</time>
      </trkpt>
      <trkpt lat="39.7600935" lon="3.1205562">
        <ele>40.4</ele>
        <time>2015-06-19T12:53:46Z</time>
      </trkpt>
      <trkpt lat="39.7601954" lon="3.1207589">
        <ele>41.4</ele>
        <time>2015-06-19T12:53:51Z</time>
      </trkpt>
      <trkpt lat="39.7602673" lon="3.1208719">
        <ele>41.6</ele>
        <time>2015-06-19T12:53:54Z</time>
      </trkpt>
      <trkpt lat="39.7604636" lon="3.1212337">
        <ele>42.2</ele>
        <time>2015-06-19T12:54:03Z</time>
      </trkpt>
      <trkpt lat="39.760478" lon="3.1212751">
        <ele>42.6</ele>
        <time>2015-06-19T12:54:04Z</time>
      </trkpt>
      <trkpt lat="39.760529" lon="3.1214655">
        <ele>43.6</ele>
        <time>2015-06-19T12:54:08Z</time>
      </trkpt>
      <trkpt lat="39.7605455" lon="3.1216148">
        <ele>43.8</ele>
        <time>2015-06-19T12:54:11Z</time>
      </trkpt>
      <trkpt lat="39.7606073" lon="3.121991">
        <ele>44.2</ele>
        <time>2015-06-19T12:54:18Z</time>
      </trkpt>
      <trkpt lat="39.7606452" lon="3.1221928">
        <ele>44.6</ele>
        <time>2015-06-19T12:54:21Z</time>
      </trkpt>
      <trkpt lat="39.7606995" lon="3.1224017">
        <ele>44.6</ele>
        <time>2015-06-19T12:54:24Z</time>
      </trkpt>
      <trkpt lat="39.7608629" lon="3.1229437">
        <ele>43.4</ele>
        <time>2015-06-19T12:54:31Z</time>
      </trkpt>
      <trkpt lat="39.7609969" lon="3.1233688">
        <ele>42.6</ele>
        <time>2015-06-19T12:54:36Z</time>
      </trkpt>
      <trkpt lat="39.7611127" lon="3.1237069">
        <ele>41.8</ele>
        <time>2015-06-19T12:54:40Z</time>
      </trkpt>
      <trkpt lat="39.7611462" lon="3.1238082">
        <ele>41.6</ele>
        <time>2015-06-19T12:54:41Z</time>
      </trkpt>
      <trkpt lat="39.7612606" lon="3.1241926">
        <ele>40.4</ele>
        <time>2015-06-19T12:54:45Z</time>
      </trkpt>
      <trkpt lat="39.7613219" lon="3.1243837">
        <ele>39.4</ele>
        <time>2015-06-19T12:54:47Z</time>
      </trkpt>
      <trkpt lat="39.7614986" lon="3.124949">
        <ele>38.2</ele>
        <time>2015-06-19T12:54:53Z</time>
      </trkpt>
      <trkpt lat="39.7616547" lon="3.1255457">
        <ele>37.2</ele>
        <time>2015-06-19T12:55:00Z</time>
      </trkpt>
      <trkpt lat="39.7616745" lon="3.1257367">
        <ele>37</ele>
        <time>2015-06-19T12:55:02Z</time>
      </trkpt>
      <trkpt lat="39.7617087" lon="3.1262133">
        <ele>37.2</ele>
        <time>2015-06-19T12:55:07Z</time>
      </trkpt>
      <trkpt lat="39.761811" lon="3.1266814">
        <ele>36.4</ele>
        <time>2015-06-19T12:55:12Z</time>
      </trkpt>
      <trkpt lat="39.7618516" lon="3.1267628">
        <ele>36</ele>
        <time>2015-06-19T12:55:13Z</time>
      </trkpt>
      <trkpt lat="39.7619955" lon="3.126985">
        <ele>35</ele>
        <time>2015-06-19T12:55:16Z</time>
      </trkpt>
      <trkpt lat="39.7620557" lon="3.1270643">
        <ele>35</ele>
        <time>2015-06-19T12:55:17Z</time>
      </trkpt>
      <trkpt lat="39.762294" lon="3.1273452">
        <ele>34</ele>
        <time>2015-06-19T12:55:21Z</time>
      </trkpt>
      <trkpt lat="39.7624215" lon="3.1274858">
        <ele>33.8</ele>
        <time>2015-06-19T12:55:23Z</time>
      </trkpt>
      <trkpt lat="39.7628486" lon="3.1279774">
        <ele>34.2</ele>
        <time>2015-06-19T12:55:30Z</time>
      </trkpt>
      <trkpt lat="39.7630901" lon="3.1284084">
        <ele>33.8</ele>
        <time>2015-06-19T12:55:35Z</time>
      </trkpt>
      <trkpt lat="39.7633819" lon="3.1290199">
        <ele>33</ele>
        <time>2015-06-19T12:55:42Z</time>
      </trkpt>
      <trkpt lat="39.7634203" lon="3.1291025">
        <ele>32.8</ele>
        <time>2015-06-19T12:55:43Z</time>
      </trkpt>
      <trkpt lat="39.7634926" lon="3.1292566">
        <ele>32.8</ele>
        <time>2015-06-19T12:55:45Z</time>
      </trkpt>
      <trkpt lat="39.7638096" lon="3.1299063">
        <ele>32.8</ele>
        <time>2015-06-19T12:55:54Z</time>
      </trkpt>
      <trkpt lat="39.7640884" lon="3.1303934">
        <ele>32.6</ele>
        <time>2015-06-19T12:56:02Z</time>
      </trkpt>
      <trkpt lat="39.7644422" lon="3.1308283">
        <ele>32.6</ele>
        <time>2015-06-19T12:56:10Z</time>
      </trkpt>
      <trkpt lat="39.7647899" lon="3.131223">
        <ele>33.8</ele>
        <time>2015-06-19T12:56:18Z</time>
      </trkpt>
      <trkpt lat="39.7650694" lon="3.1315439">
        <ele>34.2</ele>
        <time>2015-06-19T12:56:24Z</time>
      </trkpt>
      <trkpt lat="39.7653111" lon="3.1318265">
        <ele>33.4</ele>
        <time>2015-06-19T12:56:29Z</time>
      </trkpt>
      <trkpt lat="39.7656319" lon="3.1321969">
        <ele>33.4</ele>
        <time>2015-06-19T12:56:35Z</time>
      </trkpt>
      <trkpt lat="39.7660613" lon="3.132726">
        <ele>33.4</ele>
        <time>2015-06-19T12:56:43Z</time>
      </trkpt>
      <trkpt lat="39.766478" lon="3.133258">
        <ele>33.2</ele>
        <time>2015-06-19T12:56:51Z</time>
      </trkpt>
      <trkpt lat="39.7666148" lon="3.1334554">
        <ele>33</ele>
        <time>2015-06-19T12:56:54Z</time>
      </trkpt>
      <trkpt lat="39.7666599" lon="3.1335139">
        <ele>33</ele>
        <time>2015-06-19T12:56:55Z</time>
      </trkpt>
      <trkpt lat="39.7667607" lon="3.1336428">
        <ele>32.8</ele>
        <time>2015-06-19T12:56:57Z</time>
      </trkpt>
      <trkpt lat="39.7669775" lon="3.1339146">
        <ele>32.4</ele>
        <time>2015-06-19T12:57:01Z</time>
      </trkpt>
      <trkpt lat="39.7672056" lon="3.1342019">
        <ele>31.4</ele>
        <time>2015-06-19T12:57:05Z</time>
      </trkpt>
      <trkpt lat="39.7673891" lon="3.134436">
        <ele>30.4</ele>
        <time>2015-06-19T12:57:08Z</time>
      </trkpt>
      <trkpt lat="39.767503" lon="3.1345827">
        <ele>29.8</ele>
        <time>2015-06-19T12:57:10Z</time>
      </trkpt>
      <trkpt lat="39.7678811" lon="3.1350745">
        <ele>29.8</ele>
        <time>2015-06-19T12:57:17Z</time>
      </trkpt>
      <trkpt lat="39.7682988" lon="3.1356121">
        <ele>29.8</ele>
        <time>2015-06-19T12:57:24Z</time>
      </trkpt>
      <trkpt lat="39.7683522" lon="3.1356815">
        <ele>29.6</ele>
        <time>2015-06-19T12:57:25Z</time>
      </trkpt>
      <trkpt lat="39.7687398" lon="3.1361793">
        <ele>29.8</ele>
        <time>2015-06-19T12:57:32Z</time>
      </trkpt>
      <trkpt lat="39.7688497" lon="3.1363224">
        <ele>30</ele>
        <time>2015-06-19T12:57:34Z</time>
      </trkpt>
      <trkpt lat="39.7692125" lon="3.1367944">
        <ele>29.2</ele>
        <time>2015-06-19T12:57:41Z</time>
      </trkpt>
      <trkpt lat="39.7695514" lon="3.1372336">
        <ele>29.8</ele>
        <time>2015-06-19T12:57:48Z</time>
      </trkpt>
      <trkpt lat="39.769668" lon="3.1373925">
        <ele>30.6</ele>
        <time>2015-06-19T12:57:51Z</time>
      </trkpt>
      <trkpt lat="39.7697828" lon="3.1375624">
        <ele>31.4</ele>
        <time>2015-06-19T12:57:54Z</time>
      </trkpt>
      <trkpt lat="39.769815" lon="3.1376184">
        <ele>31.8</ele>
        <time>2015-06-19T12:57:55Z</time>
      </trkpt>
      <trkpt lat="39.7699656" lon="3.1379288">
        <ele>32.6</ele>
        <time>2015-06-19T12:58:00Z</time>
      </trkpt>
      <trkpt lat="39.7700578" lon="3.138142">
        <ele>32.8</ele>
        <time>2015-06-19T12:58:03Z</time>
      </trkpt>
      <trkpt lat="39.7701445" lon="3.1383577">
        <ele>32.2</ele>
        <time>2015-06-19T12:58:06Z</time>
      </trkpt>
      <trkpt lat="39.7702052" lon="3.138503">
        <ele>31.4</ele>
        <time>2015-06-19T12:58:08Z</time>
      </trkpt>
      <trkpt lat="39.7702996" lon="3.1386964">
        <ele>31.2</ele>
        <time>2015-06-19T12:58:11Z</time>
      </trkpt>
      <trkpt lat="39.7703658" lon="3.1388336">
        <ele>31.4</ele>
        <time>2015-06-19T12:58:13Z</time>
      </trkpt>
      <trkpt lat="39.7704475" lon="3.1390641">
        <ele>31.4</ele>
        <time>2015-06-19T12:58:16Z</time>
      </trkpt>
      <trkpt lat="39.7705598" lon="3.1395471">
        <ele>30.4</ele>
        <time>2015-06-19T12:58:22Z</time>
      </trkpt>
      <trkpt lat="39.7706319" lon="3.1400409">
        <ele>30.6</ele>
        <time>2015-06-19T12:58:28Z</time>
      </trkpt>
      <trkpt lat="39.770694" lon="3.1403934">
        <ele>29.8</ele>
        <time>2015-06-19T12:58:32Z</time>
      </trkpt>
      <trkpt lat="39.7706964" lon="3.1404889">
        <ele>29.6</ele>
        <time>2015-06-19T12:58:33Z</time>
      </trkpt>
      <trkpt lat="39.7706972" lon="3.14058">
        <ele>29.2</ele>
        <time>2015-06-19T12:58:34Z</time>
      </trkpt>
      <trkpt lat="39.7706794" lon="3.1406638">
        <ele>29.2</ele>
        <time>2015-06-19T12:58:35Z</time>
      </trkpt>
      <trkpt lat="39.7706721" lon="3.1408576">
        <ele>29</ele>
        <time>2015-06-19T12:58:37Z</time>
      </trkpt>
      <trkpt lat="39.7707974" lon="3.1410865">
        <ele>28.4</ele>
        <time>2015-06-19T12:58:40Z</time>
      </trkpt>
      <trkpt lat="39.7708626" lon="3.1411426">
        <ele>28.2</ele>
        <time>2015-06-19T12:58:41Z</time>
      </trkpt>
      <trkpt lat="39.7709297" lon="3.1412029">
        <ele>27.8</ele>
        <time>2015-06-19T12:58:42Z</time>
      </trkpt>
      <trkpt lat="39.7709868" lon="3.1412719">
        <ele>27.6</ele>
        <time>2015-06-19T12:58:43Z</time>
      </trkpt>
      <trkpt lat="39.7710355" lon="3.1413522">
        <ele>27.4</ele>
        <time>2015-06-19T12:58:44Z</time>
      </trkpt>
      <trkpt lat="39.7711546" lon="3.1416152">
        <ele>27</ele>
        <time>2015-06-19T12:58:47Z</time>
      </trkpt>
      <trkpt lat="39.7711963" lon="3.1417086">
        <ele>26.8</ele>
        <time>2015-06-19T12:58:48Z</time>
      </trkpt>
      <trkpt lat="39.7712929" lon="3.1420184">
        <ele>26.2</ele>
        <time>2015-06-19T12:58:52Z</time>
      </trkpt>
      <trkpt lat="39.7713003" lon="3.1421727">
        <ele>26</ele>
        <time>2015-06-19T12:58:54Z</time>
      </trkpt>
      <trkpt lat="39.7713264" lon="3.1423214">
        <ele>25.8</ele>
        <time>2015-06-19T12:58:56Z</time>
      </trkpt>
      <trkpt lat="39.7714761" lon="3.1424372">
        <ele>25.4</ele>
        <time>2015-06-19T12:58:59Z</time>
      </trkpt>
      <trkpt lat="39.7716338" lon="3.1423323">
        <ele>25</ele>
        <time>2015-06-19T12:59:02Z</time>
      </trkpt>
      <trkpt lat="39.771652" lon="3.1422553">
        <ele>25</ele>
        <time>2015-06-19T12:59:03Z</time>
      </trkpt>
      <trkpt lat="39.7716887" lon="3.1421048">
        <ele>25</ele>
        <time>2015-06-19T12:59:05Z</time>
      </trkpt>
      <trkpt lat="39.7717305" lon="3.1420305">
        <ele>25</ele>
        <time>2015-06-19T12:59:06Z</time>
      </trkpt>
      <trkpt lat="39.7718419" lon="3.1419272">
        <ele>25.2</ele>
        <time>2015-06-19T12:59:08Z</time>
      </trkpt>
      <trkpt lat="39.7722415" lon="3.1415217">
        <ele>25.6</ele>
        <time>2015-06-19T12:59:15Z</time>
      </trkpt>
      <trkpt lat="39.772585" lon="3.1411824">
        <ele>25.4</ele>
        <time>2015-06-19T12:59:21Z</time>
      </trkpt>
      <trkpt lat="39.7727433" lon="3.1410158">
        <ele>26.2</ele>
        <time>2015-06-19T12:59:24Z</time>
      </trkpt>
      <trkpt lat="39.7730094" lon="3.1407331">
        <ele>25.8</ele>
        <time>2015-06-19T12:59:29Z</time>
      </trkpt>
      <trkpt lat="39.7733705" lon="3.1402786">
        <ele>25.2</ele>
        <time>2015-06-19T12:59:36Z</time>
      </trkpt>
      <trkpt lat="39.7735254" lon="3.1400844">
        <ele>25.2</ele>
        <time>2015-06-19T12:59:39Z</time>
      </trkpt>
      <trkpt lat="39.7738797" lon="3.1396171">
        <ele>25.2</ele>
        <time>2015-06-19T12:59:46Z</time>
      </trkpt>
      <trkpt lat="39.774287" lon="3.1390854">
        <ele>25.4</ele>
        <time>2015-06-19T12:59:54Z</time>
      </trkpt>
      <trkpt lat="39.7746903" lon="3.13856">
        <ele>25.4</ele>
        <time>2015-06-19T13:00:02Z</time>
      </trkpt>
      <trkpt lat="39.7747447" lon="3.1384911">
        <ele>25.4</ele>
        <time>2015-06-19T13:00:03Z</time>
      </trkpt>
      <trkpt lat="39.7751176" lon="3.1380067">
        <ele>25.2</ele>
        <time>2015-06-19T13:00:10Z</time>
      </trkpt>
      <trkpt lat="39.7755432" lon="3.1374505">
        <ele>25.4</ele>
        <time>2015-06-19T13:00:18Z</time>
      </trkpt>
      <trkpt lat="39.7759259" lon="3.1369474">
        <ele>25.6</ele>
        <time>2015-06-19T13:00:25Z</time>
      </trkpt>
      <trkpt lat="39.7760341" lon="3.1368085">
        <ele>25.4</ele>
        <time>2015-06-19T13:00:27Z</time>
      </trkpt>
      <trkpt lat="39.7763078" lon="3.1364358">
        <ele>25</ele>
        <time>2015-06-19T13:00:33Z</time>
      </trkpt>
      <trkpt lat="39.7765963" lon="3.1360561">
        <ele>25.2</ele>
        <time>2015-06-19T13:00:39Z</time>
      </trkpt>
      <trkpt lat="39.7768511" lon="3.1357205">
        <ele>25.4</ele>
        <time>2015-06-19T13:00:44Z</time>
      </trkpt>
      <trkpt lat="39.777229" lon="3.135205">
        <ele>25.6</ele>
        <time>2015-06-19T13:00:51Z</time>
      </trkpt>
      <trkpt lat="39.7772821" lon="3.1351323">
        <ele>25.6</ele>
        <time>2015-06-19T13:00:52Z</time>
      </trkpt>
      <trkpt lat="39.7776052" lon="3.1347052">
        <ele>25.6</ele>
        <time>2015-06-19T13:00:58Z</time>
      </trkpt>
      <trkpt lat="39.7779355" lon="3.1342747">
        <ele>25.8</ele>
        <time>2015-06-19T13:01:04Z</time>
      </trkpt>
      <trkpt lat="39.7782891" lon="3.1338347">
        <ele>25.6</ele>
        <time>2015-06-19T13:01:11Z</time>
      </trkpt>
      <trkpt lat="39.7785712" lon="3.1335376">
        <ele>25.6</ele>
        <time>2015-06-19T13:01:17Z</time>
      </trkpt>
      <trkpt lat="39.7788896" lon="3.1331781">
        <ele>25.6</ele>
        <time>2015-06-19T13:01:24Z</time>
      </trkpt>
      <trkpt lat="39.7792102" lon="3.1328303">
        <ele>26.2</ele>
        <time>2015-06-19T13:01:30Z</time>
      </trkpt>
      <trkpt lat="39.7792665" lon="3.132775">
        <ele>26</ele>
        <time>2015-06-19T13:01:31Z</time>
      </trkpt>
      <trkpt lat="39.7797276" lon="3.1322835">
        <ele>25.8</ele>
        <time>2015-06-19T13:01:39Z</time>
      </trkpt>
      <trkpt lat="39.7797862" lon="3.1322326">
        <ele>25.8</ele>
        <time>2015-06-19T13:01:40Z</time>
      </trkpt>
      <trkpt lat="39.7801961" lon="3.1318144">
        <ele>25.8</ele>
        <time>2015-06-19T13:01:47Z</time>
      </trkpt>
      <trkpt lat="39.7806132" lon="3.1313853">
        <ele>25.8</ele>
        <time>2015-06-19T13:01:54Z</time>
      </trkpt>
      <trkpt lat="39.7810355" lon="3.1309684">
        <ele>26</ele>
        <time>2015-06-19T13:02:01Z</time>
      </trkpt>
      <trkpt lat="39.7814771" lon="3.1305381">
        <ele>25.8</ele>
        <time>2015-06-19T13:02:08Z</time>
      </trkpt>
      <trkpt lat="39.7815397" lon="3.1304757">
        <ele>25.8</ele>
        <time>2015-06-19T13:02:09Z</time>
      </trkpt>
      <trkpt lat="39.7820194" lon="3.1300125">
        <ele>25.6</ele>
        <time>2015-06-19T13:02:17Z</time>
      </trkpt>
      <trkpt lat="39.7823922" lon="3.129675">
        <ele>25.6</ele>
        <time>2015-06-19T13:02:23Z</time>
      </trkpt>
      <trkpt lat="39.7824611" lon="3.1296228">
        <ele>25.2</ele>
        <time>2015-06-19T13:02:24Z</time>
      </trkpt>
      <trkpt lat="39.782972" lon="3.1292677">
        <ele>25.6</ele>
        <time>2015-06-19T13:02:32Z</time>
      </trkpt>
      <trkpt lat="39.7833447" lon="3.1289992">
        <ele>25.8</ele>
        <time>2015-06-19T13:02:38Z</time>
      </trkpt>
      <trkpt lat="39.7838469" lon="3.1286532">
        <ele>25.6</ele>
        <time>2015-06-19T13:02:46Z</time>
      </trkpt>
      <trkpt lat="39.7839106" lon="3.1286062">
        <ele>25.6</ele>
        <time>2015-06-19T13:02:47Z</time>
      </trkpt>
      <trkpt lat="39.7844062" lon="3.1282493">
        <ele>25.6</ele>
        <time>2015-06-19T13:02:55Z</time>
      </trkpt>
      <trkpt lat="39.7844676" lon="3.128203">
        <ele>25.6</ele>
        <time>2015-06-19T13:02:56Z</time>
      </trkpt>
      <trkpt lat="39.7848812" lon="3.1279035">
        <ele>26.2</ele>
        <time>2015-06-19T13:03:03Z</time>
      </trkpt>
      <trkpt lat="39.7849429" lon="3.1278649">
        <ele>26.2</ele>
        <time>2015-06-19T13:03:04Z</time>
      </trkpt>
      <trkpt lat="39.785431" lon="3.1275274">
        <ele>26.2</ele>
        <time>2015-06-19T13:03:12Z</time>
      </trkpt>
      <trkpt lat="39.7854952" lon="3.1274847">
        <ele>26</ele>
        <time>2015-06-19T13:03:13Z</time>
      </trkpt>
      <trkpt lat="39.7858602" lon="3.1272093">
        <ele>25.8</ele>
        <time>2015-06-19T13:03:19Z</time>
      </trkpt>
      <trkpt lat="39.7862106" lon="3.1269567">
        <ele>26.2</ele>
        <time>2015-06-19T13:03:25Z</time>
      </trkpt>
      <trkpt lat="39.78671" lon="3.1265769">
        <ele>26.2</ele>
        <time>2015-06-19T13:03:33Z</time>
      </trkpt>
      <trkpt lat="39.7872068" lon="3.1261874">
        <ele>26.2</ele>
        <time>2015-06-19T13:03:41Z</time>
      </trkpt>
      <trkpt lat="39.7874007" lon="3.1260424">
        <ele>26</ele>
        <time>2015-06-19T13:03:44Z</time>
      </trkpt>
      <trkpt lat="39.7878433" lon="3.1256994">
        <ele>26.4</ele>
        <time>2015-06-19T13:03:51Z</time>
      </trkpt>
      <trkpt lat="39.7883215" lon="3.1253343">
        <ele>26.2</ele>
        <time>2015-06-19T13:03:59Z</time>
      </trkpt>
      <trkpt lat="39.7887183" lon="3.1250194">
        <ele>26.2</ele>
        <time>2015-06-19T13:04:06Z</time>
      </trkpt>
      <trkpt lat="39.7891225" lon="3.1247044">
        <ele>26</ele>
        <time>2015-06-19T13:04:13Z</time>
      </trkpt>
      <trkpt lat="39.7895195" lon="3.124385">
        <ele>26.4</ele>
        <time>2015-06-19T13:04:20Z</time>
      </trkpt>
      <trkpt lat="39.7899937" lon="3.1240346">
        <ele>26.6</ele>
        <time>2015-06-19T13:04:28Z</time>
      </trkpt>
      <trkpt lat="39.7904033" lon="3.1237121">
        <ele>26.8</ele>
        <time>2015-06-19T13:04:34Z</time>
      </trkpt>
      <trkpt lat="39.790873" lon="3.1233421">
        <ele>27</ele>
        <time>2015-06-19T13:04:41Z</time>
      </trkpt>
      <trkpt lat="39.791399" lon="3.1229488">
        <ele>27</ele>
        <time>2015-06-19T13:04:49Z</time>
      </trkpt>
      <trkpt lat="39.7917527" lon="3.1227403">
        <ele>26.2</ele>
        <time>2015-06-19T13:04:55Z</time>
      </trkpt>
      <trkpt lat="39.791945" lon="3.1227577">
        <ele>26.2</ele>
        <time>2015-06-19T13:04:58Z</time>
      </trkpt>
      <trkpt lat="39.7920431" lon="3.1226686">
        <ele>26.6</ele>
        <time>2015-06-19T13:05:00Z</time>
      </trkpt>
      <trkpt lat="39.7921129" lon="3.1225349">
        <ele>26.4</ele>
        <time>2015-06-19T13:05:02Z</time>
      </trkpt>
      <trkpt lat="39.7921585" lon="3.1224837">
        <ele>26.2</ele>
        <time>2015-06-19T13:05:03Z</time>
      </trkpt>
      <trkpt lat="39.7922169" lon="3.122442">
        <ele>26</ele>
        <time>2015-06-19T13:05:04Z</time>
      </trkpt>
      <trkpt lat="39.7925668" lon="3.1222205">
        <ele>26.4</ele>
        <time>2015-06-19T13:05:10Z</time>
      </trkpt>
      <trkpt lat="39.7930778" lon="3.1219149">
        <ele>26.4</ele>
        <time>2015-06-19T13:05:18Z</time>
      </trkpt>
      <trkpt lat="39.793525" lon="3.1216491">
        <ele>26</ele>
        <time>2015-06-19T13:05:25Z</time>
      </trkpt>
      <trkpt lat="39.7939151" lon="3.1214163">
        <ele>26</ele>
        <time>2015-06-19T13:05:31Z</time>
      </trkpt>
      <trkpt lat="39.7944531" lon="3.121095">
        <ele>25.8</ele>
        <time>2015-06-19T13:05:39Z</time>
      </trkpt>
      <trkpt lat="39.794514" lon="3.1210591">
        <ele>25.8</ele>
        <time>2015-06-19T13:05:40Z</time>
      </trkpt>
      <trkpt lat="39.795062" lon="3.1208076">
        <ele>26</ele>
        <time>2015-06-19T13:05:48Z</time>
      </trkpt>
      <trkpt lat="39.7956218" lon="3.1206203">
        <ele>26</ele>
        <time>2015-06-19T13:05:56Z</time>
      </trkpt>
      <trkpt lat="39.7960096" lon="3.1204988">
        <ele>25.4</ele>
        <time>2015-06-19T13:06:02Z</time>
      </trkpt>
      <trkpt lat="39.7961375" lon="3.1204598">
        <ele>25.2</ele>
        <time>2015-06-19T13:06:04Z</time>
      </trkpt>
      <trkpt lat="39.7965289" lon="3.1203375">
        <ele>25.6</ele>
        <time>2015-06-19T13:06:10Z</time>
      </trkpt>
      <trkpt lat="39.7970743" lon="3.1201593">
        <ele>25.2</ele>
        <time>2015-06-19T13:06:18Z</time>
      </trkpt>
      <trkpt lat="39.797144" lon="3.120136">
        <ele>25.4</ele>
        <time>2015-06-19T13:06:19Z</time>
      </trkpt>
      <trkpt lat="39.7977204" lon="3.1199548">
        <ele>25.8</ele>
        <time>2015-06-19T13:06:27Z</time>
      </trkpt>
      <trkpt lat="39.7978601" lon="3.1199115">
        <ele>26</ele>
        <time>2015-06-19T13:06:29Z</time>
      </trkpt>
      <trkpt lat="39.7984143" lon="3.1197371">
        <ele>25.6</ele>
        <time>2015-06-19T13:06:37Z</time>
      </trkpt>
      <trkpt lat="39.798477" lon="3.1197156">
        <ele>25.6</ele>
        <time>2015-06-19T13:06:38Z</time>
      </trkpt>
      <trkpt lat="39.7989473" lon="3.119563">
        <ele>26</ele>
        <time>2015-06-19T13:06:46Z</time>
      </trkpt>
      <trkpt lat="39.799105" lon="3.1195533">
        <ele>26</ele>
        <time>2015-06-19T13:06:49Z</time>
      </trkpt>
      <trkpt lat="39.7992121" lon="3.1195457">
        <ele>25.8</ele>
        <time>2015-06-19T13:06:51Z</time>
      </trkpt>
      <trkpt lat="39.7993567" lon="3.119431">
        <ele>25.6</ele>
        <time>2015-06-19T13:06:54Z</time>
      </trkpt>
      <trkpt lat="39.7995353" lon="3.1193897">
        <ele>25.8</ele>
        <time>2015-06-19T13:06:57Z</time>
      </trkpt>
      <trkpt lat="39.7996456" lon="3.1193497">
        <ele>26.4</ele>
        <time>2015-06-19T13:06:59Z</time>
      </trkpt>
      <trkpt lat="39.7998759" lon="3.1192673">
        <ele>27</ele>
        <time>2015-06-19T13:07:03Z</time>
      </trkpt>
      <trkpt lat="39.8004343" lon="3.1190795">
        <ele>26.8</ele>
        <time>2015-06-19T13:07:13Z</time>
      </trkpt>
      <trkpt lat="39.800541" lon="3.1190484">
        <ele>26.8</ele>
        <time>2015-06-19T13:07:15Z</time>
      </trkpt>
      <trkpt lat="39.800597" lon="3.119037">
        <ele>27.4</ele>
        <time>2015-06-19T13:07:16Z</time>
      </trkpt>
      <trkpt lat="39.800822" lon="3.1189674">
        <ele>28.4</ele>
        <time>2015-06-19T13:07:20Z</time>
      </trkpt>
      <trkpt lat="39.8009383" lon="3.118928">
        <ele>28.8</ele>
        <time>2015-06-19T13:07:22Z</time>
      </trkpt>
      <trkpt lat="39.8012382" lon="3.1188415">
        <ele>27.2</ele>
        <time>2015-06-19T13:07:27Z</time>
      </trkpt>
      <trkpt lat="39.8014148" lon="3.1187815">
        <ele>27</ele>
        <time>2015-06-19T13:07:30Z</time>
      </trkpt>
      <trkpt lat="39.80191" lon="3.1186242">
        <ele>27</ele>
        <time>2015-06-19T13:07:38Z</time>
      </trkpt>
      <trkpt lat="39.8019729" lon="3.1186086">
        <ele>27.2</ele>
        <time>2015-06-19T13:07:39Z</time>
      </trkpt>
      <trkpt lat="39.8022789" lon="3.1185016">
        <ele>27</ele>
        <time>2015-06-19T13:07:44Z</time>
      </trkpt>
      <trkpt lat="39.8027518" lon="3.1183233">
        <ele>27</ele>
        <time>2015-06-19T13:07:52Z</time>
      </trkpt>
      <trkpt lat="39.8033129" lon="3.1181201">
        <ele>27</ele>
        <time>2015-06-19T13:08:01Z</time>
      </trkpt>
      <trkpt lat="39.8034424" lon="3.1180773">
        <ele>27</ele>
        <time>2015-06-19T13:08:03Z</time>
      </trkpt>
      <trkpt lat="39.8038605" lon="3.1179508">
        <ele>26.6</ele>
        <time>2015-06-19T13:08:10Z</time>
      </trkpt>
      <trkpt lat="39.8040379" lon="3.117961">
        <ele>26.6</ele>
        <time>2015-06-19T13:08:13Z</time>
      </trkpt>
      <trkpt lat="39.8040968" lon="3.1179877">
        <ele>26.6</ele>
        <time>2015-06-19T13:08:14Z</time>
      </trkpt>
      <trkpt lat="39.8042762" lon="3.1179496">
        <ele>27.2</ele>
        <time>2015-06-19T13:08:17Z</time>
      </trkpt>
      <trkpt lat="39.8045055" lon="3.1178319">
        <ele>27</ele>
        <time>2015-06-19T13:08:21Z</time>
      </trkpt>
      <trkpt lat="39.8045684" lon="3.1178202">
        <ele>27.2</ele>
        <time>2015-06-19T13:08:22Z</time>
      </trkpt>
      <trkpt lat="39.8047442" lon="3.1177661">
        <ele>27.2</ele>
        <time>2015-06-19T13:08:25Z</time>
      </trkpt>
      <trkpt lat="39.8049559" lon="3.1177043">
        <ele>26.8</ele>
        <time>2015-06-19T13:08:29Z</time>
      </trkpt>
      <trkpt lat="39.8049983" lon="3.1176957">
        <ele>27</ele>
        <time>2015-06-19T13:08:30Z</time>
      </trkpt>
      <trkpt lat="39.805275" lon="3.1176031">
        <ele>26.4</ele>
        <time>2015-06-19T13:08:36Z</time>
      </trkpt>
      <trkpt lat="39.8054616" lon="3.1175402">
        <ele>26.2</ele>
        <time>2015-06-19T13:08:40Z</time>
      </trkpt>
      <trkpt lat="39.8056906" lon="3.1174865">
        <ele>26.2</ele>
        <time>2015-06-19T13:08:45Z</time>
      </trkpt>
      <trkpt lat="39.8060743" lon="3.1173463">
        <ele>26.4</ele>
        <time>2015-06-19T13:08:53Z</time>
      </trkpt>
      <trkpt lat="39.8064337" lon="3.1172391">
        <ele>26.4</ele>
        <time>2015-06-19T13:09:00Z</time>
      </trkpt>
      <trkpt lat="39.8068609" lon="3.1170944">
        <ele>26.2</ele>
        <time>2015-06-19T13:09:08Z</time>
      </trkpt>
      <trkpt lat="39.8071496" lon="3.1169886">
        <ele>26</ele>
        <time>2015-06-19T13:09:14Z</time>
      </trkpt>
      <trkpt lat="39.8075496" lon="3.1168544">
        <ele>26.2</ele>
        <time>2015-06-19T13:09:22Z</time>
      </trkpt>
      <trkpt lat="39.8080238" lon="3.1166894">
        <ele>26.8</ele>
        <time>2015-06-19T13:09:31Z</time>
      </trkpt>
      <trkpt lat="39.8083649" lon="3.1165779">
        <ele>26.2</ele>
        <time>2015-06-19T13:09:38Z</time>
      </trkpt>
      <trkpt lat="39.808501" lon="3.1165353">
        <ele>26.6</ele>
        <time>2015-06-19T13:09:41Z</time>
      </trkpt>
      <trkpt lat="39.8085931" lon="3.1164953">
        <ele>26.8</ele>
        <time>2015-06-19T13:09:43Z</time>
      </trkpt>
      <trkpt lat="39.8087702" lon="3.1164385">
        <ele>26.4</ele>
        <time>2015-06-19T13:09:47Z</time>
      </trkpt>
      <trkpt lat="39.8088766" lon="3.1163992">
        <ele>26.2</ele>
        <time>2015-06-19T13:09:49Z</time>
      </trkpt>
      <trkpt lat="39.8091731" lon="3.1162889">
        <ele>26.8</ele>
        <time>2015-06-19T13:09:55Z</time>
      </trkpt>
      <trkpt lat="39.8093263" lon="3.1162271">
        <ele>26.6</ele>
        <time>2015-06-19T13:09:58Z</time>
      </trkpt>
      <trkpt lat="39.8097271" lon="3.1160898">
        <ele>26.2</ele>
        <time>2015-06-19T13:10:06Z</time>
      </trkpt>
      <trkpt lat="39.8099536" lon="3.11603">
        <ele>25.8</ele>
        <time>2015-06-19T13:10:11Z</time>
      </trkpt>
      <trkpt lat="39.8102164" lon="3.1159605">
        <ele>26</ele>
        <time>2015-06-19T13:10:16Z</time>
      </trkpt>
      <trkpt lat="39.8102719" lon="3.1159512">
        <ele>26.4</ele>
        <time>2015-06-19T13:10:17Z</time>
      </trkpt>
      <trkpt lat="39.8106446" lon="3.115836">
        <ele>26.4</ele>
        <time>2015-06-19T13:10:24Z</time>
      </trkpt>
      <trkpt lat="39.8111445" lon="3.1156762">
        <ele>26.2</ele>
        <time>2015-06-19T13:10:33Z</time>
      </trkpt>
      <trkpt lat="39.8115989" lon="3.1155343">
        <ele>26.2</ele>
        <time>2015-06-19T13:10:41Z</time>
      </trkpt>
      <trkpt lat="39.8121096" lon="3.1153784">
        <ele>26.6</ele>
        <time>2015-06-19T13:10:50Z</time>
      </trkpt>
      <trkpt lat="39.8124141" lon="3.1152757">
        <ele>26.2</ele>
        <time>2015-06-19T13:10:56Z</time>
      </trkpt>
      <trkpt lat="39.8127071" lon="3.1151764">
        <ele>26</ele>
        <time>2015-06-19T13:11:02Z</time>
      </trkpt>
      <trkpt lat="39.8130481" lon="3.1150632">
        <ele>26.4</ele>
        <time>2015-06-19T13:11:09Z</time>
      </trkpt>
      <trkpt lat="39.8132102" lon="3.1150178">
        <ele>26.2</ele>
        <time>2015-06-19T13:11:13Z</time>
      </trkpt>
      <trkpt lat="39.8133389" lon="3.1149672">
        <ele>26</ele>
        <time>2015-06-19T13:11:16Z</time>
      </trkpt>
      <trkpt lat="39.8133887" lon="3.1149451">
        <ele>26</ele>
        <time>2015-06-19T13:11:17Z</time>
      </trkpt>
      <trkpt lat="39.8136548" lon="3.1148333">
        <ele>26</ele>
        <time>2015-06-19T13:11:22Z</time>
      </trkpt>
      <trkpt lat="39.8140457" lon="3.1147093">
        <ele>26.4</ele>
        <time>2015-06-19T13:11:29Z</time>
      </trkpt>
      <trkpt lat="39.8143633" lon="3.1146121">
        <ele>26.2</ele>
        <time>2015-06-19T13:11:35Z</time>
      </trkpt>
      <trkpt lat="39.8144267" lon="3.114601">
        <ele>26.2</ele>
        <time>2015-06-19T13:11:36Z</time>
      </trkpt>
      <trkpt lat="39.8146402" lon="3.1145292">
        <ele>26</ele>
        <time>2015-06-19T13:11:40Z</time>
      </trkpt>
      <trkpt lat="39.8149979" lon="3.1144389">
        <ele>25.8</ele>
        <time>2015-06-19T13:11:47Z</time>
      </trkpt>
      <trkpt lat="39.8152086" lon="3.1143555">
        <ele>25.8</ele>
        <time>2015-06-19T13:11:52Z</time>
      </trkpt>
      <trkpt lat="39.8153441" lon="3.1143265">
        <ele>25.6</ele>
        <time>2015-06-19T13:11:55Z</time>
      </trkpt>
      <trkpt lat="39.8154835" lon="3.1142789">
        <ele>25.6</ele>
        <time>2015-06-19T13:11:58Z</time>
      </trkpt>
      <trkpt lat="39.8156081" lon="3.1142109">
        <ele>25.8</ele>
        <time>2015-06-19T13:12:01Z</time>
      </trkpt>
      <trkpt lat="39.8157054" lon="3.1141697">
        <ele>26</ele>
        <time>2015-06-19T13:12:03Z</time>
      </trkpt>
      <trkpt lat="39.815804" lon="3.1141441">
        <ele>26.2</ele>
        <time>2015-06-19T13:12:05Z</time>
      </trkpt>
      <trkpt lat="39.8161262" lon="3.1140509">
        <ele>26.8</ele>
        <time>2015-06-19T13:12:11Z</time>
      </trkpt>
      <trkpt lat="39.8164195" lon="3.1140039">
        <ele>26.6</ele>
        <time>2015-06-19T13:12:17Z</time>
      </trkpt>
      <trkpt lat="39.8166596" lon="3.1139658">
        <ele>25.8</ele>
        <time>2015-06-19T13:12:23Z</time>
      </trkpt>
      <trkpt lat="39.8169274" lon="3.1139612">
        <ele>25.4</ele>
        <time>2015-06-19T13:12:29Z</time>
      </trkpt>
      <trkpt lat="39.8171003" lon="3.1139614">
        <ele>25.6</ele>
        <time>2015-06-19T13:12:33Z</time>
      </trkpt>
      <trkpt lat="39.8171514" lon="3.1139707">
        <ele>25.6</ele>
        <time>2015-06-19T13:12:34Z</time>
      </trkpt>
      <trkpt lat="39.8172907" lon="3.1139878">
        <ele>25.6</ele>
        <time>2015-06-19T13:12:37Z</time>
      </trkpt>
      <trkpt lat="39.8174274" lon="3.1140228">
        <ele>25.8</ele>
        <time>2015-06-19T13:12:40Z</time>
      </trkpt>
      <trkpt lat="39.8175264" lon="3.1140354">
        <ele>25.6</ele>
        <time>2015-06-19T13:12:42Z</time>
      </trkpt>
      <trkpt lat="39.8176796" lon="3.1140561">
        <ele>25.2</ele>
        <time>2015-06-19T13:12:45Z</time>
      </trkpt>
      <trkpt lat="39.8177297" lon="3.1140717">
        <ele>25.2</ele>
        <time>2015-06-19T13:12:46Z</time>
      </trkpt>
      <trkpt lat="39.8178425" lon="3.1140913">
        <ele>25.2</ele>
        <time>2015-06-19T13:12:49Z</time>
      </trkpt>
      <trkpt lat="39.8179564" lon="3.1141473">
        <ele>25</ele>
        <time>2015-06-19T13:12:53Z</time>
      </trkpt>
      <trkpt lat="39.8180992" lon="3.1141869">
        <ele>24.8</ele>
        <time>2015-06-19T13:12:57Z</time>
      </trkpt>
      <trkpt lat="39.8183442" lon="3.1142277">
        <ele>25</ele>
        <time>2015-06-19T13:13:02Z</time>
      </trkpt>
      <trkpt lat="39.8187126" lon="3.1142873">
        <ele>25.8</ele>
        <time>2015-06-19T13:13:09Z</time>
      </trkpt>
      <trkpt lat="39.8190575" lon="3.1143504">
        <ele>25.6</ele>
        <time>2015-06-19T13:13:16Z</time>
      </trkpt>
      <trkpt lat="39.8194545" lon="3.1144286">
        <ele>25.2</ele>
        <time>2015-06-19T13:13:24Z</time>
      </trkpt>
      <trkpt lat="39.8197512" lon="3.114485">
        <ele>25.6</ele>
        <time>2015-06-19T13:13:31Z</time>
      </trkpt>
      <trkpt lat="39.8198874" lon="3.1145386">
        <ele>26</ele>
        <time>2015-06-19T13:13:35Z</time>
      </trkpt>
      <trkpt lat="39.8201014" lon="3.1145804">
        <ele>25.6</ele>
        <time>2015-06-19T13:13:41Z</time>
      </trkpt>
      <trkpt lat="39.8203506" lon="3.1146042">
        <ele>25.2</ele>
        <time>2015-06-19T13:13:46Z</time>
      </trkpt>
      <trkpt lat="39.8206687" lon="3.1146758">
        <ele>25.6</ele>
        <time>2015-06-19T13:13:51Z</time>
      </trkpt>
      <trkpt lat="39.8210028" lon="3.1147327">
        <ele>25.4</ele>
        <time>2015-06-19T13:13:56Z</time>
      </trkpt>
      <trkpt lat="39.8212037" lon="3.1147731">
        <ele>25.8</ele>
        <time>2015-06-19T13:13:59Z</time>
      </trkpt>
      <trkpt lat="39.8213465" lon="3.1148013">
        <ele>25.6</ele>
        <time>2015-06-19T13:14:01Z</time>
      </trkpt>
      <trkpt lat="39.8214782" lon="3.1148414">
        <ele>25.8</ele>
        <time>2015-06-19T13:14:03Z</time>
      </trkpt>
      <trkpt lat="39.8215935" lon="3.1148644">
        <ele>25.8</ele>
        <time>2015-06-19T13:14:05Z</time>
      </trkpt>
      <trkpt lat="39.8218844" lon="3.1149321">
        <ele>25.8</ele>
        <time>2015-06-19T13:14:10Z</time>
      </trkpt>
      <trkpt lat="39.8222247" lon="3.1149684">
        <ele>25.6</ele>
        <time>2015-06-19T13:14:16Z</time>
      </trkpt>
      <trkpt lat="39.8223535" lon="3.1149849">
        <ele>25.6</ele>
        <time>2015-06-19T13:14:18Z</time>
      </trkpt>
      <trkpt lat="39.8225866" lon="3.1150333">
        <ele>25.6</ele>
        <time>2015-06-19T13:14:22Z</time>
      </trkpt>
      <trkpt lat="39.8229337" lon="3.1151074">
        <ele>25.4</ele>
        <time>2015-06-19T13:14:28Z</time>
      </trkpt>
      <trkpt lat="39.8233488" lon="3.1152073">
        <ele>25.6</ele>
        <time>2015-06-19T13:14:35Z</time>
      </trkpt>
      <trkpt lat="39.8237886" lon="3.1152704">
        <ele>25.8</ele>
        <time>2015-06-19T13:14:42Z</time>
      </trkpt>
      <trkpt lat="39.8242016" lon="3.1153517">
        <ele>25.6</ele>
        <time>2015-06-19T13:14:49Z</time>
      </trkpt>
      <trkpt lat="39.8245765" lon="3.1154222">
        <ele>25.4</ele>
        <time>2015-06-19T13:14:56Z</time>
      </trkpt>
      <trkpt lat="39.8248518" lon="3.1154763">
        <ele>24.6</ele>
        <time>2015-06-19T13:15:02Z</time>
      </trkpt>
      <trkpt lat="39.8249568" lon="3.1154786">
        <ele>24.6</ele>
        <time>2015-06-19T13:15:04Z</time>
      </trkpt>
      <trkpt lat="39.8251235" lon="3.1155118">
        <ele>24.8</ele>
        <time>2015-06-19T13:15:07Z</time>
      </trkpt>
      <trkpt lat="39.825479" lon="3.1155756">
        <ele>24.6</ele>
        <time>2015-06-19T13:15:13Z</time>
      </trkpt>
      <trkpt lat="39.825718" lon="3.1156211">
        <ele>24.8</ele>
        <time>2015-06-19T13:15:17Z</time>
      </trkpt>
      <trkpt lat="39.8258482" lon="3.11564">
        <ele>24.8</ele>
        <time>2015-06-19T13:15:19Z</time>
      </trkpt>
      <trkpt lat="39.8263158" lon="3.1157218">
        <ele>25</ele>
        <time>2015-06-19T13:15:26Z</time>
      </trkpt>
      <trkpt lat="39.8267896" lon="3.1158086">
        <ele>25.2</ele>
        <time>2015-06-19T13:15:33Z</time>
      </trkpt>
      <trkpt lat="39.8273126" lon="3.1158949">
        <ele>25.4</ele>
        <time>2015-06-19T13:15:41Z</time>
      </trkpt>
      <trkpt lat="39.8276149" lon="3.1159495">
        <ele>25</ele>
        <time>2015-06-19T13:15:46Z</time>
      </trkpt>
      <trkpt lat="39.8279722" lon="3.1160134">
        <ele>24.6</ele>
        <time>2015-06-19T13:15:53Z</time>
      </trkpt>
      <trkpt lat="39.8280524" lon="3.1160432">
        <ele>24.6</ele>
        <time>2015-06-19T13:15:55Z</time>
      </trkpt>
      <trkpt lat="39.8280818" lon="3.1161472">
        <ele>24.4</ele>
        <time>2015-06-19T13:15:57Z</time>
      </trkpt>
      <trkpt lat="39.8280711" lon="3.1162396">
        <ele>24.4</ele>
        <time>2015-06-19T13:15:59Z</time>
      </trkpt>
      <trkpt lat="39.8280606" lon="3.1163685">
        <ele>24.6</ele>
        <time>2015-06-19T13:16:01Z</time>
      </trkpt>
      <trkpt lat="39.8280136" lon="3.1168177">
        <ele>25.4</ele>
        <time>2015-06-19T13:16:08Z</time>
      </trkpt>
      <trkpt lat="39.8279676" lon="3.1172045">
        <ele>25.6</ele>
        <time>2015-06-19T13:16:15Z</time>
      </trkpt>
      <trkpt lat="39.8279698" lon="3.1173829">
        <ele>25.6</ele>
        <time>2015-06-19T13:16:20Z</time>
      </trkpt>
      <trkpt lat="39.8280991" lon="3.1174373">
        <ele>25</ele>
        <time>2015-06-19T13:16:24Z</time>
      </trkpt>
      <trkpt lat="39.8283633" lon="3.1174854">
        <ele>24.6</ele>
        <time>2015-06-19T13:16:30Z</time>
      </trkpt>
      <trkpt lat="39.8286035" lon="3.1175439">
        <ele>25.2</ele>
        <time>2015-06-19T13:16:36Z</time>
      </trkpt>
      <trkpt lat="39.8286595" lon="3.1176504">
        <ele>24.8</ele>
        <time>2015-06-19T13:16:40Z</time>
      </trkpt>
      <trkpt lat="39.8287697" lon="3.117876">
        <ele>25.2</ele>
        <time>2015-06-19T13:16:47Z</time>
      </trkpt>
      <trkpt lat="39.8288913" lon="3.1179994">
        <ele>24.8</ele>
        <time>2015-06-19T13:16:53Z</time>
      </trkpt>
      <trkpt lat="39.8290225" lon="3.1181757">
        <ele>24.4</ele>
        <time>2015-06-19T13:16:59Z</time>
      </trkpt>
      <trkpt lat="39.8291273" lon="3.118363">
        <ele>24.4</ele>
        <time>2015-06-19T13:17:05Z</time>
      </trkpt>
      <trkpt lat="39.8291401" lon="3.1184909">
        <ele>24.2</ele>
        <time>2015-06-19T13:17:09Z</time>
      </trkpt>
      <trkpt lat="39.8291345" lon="3.118511">
        <ele>24.2</ele>
        <time>2015-06-19T13:17:10Z</time>
      </trkpt>
      <trkpt lat="39.8290906" lon="3.118583">
        <ele>24.6</ele>
        <time>2015-06-19T13:17:14Z</time>
      </trkpt>
      <trkpt lat="39.8290899" lon="3.1186007">
        <ele>24.8</ele>
        <time>2015-06-19T13:17:15Z</time>
      </trkpt>
      <trkpt lat="39.8291226" lon="3.1186343">
        <ele>24.4</ele>
        <time>2015-06-19T13:17:18Z</time>
      </trkpt>
      <trkpt lat="39.8291302" lon="3.118644">
        <ele>24.2</ele>
        <time>2015-06-19T13:17:19Z</time>
      </trkpt>
      <trkpt lat="39.8291324" lon="3.118646">
        <ele>24.6</ele>
        <time>2015-06-19T13:17:24Z</time>
      </trkpt>
      <trkpt lat="39.8291445" lon="3.118654">
        <ele>24.6</ele>
        <time>2015-06-19T13:17:25Z</time>
      </trkpt>
      <trkpt lat="39.8291827" lon="3.1186652">
        <ele>25</ele>
        <time>2015-06-19T13:17:29Z</time>
      </trkpt>
      <trkpt lat="39.8291997" lon="3.1186696">
        <ele>25.2</ele>
        <time>2015-06-19T13:17:31Z</time>
      </trkpt>
      <trkpt lat="39.8292693" lon="3.1186932">
        <ele>26.2</ele>
        <time>2015-06-19T13:17:38Z</time>
      </trkpt>
      <trkpt lat="39.829372" lon="3.1187296">
        <ele>25.4</ele>
        <time>2015-06-19T13:17:49Z</time>
      </trkpt>
      <trkpt lat="39.829421" lon="3.1187241">
        <ele>24.8</ele>
        <time>2015-06-19T13:17:53Z</time>
      </trkpt>
      <trkpt lat="39.8294284" lon="3.1186986">
        <ele>24.4</ele>
        <time>2015-06-19T13:17:55Z</time>
      </trkpt>
      <trkpt lat="39.8294334" lon="3.1186861">
        <ele>24</ele>
        <time>2015-06-19T13:17:57Z</time>
      </trkpt>
      <trkpt lat="39.8294446" lon="3.1186411">
        <ele>23.6</ele>
        <time>2015-06-19T13:18:00Z</time>
      </trkpt>
      <trkpt lat="39.8294896" lon="3.1184872">
        <ele>23.8</ele>
        <time>2015-06-19T13:18:07Z</time>
      </trkpt>
      <trkpt lat="39.8295719" lon="3.1183724">
        <ele>24</ele>
        <time>2015-06-19T13:18:13Z</time>
      </trkpt>
      <trkpt lat="39.829761" lon="3.1183115">
        <ele>24.2</ele>
        <time>2015-06-19T13:18:19Z</time>
      </trkpt>
      <trkpt lat="39.8299246" lon="3.1182276">
        <ele>24.4</ele>
        <time>2015-06-19T13:18:24Z</time>
      </trkpt>
      <trkpt lat="39.8299984" lon="3.118173">
        <ele>24.6</ele>
        <time>2015-06-19T13:18:26Z</time>
      </trkpt>
      <trkpt lat="39.8300916" lon="3.1180953">
        <ele>25</ele>
        <time>2015-06-19T13:18:29Z</time>
      </trkpt>
      <trkpt lat="39.8301581" lon="3.1180184">
        <ele>24.8</ele>
        <time>2015-06-19T13:18:31Z</time>
      </trkpt>
      <trkpt lat="39.8302392" lon="3.1178856">
        <ele>25</ele>
        <time>2015-06-19T13:18:34Z</time>
      </trkpt>
      <trkpt lat="39.8302402" lon="3.1178681">
        <ele>25</ele>
        <time>2015-06-19T13:18:35Z</time>
      </trkpt>
      <trkpt lat="39.8303028" lon="3.1177135">
        <ele>25</ele>
        <time>2015-06-19T13:18:38Z</time>
      </trkpt>
      <trkpt lat="39.8303297" lon="3.1176268">
        <ele>24.8</ele>
        <time>2015-06-19T13:18:40Z</time>
      </trkpt>
      <trkpt lat="39.8303984" lon="3.1174342">
        <ele>24.8</ele>
        <time>2015-06-19T13:18:45Z</time>
      </trkpt>
      <trkpt lat="39.8304137" lon="3.1173346">
        <ele>24.6</ele>
        <time>2015-06-19T13:18:50Z</time>
      </trkpt>
      <trkpt lat="39.8303989" lon="3.1173289">
        <ele>24.6</ele>
        <time>2015-06-19T13:18:51Z</time>
      </trkpt>
      <trkpt lat="39.8303958" lon="3.1174083">
        <ele>24.8</ele>
        <time>2015-06-19T13:18:54Z</time>
      </trkpt>
      <trkpt lat="39.8304586" lon="3.1174414">
        <ele>24.8</ele>
        <time>2015-06-19T13:18:57Z</time>
      </trkpt>
      <trkpt lat="39.8305155" lon="3.1174678">
        <ele>24.6</ele>
        <time>2015-06-19T13:18:59Z</time>
      </trkpt>
      <trkpt lat="39.8305807" lon="3.1174852">
        <ele>24.6</ele>
        <time>2015-06-19T13:19:01Z</time>
      </trkpt>
      <trkpt lat="39.8307019" lon="3.1175232">
        <ele>24.8</ele>
        <time>2015-06-19T13:19:04Z</time>
      </trkpt>
      <trkpt lat="39.8307859" lon="3.1175539">
        <ele>24.8</ele>
        <time>2015-06-19T13:19:06Z</time>
      </trkpt>
      <trkpt lat="39.830847" lon="3.1175903">
        <ele>25</ele>
        <time>2015-06-19T13:19:08Z</time>
      </trkpt>
      <trkpt lat="39.8308579" lon="3.1176184">
        <ele>25</ele>
        <time>2015-06-19T13:19:09Z</time>
      </trkpt>
      <trkpt lat="39.8308557" lon="3.1177265">
        <ele>25.2</ele>
        <time>2015-06-19T13:19:12Z</time>
      </trkpt>
      <trkpt lat="39.8309461" lon="3.1177766">
        <ele>25.2</ele>
        <time>2015-06-19T13:19:15Z</time>
      </trkpt>
      <trkpt lat="39.8309801" lon="3.1177813">
        <ele>25.2</ele>
        <time>2015-06-19T13:19:16Z</time>
      </trkpt>
      <trkpt lat="39.8311961" lon="3.117827">
        <ele>25.4</ele>
        <time>2015-06-19T13:19:21Z</time>
      </trkpt>
      <trkpt lat="39.8313783" lon="3.1179041">
        <ele>25.6</ele>
        <time>2015-06-19T13:19:26Z</time>
      </trkpt>
      <trkpt lat="39.8314458" lon="3.1179839">
        <ele>25.4</ele>
        <time>2015-06-19T13:19:29Z</time>
      </trkpt>
      <trkpt lat="39.8314505" lon="3.1180135">
        <ele>25.2</ele>
        <time>2015-06-19T13:19:30Z</time>
      </trkpt>
      <trkpt lat="39.8314446" lon="3.1181875">
        <ele>24.6</ele>
        <time>2015-06-19T13:19:34Z</time>
      </trkpt>
      <trkpt lat="39.8314171" lon="3.1184485">
        <ele>24.8</ele>
        <time>2015-06-19T13:19:40Z</time>
      </trkpt>
      <trkpt lat="39.8313812" lon="3.1184927">
        <ele>24.8</ele>
        <time>2015-06-19T13:19:42Z</time>
      </trkpt>
      <trkpt lat="39.8313494" lon="3.1185305">
        <ele>24.8</ele>
        <time>2015-06-19T13:19:44Z</time>
      </trkpt>
      <trkpt lat="39.8313479" lon="3.1185631">
        <ele>24.6</ele>
        <time>2015-06-19T13:19:45Z</time>
      </trkpt>
      <trkpt lat="39.8313487" lon="3.1186457">
        <ele>23.8</ele>
        <time>2015-06-19T13:19:47Z</time>
      </trkpt>
      <trkpt lat="39.8313278" lon="3.1187698">
        <ele>22.8</ele>
        <time>2015-06-19T13:19:50Z</time>
      </trkpt>
      <trkpt lat="39.831344" lon="3.1188257">
        <ele>22.6</ele>
        <time>2015-06-19T13:19:52Z</time>
      </trkpt>
      <trkpt lat="39.8314266" lon="3.1189008">
        <ele>22.8</ele>
        <time>2015-06-19T13:19:57Z</time>
      </trkpt>
      <trkpt lat="39.831516" lon="3.1189441">
        <ele>22.8</ele>
        <time>2015-06-19T13:20:03Z</time>
      </trkpt>
      <trkpt lat="39.8315964" lon="3.1190078">
        <ele>23</ele>
        <time>2015-06-19T13:20:06Z</time>
      </trkpt>
      <trkpt lat="39.8316245" lon="3.1190337">
        <ele>23.2</ele>
        <time>2015-06-19T13:20:07Z</time>
      </trkpt>
      <trkpt lat="39.8318173" lon="3.1191747">
        <ele>22</ele>
        <time>2015-06-19T13:20:14Z</time>
      </trkpt>
      <trkpt lat="39.8318758" lon="3.119215">
        <ele>21.6</ele>
        <time>2015-06-19T13:20:16Z</time>
      </trkpt>
      <trkpt lat="39.8319576" lon="3.1192715">
        <ele>21.8</ele>
        <time>2015-06-19T13:20:19Z</time>
      </trkpt>
      <trkpt lat="39.8320638" lon="3.1193464">
        <ele>22.8</ele>
        <time>2015-06-19T13:20:24Z</time>
      </trkpt>
      <trkpt lat="39.8320725" lon="3.1193482">
        <ele>22.8</ele>
        <time>2015-06-19T13:20:25Z</time>
      </trkpt>
      <trkpt lat="39.8321312" lon="3.1193973">
        <ele>22.8</ele>
        <time>2015-06-19T13:20:29Z</time>
      </trkpt>
      <trkpt lat="39.8322481" lon="3.1194791">
        <ele>22.4</ele>
        <time>2015-06-19T13:20:34Z</time>
      </trkpt>
      <trkpt lat="39.8323705" lon="3.1195633">
        <ele>22.2</ele>
        <time>2015-06-19T13:20:39Z</time>
      </trkpt>
      <trkpt lat="39.8324292" lon="3.1195734">
        <ele>22.2</ele>
        <time>2015-06-19T13:20:41Z</time>
      </trkpt>
      <trkpt lat="39.8325321" lon="3.1196418">
        <ele>22.6</ele>
        <time>2015-06-19T13:20:45Z</time>
      </trkpt>
      <trkpt lat="39.8326899" lon="3.1197392">
        <ele>22.6</ele>
        <time>2015-06-19T13:20:51Z</time>
      </trkpt>
      <trkpt lat="39.8328085" lon="3.1198267">
        <ele>22.6</ele>
        <time>2015-06-19T13:20:57Z</time>
      </trkpt>
      <trkpt lat="39.8328903" lon="3.1198702">
        <ele>22.6</ele>
        <time>2015-06-19T13:21:03Z</time>
      </trkpt>
      <trkpt lat="39.8329814" lon="3.1199423">
        <ele>22.2</ele>
        <time>2015-06-19T13:21:08Z</time>
      </trkpt>
      <trkpt lat="39.8329975" lon="3.1199363">
        <ele>22.4</ele>
        <time>2015-06-19T13:21:09Z</time>
      </trkpt>
      <trkpt lat="39.8330249" lon="3.1198587">
        <ele>22.8</ele>
        <time>2015-06-19T13:21:13Z</time>
      </trkpt>
      <trkpt lat="39.8330369" lon="3.1198209">
        <ele>22.8</ele>
        <time>2015-06-19T13:21:14Z</time>
      </trkpt>
      <trkpt lat="39.8330925" lon="3.1197099">
        <ele>22.8</ele>
        <time>2015-06-19T13:21:17Z</time>
      </trkpt>
      <trkpt lat="39.8332037" lon="3.1195041">
        <ele>23.6</ele>
        <time>2015-06-19T13:21:23Z</time>
      </trkpt>
      <trkpt lat="39.8332366" lon="3.1194388">
        <ele>23.8</ele>
        <time>2015-06-19T13:21:25Z</time>
      </trkpt>
      <trkpt lat="39.8332894" lon="3.1193106">
        <ele>23.6</ele>
        <time>2015-06-19T13:21:28Z</time>
      </trkpt>
      <trkpt lat="39.8334144" lon="3.1190445">
        <ele>22.8</ele>
        <time>2015-06-19T13:21:34Z</time>
      </trkpt>
      <trkpt lat="39.8334403" lon="3.1190409">
        <ele>22.8</ele>
        <time>2015-06-19T13:21:35Z</time>
      </trkpt>
      <trkpt lat="39.8334931" lon="3.1190377">
        <ele>23.2</ele>
        <time>2015-06-19T13:21:37Z</time>
      </trkpt>
      <trkpt lat="39.8335696" lon="3.1191156">
        <ele>23.6</ele>
        <time>2015-06-19T13:21:40Z</time>
      </trkpt>
      <trkpt lat="39.8336944" lon="3.1192749">
        <ele>23.2</ele>
        <time>2015-06-19T13:21:44Z</time>
      </trkpt>
      <trkpt lat="39.8337196" lon="3.1193124">
        <ele>23.2</ele>
        <time>2015-06-19T13:21:45Z</time>
      </trkpt>
      <trkpt lat="39.8338426" lon="3.1195816">
        <ele>23</ele>
        <time>2015-06-19T13:21:51Z</time>
      </trkpt>
      <trkpt lat="39.8339285" lon="3.1197394">
        <ele>24</ele>
        <time>2015-06-19T13:21:56Z</time>
      </trkpt>
      <trkpt lat="39.8340944" lon="3.1199575">
        <ele>24</ele>
        <time>2015-06-19T13:22:02Z</time>
      </trkpt>
      <trkpt lat="39.8343194" lon="3.1201578">
        <ele>24.2</ele>
        <time>2015-06-19T13:22:09Z</time>
      </trkpt>
      <trkpt lat="39.834562" lon="3.120351">
        <ele>24.2</ele>
        <time>2015-06-19T13:22:16Z</time>
      </trkpt>
      <trkpt lat="39.8347827" lon="3.1205288">
        <ele>24.4</ele>
        <time>2015-06-19T13:22:23Z</time>
      </trkpt>
      <trkpt lat="39.8348988" lon="3.1206">
        <ele>24.6</ele>
        <time>2015-06-19T13:22:26Z</time>
      </trkpt>
      <trkpt lat="39.834974" lon="3.1206228">
        <ele>24.6</ele>
        <time>2015-06-19T13:22:28Z</time>
      </trkpt>
      <trkpt lat="39.835115" lon="3.1206601">
        <ele>24.8</ele>
        <time>2015-06-19T13:22:32Z</time>
      </trkpt>
      <trkpt lat="39.8353202" lon="3.1206994">
        <ele>25</ele>
        <time>2015-06-19T13:22:37Z</time>
      </trkpt>
      <trkpt lat="39.8354443" lon="3.1207192">
        <ele>24.8</ele>
        <time>2015-06-19T13:22:41Z</time>
      </trkpt>
      <trkpt lat="39.8355246" lon="3.1207494">
        <ele>24.8</ele>
        <time>2015-06-19T13:22:45Z</time>
      </trkpt>
      <trkpt lat="39.8357173" lon="3.1208234">
        <ele>25</ele>
        <time>2015-06-19T13:22:51Z</time>
      </trkpt>
      <trkpt lat="39.8357569" lon="3.1208617">
        <ele>25</ele>
        <time>2015-06-19T13:22:52Z</time>
      </trkpt>
      <trkpt lat="39.835869" lon="3.1209677">
        <ele>25.2</ele>
        <time>2015-06-19T13:22:55Z</time>
      </trkpt>
      <trkpt lat="39.8359152" lon="3.1209993">
        <ele>25.2</ele>
        <time>2015-06-19T13:22:56Z</time>
      </trkpt>
      <trkpt lat="39.8360092" lon="3.1211035">
        <ele>25.4</ele>
        <time>2015-06-19T13:22:59Z</time>
      </trkpt>
      <trkpt lat="39.836184" lon="3.1213347">
        <ele>25</ele>
        <time>2015-06-19T13:23:05Z</time>
      </trkpt>
      <trkpt lat="39.8362815" lon="3.1215225">
        <ele>25</ele>
        <time>2015-06-19T13:23:09Z</time>
      </trkpt>
      <trkpt lat="39.836297" lon="3.1215688">
        <ele>25</ele>
        <time>2015-06-19T13:23:10Z</time>
      </trkpt>
      <trkpt lat="39.8363929" lon="3.1217598">
        <ele>25</ele>
        <time>2015-06-19T13:23:15Z</time>
      </trkpt>
      <trkpt lat="39.8364454" lon="3.1219102">
        <ele>25</ele>
        <time>2015-06-19T13:23:19Z</time>
      </trkpt>
      <trkpt lat="39.8365279" lon="3.1220059">
        <ele>25</ele>
        <time>2015-06-19T13:23:23Z</time>
      </trkpt>
      <trkpt lat="39.8367088" lon="3.1221707">
        <ele>24.8</ele>
        <time>2015-06-19T13:23:30Z</time>
      </trkpt>
      <trkpt lat="39.8368657" lon="3.1223282">
        <ele>25</ele>
        <time>2015-06-19T13:23:35Z</time>
      </trkpt>
      <trkpt lat="39.8369495" lon="3.1224265">
        <ele>25</ele>
        <time>2015-06-19T13:23:38Z</time>
      </trkpt>
      <trkpt lat="39.8371214" lon="3.1226358">
        <ele>24.6</ele>
        <time>2015-06-19T13:23:44Z</time>
      </trkpt>
      <trkpt lat="39.8372701" lon="3.122788">
        <ele>25</ele>
        <time>2015-06-19T13:23:50Z</time>
      </trkpt>
      <trkpt lat="39.8374064" lon="3.12289">
        <ele>25.4</ele>
        <time>2015-06-19T13:23:55Z</time>
      </trkpt>
      <trkpt lat="39.8375904" lon="3.1229836">
        <ele>25.2</ele>
        <time>2015-06-19T13:24:01Z</time>
      </trkpt>
      <trkpt lat="39.837753" lon="3.1230618">
        <ele>25</ele>
        <time>2015-06-19T13:24:06Z</time>
      </trkpt>
      <trkpt lat="39.8379488" lon="3.1231715">
        <ele>25.2</ele>
        <time>2015-06-19T13:24:12Z</time>
      </trkpt>
      <trkpt lat="39.8380554" lon="3.123277">
        <ele>24.8</ele>
        <time>2015-06-19T13:24:17Z</time>
      </trkpt>
      <trkpt lat="39.838154" lon="3.1233858">
        <ele>24.8</ele>
        <time>2015-06-19T13:24:22Z</time>
      </trkpt>
      <trkpt lat="39.8382058" lon="3.1234571">
        <ele>24.4</ele>
        <time>2015-06-19T13:24:27Z</time>
      </trkpt>
      <trkpt lat="39.8383006" lon="3.123582">
        <ele>24.8</ele>
        <time>2015-06-19T13:24:32Z</time>
      </trkpt>
      <trkpt lat="39.8383415" lon="3.1236911">
        <ele>24.2</ele>
        <time>2015-06-19T13:24:37Z</time>
      </trkpt>
      <trkpt lat="39.8383228" lon="3.1237721">
        <ele>24.2</ele>
        <time>2015-06-19T13:24:40Z</time>
      </trkpt>
    </trkseg>
  </trk>
</gpx>